[[{"header":{"parameterUnit":"m.s-1","parameterCategory":1,"la1":31.0,"la2":29.5877,"lo1":-88.7671,"lo2":-86.6584,"dy":0.0162,"dx":0.0185,"nx":115,"ny":88,"refTime":"2023-07-21T06:00:00:Z","depth":0,"parameterNumber":2,"parameterNumberName":"U-component_of_WINDS"},"data":[0.0,0.0,0.0,0.0,0.0,0.0,0.0,0.0,0.0,0.0,0.0,0.0,0.0,0.0,0.0,0.0,0.0,0.0,0.0,0.0,0.0,0.0,0.0,0.0,0.0,0.0,0.0,0.0,0.0,0.0,0.0,0.0,0.0,0.0,0.0,0.0,0.0,0.0,0.0,0.0,0.0,0.0,0.0,0.0,0.0,0.0,0.0,0.0,0.0,0.0,0.0,0.0,0.0,0.0,0.0,0.0,0.0,0.0,0.0,0.0,0.0,0.0,0.0,0.0,0.0,0.0,0.0,0.0,0.0,0.0,0.0,0.0,0.0,0.0,0.0,0.0,0.0,0.0,0.0,0.0,0.0,0.0,0.0,0.0,0.0,0.0,0.0,0.0,0.0,0.0,0.0,0.0,0.0,0.0,0.0,0.0,0.0,0.0,0.0,0.0,0.0,0.0,0.0,0.0,0.0,0.0,0.0,0.0,0.0,0.0,0.0,0.0,0.0,0.0,0.0,0.0,0.0,0.0,0.0,0.0,0.0,0.0,0.0,0.0,0.0,0.0,0.0,0.0,0.0,0.0,0.0,0.0,0.0,0.0,0.0,0.0,0.0,0.0,0.0,0.0,0.0,0.0,0.0,0.0,0.0,0.0,0.0,0.0,0.0,0.0,0.0,0.0,0.0,0.0,0.0,0.0,0.0,0.0,0.0,0.0,0.0,0.0,0.0,0.0,0.0,0.0,0.0,0.0,0.0,0.0,0.0,0.0,0.0,0.0,0.0,0.0,0.0,0.0,0.0,0.0,0.0,0.0,0.0,0.0,0.0,0.0,0.0,0.0,0.0,0.0,0.0,0.0,0.0,0.0,0.0,0.0,0.0,0.0,0.0,0.0,0.0,0.0,0.0,0.0,0.0,0.0,0.0,0.0,0.0,0.0,0.0,0.0,0.0,0.0,0.0,0.0,0.0,0.0,0.0,0.0,0.0,0.0,0.0,0.0,0.0,0.0,0.0,0.0,0.0,0.0,0.0,0.0,0.0,0.0,0.0,0.0,0.0,0.0,0.0,0.0,0.0,0.0,0.0,0.0,0.0,0.0,0.0,0.0,0.0,0.0,0.0,0.0,0.0,0.0,0.0,0.0,0.0,0.0,0.0,0.0,0.0,0.0,0.0,0.0,0.0,0.0,0.0,0.0,0.0,0.0,0.0,0.0,0.0,0.0,0.0,0.0,0.0,0.0,0.0,0.0,0.0,0.0,0.0,0.0,0.0,0.0,0.0,0.0,0.0,0.0,0.0,0.0,0.0,0.0,0.0,0.0,0.0,0.0,0.0,0.0,0.0,0.0,0.0,0.0,0.0,0.0,0.0,0.0,0.0,0.0,0.0,0.0,0.0,0.0,0.0,0.0,0.0,0.0,0.0,0.0,0.0,0.0,0.0,0.0,0.0,0.0,0.0,0.0,0.0,0.0,0.0,0.0,0.0,0.0,0.0,0.0,0.0,0.0,0.0,0.0,0.0,0.0,0.0,0.0,0.0,0.0,0.0,0.0,0.0,0.0,0.0,0.0,0.0,0.0,0.0,0.0,0.0,0.0,0.0,0.0,0.0,0.0,0.0,0.0,0.0,0.0,0.0,0.0,0.0,0.0,0.0,0.0,0.0,0.0,0.0,0.0,0.0,0.0,0.0,0.0,0.0,0.0,0.0,0.0,0.0,0.0,0.0,0.0,0.0,0.0,0.0,0.0,0.0,0.0,0.0,0.0,0.0,0.0,0.0,0.0,0.0,0.0,0.0,0.0,0.0,0.0,0.0,0.0,0.0,0.0,0.0,0.0,0.0,0.0,0.0,0.0,0.0,0.0,0.0,0.0,0.0,0.0,0.0,0.0,0.0,0.0,0.0,0.0,0.0,0.0,0.0,0.0,0.0,0.0,0.0,0.0,0.0,0.0,0.0,0.0,0.0,0.0,0.0,0.0,0.0,0.0,0.0,0.0,0.0,0.0,0.0,0.0,0.0,0.0,0.0,0.0,0.0,0.0,0.0,0.0,0.0,0.0,0.0,0.0,0.0,0.0,0.0,0.0,0.0,0.0,0.0,0.0,0.0,0.0,0.0,0.0,0.0,0.0,0.0,0.0,0.0,0.0,0.0,0.0,0.0,0.0,0.0,0.0,0.0,0.0,0.0,0.0,0.0,0.0,0.0,0.0,0.0,0.0,0.0,0.0,0.0,0.0,0.0,0.0,0.0,0.0,0.0,0.0,0.0,0.0,0.0,0.0,0.0,0.0,0.0,0.0,0.0,0.0,0.0,0.0,0.0,0.0,0.0,0.0,0.0,0.0,0.0,0.0,0.0,0.0,0.0,0.0,0.0,0.0,0.0,0.0,0.0,0.0,0.0,0.0,0.0,0.0,0.0,0.0,0.0,0.0,0.0,0.0,0.0,0.0,0.0,0.0,0.0,0.0,0.0,0.0,0.0,0.0,0.0,0.0,0.0,0.0,0.0,0.0,0.0,0.0,0.0,0.0,0.0,0.0,0.0,0.0,0.0,0.0,0.0,0.0,0.0,0.0,0.0,0.0,0.0,0.0,0.0,0.0,0.0,0.0,0.0,0.0,0.0,0.0,0.0,0.0,0.0,0.0,0.0,0.0,0.0,0.0,0.0,0.0,0.0,0.0,0.0,0.0,0.0,0.0,0.0,0.0,0.0,0.0,0.0,0.0,0.0,0.0,0.0,0.0,0.0,0.0,0.0,0.0,0.0,0.0,0.0,0.0,0.0,0.0,0.0,0.0,0.0,0.0,0.0,0.0,0.0,0.0,0.0,0.0,0.0,0.0,0.0,0.0,0.0,0.0,0.0,0.0,0.0,0.0,0.0,0.0,0.0,0.0,0.0,0.0,0.0,0.0,0.0,0.0,0.0,0.0,0.0,0.0,0.0,0.0,0.0,0.0,0.0,0.0,0.0,0.0,0.0,0.0,0.0,0.0,0.0,0.0,0.0,0.0,0.0,0.0,0.0,0.0,0.0,0.0,0.0,0.0,0.0,0.0,0.0,0.0,0.0,0.0,0.0,0.0,0.0,0.0,0.0,0.0,0.0,0.0,0.0,0.0,0.0,0.0,0.0,0.0,0.0,0.0,0.0,0.0,0.0,0.0,0.0,0.0,0.0,0.0,0.0,0.0,0.0,0.0,0.0,0.0,0.0,0.0,0.0,0.0,0.0,0.0,0.0,0.0,0.0,0.0,0.0,0.0,0.0,0.0,0.0,0.0,0.0,0.0,0.0,0.0,0.0,0.0,0.0,0.0,0.0,0.0,0.0,0.0,0.0,0.0,0.0,0.0,0.0,0.0,0.0,0.0,0.0,0.0,0.0,0.0,0.0,0.0,0.0,0.0,0.0,0.0,0.0,0.0,0.0,0.0,0.0,0.0,0.0,0.0,0.0,0.0,0.0,0.0,0.0,0.0,0.0,0.0,0.0,0.0,0.0,0.0,0.0,0.0,0.0,0.0,0.0,0.0,0.0,0.0,0.0,0.0,0.0,0.0,0.0,0.0,0.0,0.0,0.0,0.0,0.0,0.0,0.0,0.0,0.0,0.0,0.0,0.0,0.0,0.0,0.0,0.0,0.0,0.0,0.0,0.0,0.0,0.0,0.0,0.0,0.0,0.0,0.0,0.0,0.0,0.0,0.0,0.0,0.0,0.0,0.0,0.0,0.0,0.0,0.0,0.0,0.0,0.0,0.0,0.0,0.0,0.0,0.0,0.0,0.0,0.0,0.0,0.0,0.0,0.0,0.0,0.0,0.0,0.0,0.0,0.0,0.0,0.0,0.0,0.0,0.0,0.0,0.0,0.0,0.0,0.0,0.0,0.0,0.0,0.0,0.0,0.0,0.0,0.0,0.0,0.0,0.0,0.0,0.0,0.0,0.0,0.0,0.0,0.0,0.0,0.0,0.0,0.0,0.0,0.0,0.0,0.0,0.0,0.0,0.0,0.0,0.0,0.0,0.0,0.0,0.0,0.0,0.0,0.0,0.0,0.0,0.0,0.0,0.0,0.0,0.0,0.0,0.0,0.0,0.0,0.0,0.0,0.0,0.0,0.0,0.0,0.0,0.0,0.0,0.0,0.0,0.0,0.0,0.0,0.0,0.0,0.0,0.0,0.0,0.0,0.0,0.0,0.0,0.0,0.0,0.0,0.0,0.0,0.0,0.0,0.0,0.0,0.0,0.0,0.0,0.0,0.0,0.0,0.0,0.0,0.0,0.0,0.0,0.0,0.0,0.0,0.0,3.0613,0.0,0.0,0.0,0.0,0.0,0.0,0.0,0.0,0.0,0.0,0.0,0.0,0.0,0.0,0.0,0.0,0.0,0.0,0.0,0.0,0.0,0.0,0.0,0.0,0.0,0.0,0.0,0.0,0.0,0.0,0.0,0.0,0.0,0.0,0.0,0.0,0.0,0.0,0.0,0.0,0.0,0.0,0.0,0.0,0.0,0.0,0.0,0.0,0.0,0.0,0.0,0.0,0.0,0.0,0.0,0.0,0.0,0.0,0.0,0.0,0.0,0.0,0.0,0.0,0.0,0.0,0.0,0.0,0.0,0.0,0.0,0.0,0.0,0.0,0.0,0.0,0.0,0.0,0.0,0.0,0.0,0.0,0.0,0.0,0.0,0.0,0.0,0.0,0.0,0.0,0.0,0.0,0.0,0.0,0.0,0.0,0.0,0.0,0.0,0.0,0.0,0.0,0.0,0.0,0.0,0.0,0.0,0.0,0.0,0.0,3.0462,3.0481,3.0441,3.0419,3.0447,0.0,0.0,0.0,0.0,0.0,0.0,0.0,0.0,0.0,0.0,0.0,0.0,0.0,0.0,0.0,0.0,0.0,0.0,0.0,0.0,0.0,0.0,0.0,0.0,0.0,0.0,0.0,0.0,0.0,0.0,0.0,0.0,0.0,0.0,0.0,0.0,0.0,0.0,0.0,0.0,0.0,0.0,0.0,0.0,0.0,0.0,0.0,0.0,0.0,0.0,0.0,0.0,0.0,0.0,0.0,0.0,0.0,0.0,0.0,0.0,0.0,0.0,0.0,0.0,0.0,0.0,0.0,0.0,0.0,0.0,0.0,0.0,0.0,0.0,0.0,0.0,0.0,0.0,0.0,0.0,0.0,0.0,0.0,0.0,0.0,0.0,0.0,0.0,0.0,0.0,0.0,0.0,0.0,0.0,0.0,0.0,0.0,0.0,0.0,0.0,0.0,0.0,0.0,0.0,0.0,0.0,0.0,0.0,0.0,0.0,0.0,0.0,3.0248,3.0222,3.0253,0.0,0.0,0.0,0.0,0.0,0.0,0.0,0.0,0.0,0.0,0.0,0.0,0.0,0.0,0.0,0.0,0.0,0.0,0.0,0.0,0.0,0.0,0.0,0.0,0.0,0.0,0.0,0.0,0.0,0.0,0.0,0.0,0.0,0.0,0.0,0.0,0.0,0.0,0.0,0.0,0.0,0.0,0.0,0.0,0.0,0.0,0.0,0.0,0.0,0.0,0.0,0.0,0.0,0.0,0.0,0.0,0.0,0.0,0.0,0.0,0.0,0.0,0.0,0.0,0.0,0.0,0.0,0.0,0.0,0.0,0.0,0.0,0.0,0.0,0.0,0.0,0.0,0.0,0.0,0.0,0.0,0.0,0.0,0.0,0.0,0.0,0.0,0.0,0.0,0.0,0.0,0.0,0.0,0.0,0.0,0.0,0.0,0.0,0.0,0.0,0.0,0.0,0.0,0.0,0.0,0.0,0.0,0.0,0.0,0.0,3.0094,3.0056,3.0022,0.0,3.0022,0.0,0.0,0.0,0.0,0.0,0.0,0.0,0.0,0.0,0.0,0.0,0.0,0.0,0.0,0.0,0.0,0.0,0.0,0.0,0.0,0.0,0.0,0.0,0.0,0.0,0.0,0.0,0.0,0.0,0.0,0.0,0.0,0.0,0.0,0.0,0.0,0.0,0.0,0.0,0.0,0.0,0.0,0.0,0.0,0.0,0.0,0.0,0.0,0.0,0.0,0.0,0.0,0.0,0.0,0.0,0.0,0.0,0.0,0.0,0.0,0.0,0.0,0.0,0.0,0.0,0.0,0.0,0.0,0.0,0.0,0.0,0.0,0.0,0.0,0.0,0.0,0.0,0.0,0.0,0.0,0.0,0.0,0.0,0.0,0.0,0.0,0.0,0.0,0.0,0.0,0.0,0.0,0.0,0.0,0.0,0.0,0.0,0.0,0.0,0.0,0.0,0.0,0.0,0.0,0.0,0.0,0.0,0.0,0.0,0.0,2.9715,2.9642,2.9607,2.9607,0.0,0.0,0.0,0.0,0.0,0.0,0.0,0.0,0.0,0.0,0.0,0.0,0.0,0.0,0.0,0.0,0.0,0.0,0.0,0.0,0.0,0.0,0.0,0.0,0.0,0.0,0.0,0.0,0.0,0.0,0.0,0.0,0.0,0.0,0.0,0.0,0.0,0.0,0.0,0.0,0.0,0.0,0.0,0.0,0.0,0.0,0.0,0.0,0.0,0.0,0.0,0.0,0.0,0.0,0.0,0.0,0.0,0.0,0.0,0.0,0.0,0.0,0.0,0.0,0.0,0.0,0.0,0.0,0.0,0.0,0.0,0.0,0.0,0.0,0.0,0.0,0.0,0.0,0.0,0.0,0.0,0.0,0.0,0.0,0.0,0.0,0.0,0.0,0.0,0.0,0.0,0.0,0.0,0.0,0.0,0.0,0.0,0.0,0.0,0.0,0.0,0.0,0.0,0.0,0.0,0.0,0.0,0.0,0.0,0.0,2.9322,2.9223,2.9198,2.9172,2.9151,2.9198,0.0,0.0,0.0,0.0,0.0,0.0,0.0,0.0,0.0,0.0,0.0,0.0,0.0,0.0,0.0,0.0,0.0,0.0,0.0,0.0,0.0,0.0,0.0,0.0,0.0,0.0,0.0,0.0,0.0,0.0,0.0,0.0,0.0,0.0,0.0,0.0,0.0,0.0,0.0,0.0,0.0,0.0,0.0,0.0,0.0,0.0,0.0,0.0,0.0,0.0,0.0,0.0,0.0,0.0,0.0,0.0,0.0,0.0,0.0,0.0,0.0,0.0,0.0,0.0,0.0,0.0,0.0,0.0,0.0,0.0,0.0,0.0,0.0,0.0,0.0,0.0,0.0,0.0,0.0,0.0,0.0,0.0,0.0,0.0,0.0,0.0,0.0,0.0,0.0,0.0,0.0,0.0,0.0,0.0,0.0,0.0,0.0,0.0,0.0,0.0,0.0,0.0,0.0,0.0,0.0,0.0,0.0,0.0,2.902,2.8718,2.8607,2.8706,2.8706,2.8706,0.0,0.0,0.0,0.0,0.0,0.0,0.0,0.0,0.0,0.0,0.0,0.0,0.0,0.0,0.0,0.0,0.0,0.0,0.0,0.0,0.0,0.0,0.0,0.0,0.0,0.0,0.0,0.0,0.0,0.0,0.0,0.0,0.0,0.0,0.0,0.0,0.0,0.0,0.0,0.0,0.0,0.0,0.0,0.0,0.0,0.0,0.0,0.0,0.0,0.0,0.0,0.0,0.0,0.0,0.0,0.0,0.0,0.0,0.0,0.0,0.0,0.0,0.0,0.0,0.0,0.0,0.0,0.0,0.0,0.0,0.0,0.0,0.0,0.0,0.0,0.0,0.0,0.0,0.0,0.0,0.0,0.0,0.0,0.0,0.0,0.0,0.0,0.0,0.0,0.0,0.0,0.0,0.0,0.0,0.0,0.0,0.0,0.0,0.0,0.0,0.0,0.0,0.0,0.0,0.0,0.0,0.0,0.0,0.0,2.8478,2.8103,2.7913,2.7872,2.7872,2.7883,0.0,0.0,0.0,0.0,0.0,0.0,0.0,0.0,0.0,0.0,0.0,0.0,0.0,0.0,0.0,0.0,0.0,0.0,0.0,0.0,0.0,0.0,0.0,0.0,0.0,0.0,0.0,0.0,0.0,0.0,0.0,0.0,0.0,0.0,0.0,0.0,0.0,0.0,0.0,0.0,0.0,0.0,0.0,0.0,0.0,0.0,0.0,0.0,0.0,0.0,0.0,0.0,0.0,0.0,0.0,0.0,0.0,0.0,0.0,0.0,0.0,0.0,0.0,0.0,0.0,0.0,0.0,0.0,0.0,0.0,0.0,0.0,0.0,0.0,0.0,0.0,0.0,0.0,0.0,0.0,0.0,0.0,0.0,0.0,0.0,0.0,0.0,0.0,0.0,0.0,0.0,0.0,0.0,0.0,0.0,0.0,0.0,0.0,0.0,0.0,0.0,0.0,0.0,0.0,0.0,0.0,0.0,0.0,0.0,2.7654,0.0,2.7095,2.6935,2.6918,2.6967,0.0,0.0,0.0,0.0,0.0,0.0,0.0,0.0,0.0,0.0,0.0,0.0,0.0,0.0,0.0,0.0,0.0,0.0,0.0,0.0,0.0,0.0,0.0,0.0,0.0,0.0,0.0,0.0,0.0,0.0,0.0,0.0,0.0,0.0,0.0,0.0,0.0,0.0,0.0,0.0,0.0,0.0,0.0,0.0,0.0,0.0,0.0,0.0,0.0,0.0,0.0,0.0,0.0,0.0,0.0,0.0,0.0,0.0,0.0,0.0,0.0,0.0,0.0,0.0,0.0,0.0,0.0,0.0,0.0,0.0,0.0,0.0,0.0,0.0,0.0,0.0,0.0,0.0,0.0,0.0,0.0,0.0,0.0,0.0,0.0,0.0,0.0,0.0,0.0,0.0,0.0,0.0,0.0,0.0,0.0,0.0,0.0,0.0,0.0,0.0,0.0,0.0,0.0,0.0,0.0,0.0,0.0,0.0,2.7057,2.6522,2.6265,2.609,2.5895,2.5914,2.595,0.0,0.0,0.0,0.0,0.0,0.0,0.0,0.0,0.0,0.0,0.0,0.0,0.0,0.0,0.0,0.0,0.0,0.0,0.0,0.0,0.0,0.0,0.0,0.0,0.0,0.0,0.0,0.0,0.0,0.0,0.0,0.0,0.0,0.0,0.0,0.0,0.0,0.0,0.0,0.0,0.0,0.0,0.0,0.0,0.0,0.0,0.0,0.0,0.0,0.0,0.0,0.0,0.0,0.0,0.0,0.0,0.0,0.0,0.0,0.0,0.0,0.0,0.0,0.0,0.0,0.0,0.0,0.0,0.0,0.0,0.0,0.0,0.0,0.0,0.0,0.0,0.0,0.0,0.0,0.0,0.0,0.0,0.0,0.0,0.0,0.0,0.0,0.0,0.0,0.0,0.0,0.0,0.0,0.0,0.0,0.0,0.0,0.0,0.0,0.0,0.0,0.0,0.0,0.0,0.0,0.0,0.0,0.0,0.0,2.5475,2.5064,2.4792,2.4594,2.4538,2.4523,0.0,0.0,0.0,0.0,0.0,0.0,0.0,0.0,0.0,0.0,0.0,0.0,0.0,0.0,0.0,0.0,0.0,0.0,0.0,0.0,0.0,0.0,0.0,0.0,0.0,0.0,0.0,0.0,0.0,0.0,0.0,0.0,0.0,0.0,0.0,0.0,0.0,0.0,0.0,0.0,0.0,0.0,0.0,0.0,0.0,0.0,0.0,0.0,0.0,0.0,0.0,0.0,0.0,0.0,0.0,0.0,0.0,0.0,0.0,0.0,0.0,0.0,0.0,0.0,0.0,0.0,0.0,0.0,0.0,0.0,0.0,0.0,0.0,0.0,0.0,0.0,0.0,0.0,0.0,0.0,0.0,0.0,0.0,0.0,0.0,0.0,0.0,0.0,0.0,0.0,0.0,0.0,0.0,0.0,0.0,0.0,0.0,0.0,0.0,0.0,0.0,0.0,0.0,0.0,0.0,0.0,0.0,0.0,0.0,2.337,2.3473,2.3359,2.301,2.3025,2.3025,2.3069,0.0,0.0,0.0,0.0,0.0,0.0,0.0,0.0,0.0,0.0,0.0,0.0,0.0,0.0,0.0,0.0,0.0,0.0,0.0,0.0,0.0,0.0,0.0,0.0,0.0,0.0,0.0,0.0,0.0,0.0,0.0,0.0,0.0,0.0,0.0,0.0,0.0,0.0,0.0,0.0,0.0,0.0,0.0,0.0,0.0,0.0,0.0,0.0,0.0,0.0,0.0,0.0,0.0,0.0,0.0,0.0,0.0,0.0,0.0,0.0,0.0,0.0,0.0,0.0,0.0,0.0,0.0,0.0,0.0,0.0,0.0,0.0,0.0,0.0,0.0,0.0,0.0,0.0,0.0,0.0,0.0,0.0,0.0,0.0,0.0,0.0,0.0,0.0,0.0,0.0,0.0,0.0,0.0,0.0,0.0,0.0,0.0,0.0,0.0,0.0,0.0,0.0,0.0,0.0,0.0,0.0,0.0,0.0,2.0542,2.1438,2.1627,2.1212,2.1383,2.1493,0.0,0.0,0.0,0.0,0.0,0.0,0.0,0.0,0.0,0.0,0.0,0.0,0.0,0.0,0.0,0.0,0.0,0.0,0.0,0.0,0.0,0.0,0.0,0.0,0.0,0.0,0.0,0.0,0.0,0.0,0.0,0.0,0.0,0.0,0.0,0.0,0.0,0.0,0.0,0.0,0.0,0.0,0.0,0.0,0.0,0.0,0.0,0.0,0.0,0.0,0.0,0.0,0.0,0.0,0.0,0.0,0.0,0.0,0.0,0.0,0.0,0.0,0.0,0.0,0.0,0.0,0.0,0.0,0.0,0.0,0.0,0.0,0.0,0.0,0.0,0.0,0.0,0.0,0.0,0.0,0.0,0.0,0.0,0.0,0.0,0.0,0.0,0.0,0.0,0.0,0.0,0.0,0.0,0.0,0.0,0.0,0.0,0.0,0.0,0.0,0.0,0.0,0.0,0.0,0.0,0.0,0.0,0.0,0.0,1.8608,1.8307,1.8572,1.9455,1.9519,1.9531,0.0,0.0,0.0,0.0,0.0,0.0,0.0,0.0,0.0,0.0,0.0,0.0,0.0,0.0,0.0,0.0,0.0,0.0,0.0,0.0,0.0,0.0,0.0,0.0,0.0,0.0,0.0,0.0,0.0,0.0,0.0,0.0,0.0,0.0,0.0,0.0,0.0,0.0,0.0,0.0,0.0,0.0,0.0,0.0,0.0,0.0,0.0,0.0,0.0,0.0,0.0,0.0,0.0,0.0,0.0,0.0,0.0,0.0,0.0,0.0,0.0,0.0,0.0,0.0,0.0,0.0,0.0,0.0,0.0,0.0,0.0,0.0,0.0,0.0,0.0,0.0,0.0,0.0,0.0,0.0,0.0,0.0,0.0,0.0,0.0,0.0,0.0,0.0,0.0,0.0,0.0,0.0,0.0,0.0,0.0,0.0,0.0,0.0,0.0,0.0,0.0,0.0,0.0,0.0,0.0,0.0,0.0,0.0,1.7986,1.6693,1.581,1.5676,1.6483,1.7192,1.7664,0.0,0.0,0.0,0.0,0.0,0.0,0.0,0.0,0.0,0.0,0.0,0.0,0.0,0.0,0.0,0.0,0.0,0.0,0.0,0.0,0.0,0.0,0.0,0.0,0.0,0.0,0.0,0.0,0.0,0.0,0.0,0.0,0.0,0.0,0.0,0.0,0.0,0.0,0.0,0.0,0.0,0.0,0.0,0.0,0.0,0.0,0.0,0.0,0.0,0.0,0.0,0.0,0.0,0.0,0.0,0.0,0.0,0.0,0.0,0.0,0.0,0.0,0.0,0.0,0.0,0.0,0.0,0.0,0.0,0.0,0.0,0.0,0.0,0.0,0.0,0.0,0.0,0.0,0.0,0.0,0.0,0.0,0.0,0.0,0.0,0.0,0.0,0.0,0.0,0.0,0.0,0.0,0.0,0.0,0.0,0.0,0.0,0.0,0.0,0.0,0.0,0.0,0.0,0.0,0.0,0.0,0.0,0.0,1.6177,1.4828,1.3725,1.302,1.2959,1.4711,1.583,0.0,0.0,0.0,0.0,0.0,0.0,0.0,0.0,0.0,0.0,0.0,0.0,0.0,0.0,0.0,0.0,0.0,0.0,0.0,0.0,0.0,0.0,0.0,0.0,0.0,0.0,0.0,0.0,0.0,0.0,0.0,0.0,0.0,0.0,0.0,0.0,0.0,0.0,0.0,0.0,0.0,0.0,0.0,0.0,0.0,0.0,0.0,0.0,0.0,0.0,0.0,0.0,0.0,0.0,0.0,0.0,0.0,0.0,0.0,0.0,0.0,0.0,0.0,0.0,0.0,0.0,0.0,0.0,0.0,0.0,0.0,0.0,0.0,0.0,0.0,0.0,0.0,0.0,0.0,0.0,0.0,0.0,0.0,0.0,0.0,0.0,0.0,0.0,0.0,0.0,0.0,0.0,0.0,0.0,0.0,0.0,0.0,0.0,0.0,0.0,0.0,0.0,0.0,0.0,0.0,0.0,0.0,0.0,1.4146,1.2692,1.1796,1.1197,1.0947,1.2761,1.3981,0.0,0.0,0.0,0.0,0.0,0.0,0.0,0.0,0.0,0.0,0.0,0.0,0.0,0.0,0.0,0.0,0.0,0.0,0.0,0.0,0.0,0.0,0.0,0.0,0.0,0.0,0.0,0.0,0.0,0.0,0.0,0.0,0.0,0.0,0.0,0.0,0.0,0.0,0.0,0.0,0.0,0.0,0.0,0.0,0.0,0.0,0.0,0.0,2.1278,0.0,0.0,0.0,0.0,0.0,0.0,0.0,0.0,0.0,0.0,0.0,0.0,0.0,0.0,0.0,0.0,0.0,0.0,0.0,0.0,0.0,0.0,0.0,0.0,0.0,0.0,0.0,0.0,0.0,0.0,0.0,0.0,0.0,0.0,0.0,0.0,0.0,0.0,0.0,0.0,0.0,0.0,0.0,0.0,0.0,0.0,0.0,0.0,0.0,0.0,0.0,0.0,0.0,0.0,0.0,0.0,0.0,0.0,0.0,1.2371,1.085,1.0129,0.9627,0.9506,1.0627,1.1742,0.0,0.0,0.0,0.0,0.0,0.0,0.0,0.0,0.0,0.0,0.0,0.0,0.0,0.0,0.0,0.0,0.0,0.0,0.0,0.0,0.0,0.0,0.0,0.0,0.0,0.0,0.0,0.0,0.0,0.0,0.0,0.0,0.0,0.0,0.0,0.0,0.0,0.0,0.0,0.0,0.0,0.0,0.0,0.0,0.0,0.0,0.0,0.0,0.0,0.0,0.0,0.0,0.0,0.0,0.0,0.0,0.0,0.0,0.0,0.0,0.0,0.0,0.0,0.0,0.0,0.0,0.0,0.0,0.0,0.0,0.0,0.0,0.0,0.0,0.0,0.0,0.0,0.0,0.0,0.0,0.0,0.0,0.0,0.0,0.0,0.0,0.0,0.0,0.0,0.0,0.0,0.0,0.0,0.0,0.0,0.0,0.0,0.0,0.0,0.0,0.0,0.0,0.0,0.0,0.0,0.0,0.0,1.2066,1.06,0.9163,0.8474,0.8161,0.8231,0.856,0.9448,1.0947,0.0,0.0,0.0,0.0,0.0,0.0,0.0,0.0,0.0,0.0,0.0,0.0,0.0,0.0,0.0,0.0,0.0,0.0,0.0,0.0,0.0,0.0,0.0,0.0,0.0,0.0,0.0,0.0,0.0,0.0,0.0,0.0,0.0,0.0,0.0,0.0,0.0,0.0,2.3967,2.3478,0.0,0.0,0.0,0.0,0.0,0.0,0.0,0.0,1.6495,0.0,0.0,0.0,0.0,0.0,0.0,0.0,0.0,0.0,0.0,0.0,0.0,0.0,0.0,0.0,0.0,0.0,0.0,0.0,0.0,0.0,0.0,0.0,0.0,0.0,0.0,0.0,0.0,0.0,0.0,0.0,0.0,0.0,0.0,0.0,0.0,0.0,0.0,0.0,0.0,0.0,0.0,0.0,0.0,0.0,0.0,0.0,0.0,0.0,0.0,0.0,0.0,0.0,0.0,0.0,0.0,1.1675,1.0203,0.8773,0.7372,0.692,0.6793,0.7003,0.7456,0.8037,0.8742,0.0,0.0,0.0,0.0,0.0,0.0,0.0,0.0,0.0,0.0,0.0,0.0,0.0,0.0,0.0,0.0,0.0,0.0,0.0,0.0,0.0,0.0,0.0,0.0,0.0,0.0,0.0,0.0,0.0,0.0,0.0,0.0,0.0,0.0,0.0,0.0,0.0,0.0,0.0,2.1826,2.1225,0.0,0.0,0.0,0.0,0.0,0.0,0.0,0.0,1.3187,0.0,0.0,0.0,0.0,0.0,0.0,0.0,0.0,0.0,0.0,0.0,0.0,0.0,0.0,0.0,0.0,0.0,0.0,0.0,0.0,0.0,0.0,0.0,0.0,0.0,0.0,0.0,0.0,0.0,0.0,0.0,0.0,0.0,0.0,0.0,0.0,0.0,0.0,0.0,0.0,0.0,0.0,0.0,0.0,0.0,0.0,0.0,0.0,0.0,0.0,0.0,0.0,0.0,0.0,0.0,0.9932,0.8495,0.7163,0.6009,0.5811,0.5811,0.6017,0.6609,0.7134,0.0,0.0,0.0,0.0,0.0,0.0,0.0,0.0,0.0,0.0,0.0,0.0,0.0,0.0,0.0,0.0,0.0,0.0,0.0,0.0,0.0,0.0,0.0,0.0,0.0,0.0,0.0,0.0,0.0,0.0,0.0,0.0,0.0,0.0,0.0,0.0,0.0,0.0,0.0,0.0,1.967,1.8742,1.7987,0.0,0.0,0.0,0.0,0.0,0.0,1.0615,1.0027,0.0,0.0,0.0,0.0,0.0,0.0,0.0,0.0,0.0,0.0,0.0,0.0,0.0,0.0,0.0,0.0,0.0,0.0,0.0,0.0,0.0,0.0,0.0,0.0,0.0,0.0,0.0,0.0,0.0,0.0,0.0,0.0,0.0,0.0,0.0,0.0,0.0,0.0,0.0,0.0,0.0,0.0,0.0,0.0,0.0,0.0,0.0,0.0,0.0,0.0,0.0,0.0,0.0,0.0,0.0,0.8099,0.6759,0.5599,0.4755,0.4755,0.4891,0.516,0.5822,0.6412,0.0,0.0,0.0,0.0,0.0,0.0,0.0,0.0,0.0,0.0,0.0,0.0,0.0,0.0,0.0,0.0,0.0,0.0,0.0,0.0,0.0,0.0,0.0,0.0,0.0,0.0,0.0,0.0,0.0,0.0,0.0,0.0,0.0,0.0,0.0,0.0,0.0,0.0,0.0,0.0,0.0,1.5986,1.4926,1.3672,0.0,0.0,0.0,0.0,0.8049,0.7409,0.0,0.0,0.0,0.0,0.0,0.0,0.0,0.0,0.0,0.0,0.0,0.0,0.0,0.0,0.0,0.0,0.0,0.0,0.0,0.0,0.0,0.0,0.0,0.0,0.0,0.0,0.0,0.0,0.0,0.0,0.0,0.0,0.0,0.0,0.0,0.0,0.0,0.0,0.0,0.0,0.0,0.0,0.0,0.0,0.0,0.0,0.0,0.0,0.0,0.0,0.0,0.0,0.0,0.0,0.0,0.0,0.5967,0.4863,0.4018,0.3426,0.3623,0.3954,0.442,0.5156,0.5752,0.0,0.0,0.0,0.0,0.0,0.0,0.0,0.0,0.0,0.0,0.0,0.0,0.0,0.0,0.0,0.0,0.0,0.0,0.0,0.0,0.0,0.0,0.0,0.0,0.0,0.0,0.0,0.0,0.0,0.0,0.0,0.0,0.0,0.0,0.0,0.0,0.0,0.0,0.0,0.0,0.0,1.3011,1.1632,1.0348,0.9599,0.0,0.0,0.5594,0.4776,0.4124,0.0,0.0,0.0,0.0,0.0,0.0,0.0,0.0,0.0,0.0,0.0,0.0,0.0,0.0,0.0,0.0,0.0,0.0,0.0,0.0,0.0,0.0,0.0,0.0,0.0,0.0,0.0,0.0,0.0,0.0,0.0,0.0,0.0,0.0,0.0,0.0,0.0,0.0,0.0,0.0,0.0,0.0,0.0,0.0,0.0,0.0,0.0,0.0,0.0,0.0,0.0,0.0,0.0,0.0,0.0,0.6506,0.4872,0.4018,0.3157,0.242,0.2751,0.322,0.3818,0.4556,0.516,0.0,0.0,0.0,0.0,0.0,0.0,0.0,0.0,0.0,0.0,0.0,0.0,0.0,0.0,0.0,0.0,0.0,0.0,0.0,0.0,0.0,0.0,0.0,0.0,0.0,0.0,0.0,0.0,0.0,0.0,0.0,0.0,0.0,0.0,0.0,0.0,0.0,0.0,0.0,0.0,0.0,0.0,0.8172,0.6668,0.0,0.0,0.0,0.2271,0.1603,0.0,0.0,0.0,0.0,0.0,0.0,0.0,0.0,0.0,0.0,0.0,0.0,0.0,0.0,0.0,0.0,0.0,0.0,0.0,0.0,0.0,0.0,0.0,0.0,0.0,0.0,0.0,0.0,0.0,0.0,0.0,0.0,0.0,0.0,0.0,0.0,0.0,0.0,0.0,0.0,0.0,0.0,0.0,0.0,0.0,0.0,0.0,0.0,0.0,0.0,0.0,0.0,0.0,0.0,0.0,0.0,0.0,0.3345,0.2683,0.2014,0.1479,0.1949,0.2551,0.322,0.4023,0.0,0.0,0.0,0.0,0.0,0.0,0.0,0.0,0.0,0.0,0.0,0.0,0.0,0.0,0.0,0.0,0.0,0.0,0.0,0.0,0.0,0.0,0.0,0.0,0.0,0.0,0.0,1.7386,0.0,0.0,0.0,0.0,0.0,0.0,0.0,0.0,0.0,0.0,0.0,0.0,0.0,0.0,0.7514,0.4727,0.3164,0.1933,0.0,0.0,-0.1038,-0.185,-0.2249,-0.2584,0.0,0.0,0.0,0.0,0.0,0.0,0.0,0.0,0.0,0.0,0.0,0.0,0.0,0.0,0.0,0.0,0.0,0.0,0.0,0.0,0.0,0.0,0.0,0.0,0.0,0.0,0.0,0.0,0.0,0.0,0.0,0.0,0.0,0.0,0.0,0.0,0.0,0.0,0.0,0.0,0.0,0.0,0.0,0.0,0.0,0.0,0.0,0.0,0.0,0.0,0.0,0.0,0.0,0.0,0.0,0.0602,0.0134,0.0134,0.0538,0.1076,0.1747,0.2551,0.3422,0.4161,0.0,0.0,0.0,0.0,0.0,0.0,0.0,0.0,0.0,0.0,0.0,0.0,0.0,0.0,0.0,0.0,0.0,0.0,0.0,0.0,0.0,0.0,0.0,0.0,0.0,0.0,0.0,0.0,0.0,0.0,0.0,0.0,0.0,0.0,0.0,0.0,0.0,0.0,0.0,0.0,0.0,0.263,0.1316,-0.0066,-0.1327,0.0,0.0,-0.4244,-0.5834,-0.5438,-0.5102,-0.55,0.0,0.0,0.0,0.0,0.0,0.0,0.0,0.0,0.0,0.0,0.0,0.0,0.0,0.0,0.0,0.0,0.0,0.0,0.0,0.0,0.0,0.0,0.0,0.0,0.0,0.0,0.0,0.0,0.0,0.0,0.0,0.0,0.0,0.0,0.0,0.0,0.0,0.0,0.0,0.0,0.0,0.0,0.0,0.0,0.0,0.0,0.0,0.0,0.0,0.0,0.0,0.0,0.0,-0.0469,-0.1005,-0.1276,-0.1143,-0.0538,0.0336,0.1276,0.2281,0.2885,0.3692,0.0,0.0,0.0,0.0,0.0,0.0,0.0,0.0,0.0,0.0,0.0,0.0,0.0,0.0,0.0,0.0,0.0,0.0,0.0,0.0,0.0,0.0,0.0,0.0,0.0,0.0,0.0,0.0,1.0643,0.9938,0.7414,0.0,0.0,0.0,0.0,0.0,0.0,0.0,0.0,0.0,0.0,-0.0593,-0.198,-0.3843,0.0,0.0,-0.589,-0.6588,-0.7409,-0.7449,-0.7368,-0.7455,-0.761,0.0,0.0,0.0,0.0,0.0,0.0,0.0,0.0,0.0,0.0,0.0,0.0,0.0,0.0,0.0,0.0,0.0,0.0,0.0,0.0,0.0,0.0,0.0,0.0,0.0,0.0,0.0,0.0,0.0,0.0,0.0,0.0,0.0,0.0,0.0,0.0,0.0,0.0,0.0,0.0,0.0,0.0,0.0,0.0,0.0,0.0,0.0,0.0,0.0,0.0,0.0,0.0,-0.2076,-0.2414,-0.242,-0.2085,-0.1412,-0.0336,0.0873,0.2149,0.2686,0.3424,0.0,0.0,0.0,0.0,0.0,0.0,0.0,0.0,0.0,0.0,0.0,0.0,0.0,0.0,0.0,0.0,0.0,0.0,0.0,0.0,0.0,0.0,0.0,0.0,0.0,0.0,0.0,0.0,0.6681,0.5632,0.274,0.0,0.0,0.0,0.0,0.0,0.0,0.0,0.0,0.0,0.0,-0.3813,-0.5058,-0.6815,-0.7972,-0.7926,-0.8313,-0.8715,-0.8971,-0.919,-0.9268,-0.9214,0.0,0.0,0.0,0.0,0.0,0.0,0.0,0.0,0.0,0.0,0.0,0.0,0.0,0.0,0.0,0.0,0.0,0.0,0.0,0.0,0.0,0.0,0.0,0.0,0.0,0.0,0.0,0.0,0.0,0.0,1.0778,0.0,0.0,0.0,0.0,0.0,0.0,0.0,0.0,0.0,0.0,0.0,0.0,0.0,0.0,0.0,0.0,0.0,0.0,0.0,0.0,0.0,0.0,-0.3885,-0.3758,-0.3222,-0.269,-0.2153,-0.0739,0.0672,0.2153,0.269,0.3293,0.403,0.0,0.0,0.0,0.0,0.0,0.0,0.0,0.0,0.0,0.0,0.0,0.0,0.0,0.0,0.0,0.0,0.0,0.0,0.0,0.0,0.0,0.0,0.0,0.0,0.0,0.0,0.2704,0.1188,-0.0264,0.0,0.0,0.0,0.0,0.0,0.0,0.0,0.0,0.0,0.0,-0.6185,-0.7099,-0.797,-0.8689,-0.9412,-1.0135,-1.0514,-1.0766,-1.0885,-1.0836,-1.0812,0.0,0.0,0.0,0.0,0.0,0.0,0.0,0.0,0.0,0.0,0.0,0.0,0.0,0.0,0.0,0.0,0.0,0.0,0.0,0.0,0.0,0.0,0.0,0.0,0.0,0.0,0.0,0.7256,0.7534,0.0,0.0,0.0,0.0,0.0,0.0,0.0,0.0,0.0,0.0,0.0,0.5163,0.2804,0.0,0.0,0.0,0.0,0.0,0.0,0.0,0.0,0.0,0.0,0.0,0.0,-0.4758,-0.4428,-0.3692,-0.3088,-0.2487,-0.1074,0.0336,0.1748,0.2351,0.3157,0.4167,0.0,0.0,0.0,0.0,0.0,0.0,0.0,0.0,0.0,0.0,0.0,0.0,0.0,0.0,0.0,0.0,0.0,0.0,0.0,0.0,0.0,0.0,0.0,0.0,0.0,-0.0462,0.0,0.0,0.0,0.0,0.0,0.0,0.0,0.0,0.0,0.0,0.0,-0.7871,-0.8361,-0.9105,-0.9813,-1.0301,-1.0774,-1.1246,0.0,0.0,0.0,0.0,0.0,0.0,0.0,0.0,0.0,0.0,0.0,0.0,0.0,0.0,-1.1582,-1.0473,-1.0691,-1.1218,-1.1514,0.0,0.0,0.0,0.0,0.0,0.0,0.0,0.0,0.0,0.0,0.0,0.0,0.0,0.0,0.4728,0.0,0.4979,0.0,0.0,0.0,0.0,0.0,0.0,0.0,0.0,0.1535,0.1537,0.1874,0.0335,-0.1678,0.0,-0.3088,-0.2412,0.0,0.0,0.0,0.0,0.0,0.0,0.0,0.0,-0.5425,-0.4894,-0.4023,-0.3355,-0.2822,-0.1343,0.0202,0.1547,0.2418,0.3291,0.4233,0.4564,0.4761,0.0,0.0,0.0,0.0,0.0,0.0,0.0,0.0,0.0,0.0,0.0,0.0,0.0,0.0,0.0,0.0,0.0,0.0,0.0,0.0,0.0,0.0,0.0,-0.4032,0.0,0.0,0.0,0.0,0.0,0.0,0.0,0.0,0.0,-0.9685,-1.0091,-1.0746,-1.1119,-1.1581,-1.205,-1.241,0.0,0.0,0.0,0.0,0.0,0.0,0.0,-1.3033,-1.3033,-1.2921,-1.2854,-1.298,-1.3423,-1.3816,-1.397,0.0,0.0,-1.2492,-1.2631,-1.299,-1.3222,-1.3665,-1.4152,-1.4743,-1.5152,-1.5641,0.0,0.0,0.0,0.0,0.0,0.0,0.0,0.0,0.221,0.2609,0.0,0.2403,0.0,0.0,0.0,0.0,0.0,0.0067,0.0,0.0,-0.0738,-0.1074,-0.1408,-0.1813,-0.269,-0.3904,-0.383,-0.4154,-0.4749,-0.4691,0.0,0.0,0.0,0.0,0.0,0.0,-0.5815,-0.5087,-0.4225,-0.3627,-0.3159,-0.1411,0.0202,0.1614,0.2824,0.3699,0.4233,0.4428,0.4561,0.4561,0.4161,0.0,0.0,0.0,0.0,0.0,0.0,0.0,0.0,0.0,0.0,0.0,0.0,0.0,0.0,0.0,0.0,0.0,0.0,0.0,0.0,-0.6025,0.0,0.0,0.0,0.0,0.0,0.0,0.0,0.0,0.0,0.0,-1.2546,-1.2752,-1.3168,-1.3536,0.0,0.0,0.0,0.0,-1.4529,-1.4529,-1.4656,-1.4656,-1.4529,-1.424,-1.401,-1.401,0.0,0.0,-1.3953,-1.4478,-1.4883,-1.4925,-1.5228,-1.5196,-1.4042,-1.425,-1.4601,-1.4609,-1.5054,-1.5547,-1.5808,-1.6148,-1.6585,-0.7688,0.0,0.0,0.0,0.0,-0.2354,-0.1542,-0.0871,0.0067,0.0402,0.0334,0.0469,0.0,0.0,0.0,0.0,0.0,0.0,-0.2281,-0.2214,-0.2418,-0.2551,-0.2681,-0.3153,-0.3828,-0.4637,-0.4564,-0.4824,-0.5348,-0.5488,-0.5756,-0.6284,0.0,0.0,0.0,0.0,-0.5557,-0.4758,-0.3825,-0.3295,-0.3167,-0.1344,0.0403,0.1951,0.2757,0.3362,0.3699,0.3894,0.4025,0.4025,0.3625,0.0,0.0,0.0,0.0,0.0,0.0,0.0,0.0,0.0,0.0,0.0,0.0,0.0,0.0,0.0,0.0,0.0,0.0,0.0,-0.7598,-0.8581,-0.9476,0.0,0.0,0.0,0.0,0.0,0.0,0.0,0.0,0.0,-1.5664,-1.5274,-1.5119,0.0,0.0,-1.5458,-1.5558,-1.538,-1.5303,-1.5362,-1.5196,0.0,0.0,-1.4725,-1.4478,-1.435,-1.4061,-1.3952,-1.4346,-1.46,-1.485,-1.5355,-1.5565,-1.5584,-1.5641,-1.548,-1.5542,-1.5621,-1.585,-1.6017,-1.6281,-1.6526,-1.6733,-0.7777,-0.6745,-0.5947,-0.5084,-0.422,-0.3353,-0.2751,-0.2214,-0.1745,-0.1476,-0.1341,-0.1409,-0.1545,-0.1679,-0.2146,0.0,0.0,0.0,-0.3556,-0.3489,-0.3558,-0.3687,-0.3751,-0.409,-0.4495,-0.503,-0.496,-0.5156,-0.5617,-0.5752,-0.5951,-0.6222,0.0,0.0,-0.6284,-0.5888,-0.5226,-0.4292,-0.3694,-0.3027,-0.2356,-0.047,0.1076,0.2221,0.2757,0.3159,0.3498,0.3694,0.3758,0.3558,0.3224,0.2956,0.0,0.0,0.0,0.0,0.0,0.0,0.0,0.0,0.0,0.0,0.0,-0.2206,-0.3272,0.0,0.0,0.0,-0.7697,-0.8645,-0.9875,-1.0577,0.0,0.0,0.0,0.0,0.0,0.0,0.0,-1.6275,-1.6684,-1.7019,-1.7286,-1.6963,-1.6687,-1.6567,-1.6574,-1.6528,-1.6444,0.0,-1.6104,-1.5972,-1.572,-1.5498,-1.5391,-1.5147,-1.4843,-1.4597,-1.4359,-1.427,-1.4522,-1.4692,-1.4953,-1.5366,-1.5608,-1.5788,-1.604,-1.5996,-1.6026,-1.6237,-1.6342,-1.6491,-1.6666,-1.6769,-1.689,-0.7531,-0.6749,-0.6086,-0.5359,-0.4625,-0.4228,-0.3761,-0.3295,-0.3228,-0.3025,-0.282,-0.3092,-0.3159,-0.3092,-0.3625,0.0,-0.3889,-0.4223,-0.4353,-0.4353,-0.4353,-0.4489,-0.4691,-0.4691,-0.4824,-0.5153,-0.5153,-0.5286,-0.555,-0.5617,-0.5686,-0.5892,-0.6152,-0.6214,-0.6013,-0.5554,-0.4827,-0.3825,-0.3563,-0.2621,-0.1008,0.0873,0.2018,0.2356,0.2824,0.3159,0.3431,0.3627,0.356,0.3228,0.2889,0.2621,0.2491,0.0,0.0,0.0,0.0,0.0,0.0,0.0,0.0,0.0,0.0,0.0,0.0,0.0,0.0,0.0,-0.9621,0.0,-1.1516,-1.2074,0.0,0.0,0.0,-1.4569,-1.5352,-1.5874,-1.64,-1.6955,0.0,0.0,-1.7878,-1.7877,-1.7743,-1.7378,-1.7269,-1.7179,-1.7101,-1.6989,-1.6842,-1.6488,-1.6239,-1.6009,-1.5672,-1.5323,-1.502,-1.4706,-1.4616,-1.4455,-1.4492,-1.479,-1.5038,-1.5139,-1.5414,-1.567,-1.568,-1.5971,-1.6309,-1.6414,-1.6706,-1.6908,-1.6908,-1.6968,-1.7116,-0.6929,-0.621,-0.5425,-0.5027,-0.4954,-0.4431,-0.4097,-0.3761,-0.3563,-0.3493,-0.3558,-0.3493,-0.3563,-0.3758,-0.403,-0.4231,-0.4425,-0.4628,-0.4758,-0.4888,-0.4888,-0.5024,-0.5229,-0.5226,-0.5226,-0.5292,-0.5359,-0.5422,-0.5617,-0.5488,-0.5554,-0.5617,-0.5355,-0.5223,-0.5352,-0.4821,-0.4223,-0.3632,-0.2622,-0.1277,0.0336,0.1681,0.2356,0.2423,0.2824,0.3092,0.3228,0.3293,0.3226,0.3025,0.269,0.2423,0.2288,0.1145,0.0,0.0,0.0,0.0,0.0,0.0,0.0,0.0,0.0,-0.5272,-0.6396,0.0,-0.835,0.0,-1.0773,-1.1911,-1.2458,-1.3078,0.0,0.0,-1.4588,-1.5118,-1.5604,-1.6114,-1.6616,-1.6955,-1.7368,-1.7711,-1.7897,-1.7897,-1.7877,-1.7779,-1.7734,-1.7689,-1.7557,-1.72,-1.6965,-1.6705,-1.6249,-1.5914,-1.5682,-1.5196,-1.4784,-1.4715,-1.4616,-1.4515,-1.4515,-1.4579,-1.4744,-1.5029,-1.5166,-1.5349,-1.5615,-1.5707,-1.5658,-1.5794,-1.6391,-1.6908,-1.6908,-1.6899,-1.6899,-0.6264,-0.5613,-0.4691,-0.4425,-0.4489,-0.4295,-0.4097,-0.3894,-0.3694,-0.3694,-0.3758,-0.3763,-0.383,-0.403,-0.4298,-0.4498,-0.4625,-0.4761,-0.4831,-0.496,-0.496,-0.5024,-0.5096,-0.5163,-0.5096,-0.5163,-0.5163,-0.516,-0.5223,-0.5093,-0.509,-0.5156,-0.4625,-0.4292,-0.4223,-0.3959,-0.3491,-0.2691,-0.1209,0.0269,0.1479,0.2153,0.2559,0.2691,0.2958,0.3159,0.3295,0.3295,0.3228,0.3023,0.2557,0.2221,0.1951,0.0943,-0.0067,0.0,0.0,0.0,0.0,0.0,0.0,0.0,0.0,0.0,0.0,0.0,-0.9989,-1.085,-1.1911,-1.2781,-1.3208,-1.37,-1.4139,-1.4497,-1.4961,-1.5371,-1.5836,-1.6249,-1.6637,-1.6955,-1.7312,-1.7523,-1.7567,-1.7655,-1.7667,-1.7623,-1.7534,-1.7479,-1.749,-1.7289,-1.7032,-1.6648,-1.6192,-1.572,-1.5313,-1.4893,-1.4588,-1.4478,-1.4378,-1.4258,-1.4258,-1.4267,-1.4339,-1.4538,-1.4644,-1.4646,-1.4925,-1.5061,-1.5097,-1.5104,-1.559,-1.6008,-1.6138,-1.6133,-1.6107,-0.5411,-0.4888,-0.4023,-0.3623,-0.3623,-0.3692,-0.3761,-0.3692,-0.3692,-0.3758,-0.3758,-0.3894,-0.3961,-0.4028,-0.4361,-0.4495,-0.4561,-0.4697,-0.4761,-0.4694,-0.4761,-0.4761,-0.4761,-0.4761,-0.4761,-0.4761,-0.4761,-0.4697,-0.4697,-0.4561,-0.4492,-0.4425,-0.3892,-0.3491,-0.3092,-0.3025,-0.2487,-0.1277,0.0403,0.1681,0.2491,0.2491,0.2691,0.3025,0.3226,0.336,0.3498,0.3565,0.3362,0.3025,0.2555,0.2018,0.1614,0.0875,-0.0135,0.0,-0.1884,0.0,0.0,0.0,0.0,0.0,0.0,0.0,0.0,-1.0366,-1.136,-1.2243,-1.2903,-1.3459,-1.3761,-1.4139,-1.4506,-1.4921,-1.5147,-1.543,-1.5941,-1.6192,-1.6477,-1.6842,-1.7088,-1.719,-1.7124,-1.7268,-1.7323,-1.7108,-1.6941,-1.692,-1.6984,-1.7065,-1.6874,-1.6431,-1.5999,-1.541,-1.4775,-1.4469,-1.4359,-1.413,-1.4001,-1.3941,-1.3941,-1.3941,-1.395,-1.3959,-1.3976,-1.3976,-1.395,-1.4171,-1.4311,-1.4257,-1.4473,-1.4741,-1.5129,-1.521,-1.5115,-0.4556,-0.3959,-0.322,-0.2818,-0.2618,-0.2554,-0.2824,-0.3293,-0.3293,-0.3429,-0.3563,-0.3563,-0.3694,-0.3828,-0.4025,-0.4095,-0.4095,-0.4289,-0.442,-0.442,-0.442,-0.442,-0.442,-0.442,-0.442,-0.442,-0.442,-0.4289,-0.4161,-0.4025,-0.3825,-0.3493,-0.3088,-0.2824,-0.2626,0.0,0.0,0.0,0.1547,0.2354,0.2621,0.2891,0.3159,0.3431,0.356,0.0,0.3758,0.3758,0.3558,0.3159,0.282,0.0,0.0,0.0,0.0,0.0,0.0,0.0,0.0,0.0,0.0,0.0,-0.6999,-0.7917,-0.9028,-1.0561,-1.1762,-1.2428,-1.2964,-1.345,-1.389,-1.424,-1.4538,-1.4715,-1.5128,-1.542,-1.5526,-1.5884,-1.6171,-1.6285,-1.657,-1.674,-1.6673,-1.674,-1.6658,-1.6503,-1.6347,-1.6114,-1.5836,-1.6114,-1.6228,-1.5989,-1.541,-1.4765,-1.4249,-1.4001,-1.3821,-1.3692,-1.3614,-1.3606,-1.3563,-1.3571,-1.3571,-1.3571,-1.358,-1.3571,-1.3571,-1.3458,-1.3289,-1.3264,-1.3145,-1.3375,-1.4524,-1.4758,-1.478,-0.3687,0.0,-0.2147,-0.1813,0.0,-0.1412,-0.1546,-0.1949,-0.2487,-0.2758,-0.2893,-0.2891,-0.3088,-0.3288,-0.3424,-0.356,-0.3627,-0.3689,-0.3756,-0.3756,-0.3758,-0.3758,-0.3756,-0.3756,-0.3756,-0.3687,-0.3623,-0.3623,-0.3627,-0.3424,-0.3291,-0.3159,-0.2351,-0.1814,-0.1614,-0.0537,0.0403,0.1208,0.2218,0.2889,0.3222,0.3491,0.3694,0.3894,0.0,0.0,0.0,0.0,0.0,0.0,0.0,0.0,0.0,0.0,0.0,-0.0269,-0.1076,-0.1882,-0.282,-0.3623,-0.4556,-0.5815,-0.706,-0.8361,-0.9658,-1.0793,-1.1747,-1.249,-1.3033,-1.3442,-1.3761,-1.4061,-1.43,-1.4419,-1.4656,-1.4893,-1.5186,-1.543,-1.5604,-1.5768,-1.5989,-1.6056,-1.5941,-1.5989,-1.5894,-1.5654,-1.5439,-1.5235,-1.5059,-1.541,-1.5584,-1.5157,-1.4519,-1.3992,-1.358,-1.3398,-1.3216,-1.3086,-1.2984,-1.2915,-1.2895,-1.2834,-1.2765,-1.2773,-1.2781,-1.2781,-1.2781,-1.2605,-1.249,-1.2428,-1.2297,-1.2313,-1.3076,-1.3418,-1.3592,-0.2616,-0.1476,-0.1007,-0.0672,-0.047,-0.0269,-0.0202,-0.0336,0.0,0.0,0.0,-0.2216,-0.2418,-0.2619,-0.2822,-0.3027,-0.3094,-0.3094,-0.3094,-0.3094,-0.3094,-0.3094,-0.3094,-0.3094,-0.296,-0.2688,-0.2688,-0.2686,-0.2688,-0.2552,-0.2485,-0.2485,-0.1478,-0.0941,-0.0671,0.1274,0.2347,0.248,0.2887,0.3424,0.3889,0.4095,0.4225,0.442,0.4625,0.4694,0.4691,0.4564,0.4298,0.4097,0.3491,0.2889,0.2354,0.1681,0.0941,0.0202,-0.0538,-0.1411,-0.2283,-0.3155,-0.4223,-0.5425,-0.7129,-0.8683,-1.0225,-1.08,-1.149,-1.2367,-1.285,-1.3139,-1.339,-1.364,-1.389,-1.407,-1.413,-1.4309,-1.4734,-1.4793,-1.4902,-1.5128,-1.5245,-1.5235,-1.5001,-1.505,-1.4991,-1.4706,-1.441,-1.4163,-1.4154,-1.4579,-1.4697,-1.4034,-1.3563,-1.3208,-1.2789,-1.2613,-1.249,-1.2228,-1.2112,-1.2089,-1.2027,-1.1919,-1.1856,-1.1856,-1.1794,-1.1856,-1.1794,-1.1794,-1.174,-1.1615,-1.156,-1.1545,-1.1432,-1.1703,-1.2081,-0.0738,-0.0,0.0202,0.047,0.0873,0.0873,0.0873,0.0739,-0.0605,-0.1344,-0.1547,-0.1681,-0.1883,-0.2288,-0.2626,-0.2762,-0.2762,-0.2762,-0.2762,0.0,-0.2762,-0.2762,-0.2762,-0.2762,-0.2356,-0.1681,-0.1479,-0.1209,-0.0873,-0.0873,-0.0604,-0.0269,-0.0403,-0.0671,-0.0737,0.2277,0.4298,0.4837,0.4095,0.3959,0.4492,0.4628,0.4758,0.4954,0.516,0.5226,0.502,0.502,0.4761,0.4298,0.3961,0.3493,0.2891,0.2354,0.1748,0.1008,0.0067,-0.0873,-0.1681,-0.2621,-0.3887,-0.5675,-0.6929,-0.8166,-0.9518,-1.0225,-1.0919,-1.1608,-1.2027,-1.2466,-1.2981,-1.3103,-1.3285,-1.3571,-1.3761,-1.389,-1.395,-1.407,-1.4121,-1.4181,-1.4189,-1.424,-1.4181,-1.4052,-1.3863,-1.3683,-1.3373,-1.3,-1.2626,-1.3183,-1.3442,-1.2903,-1.2666,-1.2359,-1.1856,-1.167,-1.1545,-1.1233,-1.1162,-1.1141,-1.1163,-1.1094,-1.1045,-1.1122,-1.1045,-1.1108,-1.1108,-1.1052,-1.0926,-1.0863,-1.0674,-1.0534,-1.0481,-1.0501,-1.0611,0.0938,0.1477,0.208,0.228,0.2213,0.2213,0.2213,0.2146,0.1409,0.0604,-0.0202,-0.0403,-0.0605,-0.0873,-0.1008,-0.1143,-0.1277,-0.121,-0.121,-0.121,-0.121,-0.121,-0.121,-0.1143,-0.0873,-0.0336,-0.0202,0.0134,0.0537,0.0671,0.1141,0.1813,0.1882,0.134,0.0401,0.3009,0.4967,0.5907,0.4897,0.4625,0.5087,0.5292,0.5418,0.5411,0.5683,0.5749,0.5617,0.5481,0.5219,0.4897,0.4495,0.4023,0.3491,0.2958,0.2421,0.1748,0.0873,-0.0067,-0.1076,-0.2484,-0.3818,-0.5209,-0.6203,-0.7186,-0.8291,-0.9384,-1.0288,-1.1052,-1.1483,-1.1856,-1.2297,-1.2498,-1.2674,-1.285,-1.2972,-1.3155,-1.3224,-1.3285,-1.3346,-1.3329,-1.3329,-1.3268,-1.3103,-1.2895,-1.2704,-1.2589,-1.2205,-1.1695,-1.1017,-1.1267,-1.1633,-1.1648,-1.1531,-1.1288,-1.0905,-1.0661,-1.0534,-1.0345,-1.0216,-1.0077,-1.0078,-1.0021,-0.9899,-0.9919,-0.9907,-0.9907,-0.9907,-0.9843,-0.9849,-0.9849,-0.9722,-0.9576,-0.9609,-0.9448,-0.9618,0.2613,0.3082,0.3818,0.3951,0.368,0.368,0.368,0.3616,0.3418,0.275,0.1743,0.1276,0.1074,0.0941,0.094,0.0873,0.0739,0.0739,0.0739,0.0739,0.0739,0.0739,0.0739,0.094,0.1142,0.1209,0.141,0.1678,0.1944,0.2146,0.2547,0.322,0.383,0.3482,0.2129,0.4005,0.5557,0.6502,0.5763,0.5484,0.5749,0.602,0.6079,0.6005,0.6272,0.6408,0.6276,0.6013,0.5752,0.5495,0.5027,0.4558,0.4025,0.356,0.3092,0.2423,0.168,0.0672,-0.0672,-0.2281,-0.3551,-0.448,-0.5345,-0.6207,-0.7125,-0.8221,-0.9378,-1.0281,-1.073,-1.1045,-1.1428,-1.1747,-1.1926,-1.1988,-1.2112,-1.2236,-1.2359,-1.2428,-1.2359,-1.2405,-1.2397,-1.222,-1.1981,-1.1717,-1.1454,-1.1149,-1.0773,-1.0325,-0.9761,-0.957,-0.9755,-1.0002,-1.0148,-1.0091,-0.9952,-0.964,-0.9454,-0.9384,-0.9145,-0.8954,-0.893,-0.8787,-0.8668,-0.8635,-0.8624,-0.8689,-0.863,-0.8624,-0.8624,-0.8689,-0.8624,-0.8554,-0.8463,-0.8436,-0.8668,0.4406,0.4806,0.4938,0.5008,0.5074,0.5074,0.5074,0.5074,0.4749,0.455,0.4281,0.342,0.2958,0.2889,0.2889,0.2889,0.2822,0.2889,0.2889,0.2822,0.2889,0.2889,0.2889,0.3228,0.3431,0.3295,0.3491,0.3489,0.3553,0.3623,0.348,0.34,0.4411,0.5017,0.5074,0.58,0.6613,0.7372,0.7148,0.6741,0.635,0.6548,0.6745,0.6811,0.7007,0.7007,0.6881,0.6679,0.6346,0.5888,0.5491,0.5093,0.4558,0.4092,0.356,0.2956,0.2216,0.1073,-0.0605,-0.1745,-0.2683,-0.3553,-0.4417,-0.5209,-0.6001,-0.6711,-0.7812,-0.9046,-0.9506,-0.9964,-1.0548,-1.0674,-1.0793,-1.1045,-1.1108,-1.117,-1.117,-1.117,-1.117,-1.117,-1.1038,-1.0989,-1.0856,-1.0465,-0.9945,-0.9436,-0.9302,-0.8988,-0.8479,-0.8221,-0.8091,-0.8091,-0.8484,-0.8865,-0.8672,-0.849,-0.8296,-0.8172,-0.7952,-0.7817,-0.7772,-0.7676,-0.7569,-0.7596,-0.7582,-0.7587,-0.7582,-0.7587,-0.7521,-0.7582,-0.7456,-0.7326,-0.719,-0.7143,-0.7475,0.6125,0.6322,0.6457,0.6527,0.6531,0.6527,0.6527,0.6531,0.6199,0.6067,0.6001,0.5342,0.4616,0.3889,0.3889,0.3823,0.3825,0.3823,0.3825,0.3823,0.3889,0.3889,0.3892,0.4223,0.4359,0.4356,0.4619,0.4815,0.508,0.5213,0.5272,0.5193,0.5866,0.6334,0.6662,0.699,0.7661,0.8614,0.8192,0.7977,0.7917,0.7657,0.7526,0.7657,0.7657,0.7661,0.7601,0.733,0.6937,0.6548,0.6152,0.5752,0.5219,0.4761,0.4228,0.3625,0.2482,0.1342,0.0201,-0.0806,-0.1745,-0.2616,-0.3416,-0.4215,-0.5084,-0.5536,-0.6248,-0.7158,-0.828,-0.9075,-0.939,-0.9646,-0.9843,-0.997,-1.0098,-1.0091,-1.0091,-1.0085,-1.0091,-1.0034,-0.9837,-0.9697,-0.9506,-0.9122,-0.8608,-0.8032,-0.7837,-0.7572,-0.7186,-0.692,-0.6658,-0.647,-0.6593,-0.692,-0.7256,-0.712,-0.6994,-0.6863,-0.6719,-0.6645,-0.6605,-0.6564,-0.6511,-0.6478,-0.6478,-0.6474,-0.6539,-0.6539,-0.6478,-0.6486,-0.6474,-0.64,-0.6334,-0.6296,-0.6494,0.7887,0.7952,0.8032,0.8032,0.7972,0.7972,0.7972,0.7967,0.7637,0.7507,0.7442,0.7111,0.6461,0.547,0.508,0.4882,0.4882,0.4882,0.4882,0.4882,0.4882,0.4885,0.4882,0.5209,0.5345,0.5408,0.5738,0.6063,0.6396,0.6728,0.6924,0.6985,0.7246,0.7582,0.8047,0.8166,0.87,0.9667,0.9221,0.9069,0.9268,0.8888,0.856,0.849,0.8431,0.8376,0.8447,0.8052,0.7657,0.7204,0.6937,0.6478,0.5947,0.5491,0.496,0.4092,0.2952,0.1879,0.1075,0.0134,-0.0806,-0.1611,-0.2347,-0.3151,-0.3889,-0.4417,-0.4872,-0.547,-0.6666,-0.7596,-0.8172,-0.8495,-0.8689,-0.8753,-0.8877,-0.8935,-0.8941,-0.8935,-0.8871,-0.8748,-0.8544,-0.828,-0.7957,-0.7632,-0.7177,-0.6732,-0.6465,-0.6268,-0.5939,-0.5606,-0.5345,-0.515,-0.4818,-0.5087,-0.5947,-0.5947,-0.5749,-0.554,-0.5467,-0.5397,-0.5352,-0.5372,-0.5316,-0.5223,-0.5292,-0.5296,-0.5233,-0.5299,-0.5379,-0.5383,-0.5359,-0.5396,-0.5235,-0.5329,-0.5277,0.9679,0.9824,0.9703,0.9576,0.939,0.9384,0.939,0.939,0.9058,0.8924,0.8865,0.8544,0.8355,0.8161,0.6981,0.6334,0.633,0.6334,0.6334,0.633,0.633,0.6334,0.633,0.6662,0.6793,0.6859,0.712,0.7381,0.7642,0.7972,0.8231,0.8425,0.8544,0.8882,0.9227,0.9338,0.981,1.0443,1.0123,1.0028,1.0238,1.0174,0.9849,0.9396,0.9274,0.9139,0.8952,0.8835,0.8511,0.7987,0.7717,0.7316,0.6675,0.6276,0.555,0.442,0.3558,0.2753,0.1878,0.1074,0.0269,-0.0605,-0.1281,-0.1954,-0.2575,-0.323,-0.3758,-0.4303,-0.4806,-0.5543,-0.661,-0.71,-0.733,-0.7447,-0.7447,-0.7512,-0.7512,-0.7512,-0.7451,-0.7451,-0.7181,-0.6785,-0.6129,-0.6001,-0.5738,-0.5348,-0.5017,-0.4885,-0.4758,-0.442,-0.4164,-0.3904,-0.3641,-0.3632,-0.4625,-0.4752,-0.4556,-0.4515,-0.4389,-0.4161,-0.4087,-0.3959,-0.3974,-0.3981,-0.4074,-0.4079,-0.3926,-0.3973,-0.4072,-0.4152,-0.4219,-0.4204,-0.4186,-0.4072,-0.403,1.119,1.1149,1.1087,1.0961,1.0766,1.0766,1.071,1.0604,1.0388,1.0218,1.0117,0.9901,0.9761,0.9709,0.9238,0.8527,0.7767,0.7767,0.7772,0.7767,0.7772,0.7772,0.7772,0.7962,0.8151,0.828,0.849,0.8748,0.9064,0.9256,0.9384,0.9506,0.9703,0.9767,0.9679,1.0142,1.0828,1.1389,1.0933,1.078,1.1115,1.1122,1.0996,1.0737,1.0238,0.9856,0.9658,0.953,0.9204,0.863,0.8501,0.8112,0.7526,0.6741,0.5951,0.509,0.4289,0.3556,0.2751,0.2014,0.1286,0.0551,-0.0069,-0.0696,-0.1403,-0.2062,-0.2509,-0.2911,-0.3311,-0.3904,-0.4398,-0.5303,-0.6013,-0.6067,-0.6067,-0.6079,-0.6067,-0.6063,-0.6067,-0.6001,-0.5734,-0.5342,-0.4891,-0.4616,-0.4417,-0.4154,-0.4025,-0.3969,-0.3912,-0.3678,-0.3376,-0.3251,-0.2518,-0.1909,-0.2191,-0.3006,-0.337,-0.3569,-0.3533,-0.3502,-0.3373,-0.327,-0.3291,-0.3166,-0.3159,-0.3164,-0.31,-0.3189,-0.3262,-0.3336,-0.3351,-0.3147,-0.3162,-0.301,-0.2986,1.2687,1.2504,1.2496,1.2373,1.2128,1.2074,1.202,1.1919,1.171,1.156,1.1416,1.1254,1.1108,1.1045,1.1101,1.0584,0.9633,0.9308,0.9122,0.9122,0.9122,0.9116,0.9186,0.932,0.9442,0.9576,0.9773,1.0028,1.0288,1.0401,1.0528,1.0598,1.0856,1.0703,1.0405,1.1017,1.1777,1.2134,1.167,1.1516,1.1926,1.1926,1.1926,1.1872,1.1365,1.0807,1.0371,1.0288,0.997,0.9472,0.928,0.8894,0.8177,0.733,0.6544,0.5892,0.5266,0.4546,0.3813,0.315,0.2501,0.1838,0.1206,0.0572,-0.0145,-0.0708,-0.1203,-0.1584,-0.1966,-0.2212,-0.2503,-0.3337,-0.4122,-0.4461,-0.4665,-0.4668,-0.4668,-0.4671,-0.4677,-0.4751,-0.462,-0.4259,-0.3827,-0.3368,-0.3025,-0.2734,-0.2677,-0.2623,-0.2562,-0.238,-0.2128,-0.1988,-0.122,-0.0651,-0.065,-0.1058,-0.1672,-0.1909,-0.2145,-0.2319,-0.2265,-0.2301,-0.2309,-0.2276,-0.2264,-0.227,-0.235,-0.2432,-0.2443,-0.253,-0.2322,-0.1954,-0.1958,-0.1959,-0.1907,1.4273,1.4025,1.3965,1.3786,1.3494,1.3373,1.3321,1.3199,1.2948,1.2797,1.2731,1.2545,1.2382,1.2297,1.229,1.2174,1.1787,1.1017,1.0571,1.0451,1.0451,1.0451,1.0521,1.0661,1.0793,1.085,1.0919,1.1108,1.1296,1.1421,1.1608,1.174,1.1919,1.1826,1.1611,1.2027,1.2522,1.287,1.2528,1.2435,1.2728,1.2658,1.2658,1.2736,1.2552,1.205,1.1185,1.1122,1.0863,1.0358,1.0117,0.953,0.8683,0.7987,0.74,0.6788,0.6308,0.5772,0.5032,0.449,0.3817,0.3125,0.2472,0.1968,0.1469,0.0815,0.0224,-0.0149,-0.0523,-0.0748,-0.0897,-0.1177,-0.1809,-0.2975,-0.3237,-0.3237,-0.3249,-0.3262,-0.3338,-0.3469,-0.3387,-0.3385,-0.3001,-0.2283,-0.1573,-0.1211,-0.093,-0.0793,-0.0576,-0.029,0.0073,0.0292,0.0588,0.0816,0.0883,0.0802,0.0365,-0.0073,-0.0369,-0.0595,-0.0447,-0.0376,-0.0377,-0.0373,-0.0373,-0.0374,-0.0528,-0.0605,-0.061,-0.0614,-0.0621,-0.07,-0.0698,-0.0695,-0.0699,1.5459,1.5274,1.5148,1.4914,1.4688,1.4638,1.446,1.4291,1.4163,1.401,1.3787,1.3709,1.3614,1.3468,1.3494,1.3459,1.3329,1.3009,1.2458,1.1655,1.1538,1.1538,1.16,1.1732,1.1981,1.2158,1.2336,1.2397,1.2458,1.2528,1.2581,1.2642,1.2834,1.261,1.231,1.2931,1.3571,1.3926,1.3528,1.3425,1.3657,1.3804,1.3744,1.3528,1.3398,1.3155,1.2597,1.205,1.1622,1.1115,1.0863,1.0358,0.9548,0.898,0.8466,0.7894,0.738,0.6784,0.6149,0.5626,0.5056,0.4375,0.3874,0.3464,0.3056,0.2307,0.1775,0.1545,0.1389,0.1004,0.0462,0.0307,-0.0302,-0.1531,-0.1744,-0.1748,-0.1752,-0.1748,-0.1672,-0.1601,-0.1456,-0.13,-0.1073,-0.0505,-0.0073,0.022,0.0513,0.0731,0.0876,0.1482,0.2242,0.2619,0.2571,0.2285,0.2349,0.234,0.2039,0.1504,0.1132,0.0911,0.114,0.1217,0.1297,0.1374,0.1372,0.1299,0.1156,0.1085,0.1011,0.1015,0.0938,0.0862,0.0707,0.0629,0.0471,1.6673,1.6436,1.6255,1.6083,1.5864,1.5748,1.5575,1.5284,1.5235,1.5059,1.4874,1.4815,1.4718,1.4563,1.4483,1.446,1.4359,1.4369,1.3872,1.3139,1.2842,1.2781,1.272,1.2842,1.3033,1.3208,1.3321,1.3381,1.3442,1.3442,1.3494,1.3554,1.3683,1.352,1.3142,1.3768,1.4414,1.4865,1.4575,1.4332,1.4488,1.4712,1.4662,1.4318,1.4189,1.3992,1.3752,1.3272,1.2733,1.2103,1.1725,1.1198,1.0594,1.0177,0.9661,0.9017,0.8619,0.8112,0.7398,0.6964,0.6367,0.5701,0.5191,0.4688,0.429,0.36,0.329,0.2979,0.2741,0.235,0.1879,0.1721,0.131,0.0601,-0.0075,-0.0299,-0.0299,-0.0299,-0.0225,-0.0075,0.015,0.0521,0.1187,0.1337,0.158,0.1895,0.1961,0.2097,0.2251,0.2885,0.3436,0.3838,0.3705,0.3651,0.3828,0.3828,0.3673,0.3181,0.262,0.232,0.2324,0.2325,0.2406,0.2326,0.2324,0.232,0.218,0.2183,0.2189,0.2275,0.2278,0.1964,0.1728,0.1649,0.1569,1.7788,1.7501,1.7357,1.7179,1.7,1.6786,1.6549,1.6368,1.6218,1.6093,1.5968,1.5874,1.5748,1.5515,1.5467,1.5313,1.5059,1.5069,1.5001,1.4765,1.4419,1.4112,1.3992,1.4001,1.4061,1.4121,1.4121,1.4181,1.424,1.424,1.4359,1.4469,1.4529,1.4364,1.4182,1.4542,1.5136,1.5713,1.541,1.5216,1.5225,1.5381,1.5371,1.5096,1.484,1.474,1.4759,1.463,1.4081,1.3021,1.2575,1.2233,1.1871,1.1553,1.0955,1.0275,1.0082,0.955,0.8886,0.8309,0.7808,0.7057,0.6524,0.6009,0.5312,0.4921,0.4535,0.4073,0.3759,0.3522,0.3287,0.3209,0.3122,0.2973,0.1709,0.1011,0.1016,0.1014,0.1164,0.1324,0.1487,0.1957,0.3272,0.3276,0.3359,0.3517,0.3428,0.3414,0.3726,0.4037,0.4139,0.4304,0.453,0.4688,0.4851,0.4849,0.4768,0.4603,0.4039,0.3816,0.3439,0.3443,0.3444,0.3366,0.3366,0.3288,0.321,0.3288,0.321,0.3136,0.2982,0.2827,0.2671,0.2669,0.2586,1.8667,1.8548,1.8333,1.8061,1.782,1.7722,1.7556,1.7324,1.7179,1.7011,1.6899,1.6729,1.6616,1.6446,1.6436,1.6332,1.6171,1.6114,1.6056,1.5941,1.5768,1.5352,1.4991,1.4883,1.4942,1.5001,1.501,1.5059,1.5059,1.5059,1.5118,1.5177,1.5235,1.5119,1.4887,1.5361,1.6002,1.6461,1.6185,1.6009,1.6019,1.5982,1.5996,1.6108,1.5561,1.5594,1.6061,1.5974,1.5232,1.398,1.3639,1.3333,1.2811,1.2531,1.2165,1.1649,1.1203,1.0701,1.0124,0.9497,0.8927,0.8318,0.7702,0.7246,0.6865,0.6237,0.5777,0.5544,0.5231,0.4921,0.4763,0.4611,0.438,0.3992,0.3132,0.2507,0.2506,0.2506,0.2584,0.282,0.3054,0.3452,0.3849,0.4164,0.4316,0.455,0.4621,0.4613,0.5004,0.5085,0.5237,0.5395,0.5547,0.5625,0.5702,0.578,0.578,0.5777,0.5455,0.5223,0.4844,0.4535,0.4535,0.4535,0.4457,0.4377,0.4302,0.4304,0.4151,0.3995,0.3839,0.3761,0.369,0.3612,0.3524,1.9552,1.9396,1.9174,1.8963,1.8738,1.8578,1.8429,1.8224,1.8061,1.7843,1.7678,1.7512,1.7346,1.7256,1.7245,1.7145,1.7022,1.6976,1.6853,1.6684,1.6627,1.6208,1.568,1.5623,1.57,1.5826,1.5826,1.5768,1.5768,1.5768,1.5768,1.5768,1.5826,1.5776,1.5628,1.6053,1.669,1.7081,1.702,1.7037,1.7037,1.7111,1.7155,1.7203,1.6739,1.6837,1.7159,1.6973,1.6253,1.5195,1.4747,1.4538,1.4021,1.3645,1.3341,1.2921,1.2357,1.1774,1.1186,1.0663,1.0067,0.9458,0.8927,0.8475,0.8016,0.7472,0.7161,0.6703,0.6553,0.6318,0.6005,0.5851,0.5699,0.5467,0.4999,0.4453,0.399,0.3912,0.4066,0.4302,0.446,0.4623,0.4787,0.5018,0.5326,0.5559,0.5786,0.5931,0.6237,0.624,0.6321,0.6479,0.6556,0.663,0.663,0.6707,0.6703,0.6703,0.6626,0.6395,0.6009,0.5622,0.5467,0.5467,0.5467,0.5467,0.5392,0.5318,0.524,0.5082,0.4846,0.4696,0.4626,0.447,0.4382,2.0372,2.008,1.994,1.9798,1.9656,1.9384,1.9239,1.9093,1.8774,1.856,1.8398,1.8247,1.8127,1.8018,1.7963,1.7843,1.7634,1.7579,1.7468,1.7357,1.7234,1.6933,1.6373,1.6312,1.641,1.6477,1.642,1.641,1.64,1.641,1.641,1.641,1.641,1.6389,1.6389,1.6747,1.7296,1.7921,1.8049,1.8032,1.8097,1.8219,1.8326,1.8387,1.8279,1.8134,1.8114,1.7871,1.7271,1.6147,1.6013,1.5687,1.5342,1.4903,1.4466,1.3939,1.3375,1.2739,1.2224,1.1774,1.1186,1.0513,1.0143,0.9695,0.9079,0.877,0.8394,0.7859,0.771,0.7399,0.7173,0.7015,0.7011,0.6857,0.6857,0.6395,0.5696,0.5234,0.5315,0.5702,0.5777,0.5864,0.6103,0.6254,0.6475,0.6784,0.6934,0.708,0.7234,0.7318,0.7399,0.748,0.7557,0.7633,0.7633,0.7633,0.7629,0.7629,0.7553,0.7399,0.6934,0.6626,0.6398,0.6321,0.6398,0.6395,0.6318,0.6244,0.6167,0.6015,0.578,0.5631,0.5485,0.5243,0.5157,2.1046,2.0769,2.0633,2.0459,2.022,2.0067,1.9914,1.9747,1.9408,1.921,1.9117,1.8893,1.8774,1.8721,1.8614,1.8506,1.8356,1.8247,1.8084,1.7909,1.792,1.7699,1.7335,1.7157,1.7032,1.7099,1.7032,1.7022,1.7022,1.7032,1.7032,1.6987,1.7143,1.703,1.6838,1.7658,1.8494,1.9098,1.9093,1.8963,1.8974,1.8977,1.9111,1.9368,1.9392,1.9447,1.9314,1.9007,1.8512,1.7967,1.7358,1.678,1.6175,1.57,1.5338,1.484,1.4194,1.3695,1.3397,1.2739,1.215,1.1632,1.1111,1.0663,1.0218,0.9836,0.9539,0.916,0.8856,0.8546,0.8169,0.8097,0.8012,0.7931,0.7851,0.7855,0.7548,0.6934,0.663,0.6788,0.6868,0.6953,0.7354,0.7411,0.7633,0.7931,0.8075,0.8219,0.8304,0.8313,0.8394,0.8475,0.8475,0.847,0.847,0.847,0.8475,0.847,0.8475,0.8399,0.8008,0.7625,0.7472,0.7322,0.7249,0.7249,0.7242,0.7169,0.7096,0.6942,0.6714,0.6563,0.6331,0.6093,0.5931,2.1582,2.1369,2.1237,2.1019,2.0772,2.0636,2.0472,2.0308,1.9914,1.9797,1.9706,1.9473,1.9356,1.9263,1.921,1.9093,1.8869,1.8732,1.8572,1.8464,1.841,1.8333,1.8147,1.7963,1.7855,1.7889,1.7723,1.7645,1.7634,1.7612,1.7601,1.7555,1.7924,1.7674,1.7402,1.8436,1.9657,2.0346,2.019,2.001,2.001,2.0118,2.0115,2.0221,2.0191,2.0074,1.9868,1.9671,1.9264,1.8854,1.8462,1.7784,1.689,1.6394,1.6044,1.5621,1.5054,1.4553,1.4186,1.3688,1.3105,1.2739,1.2224,1.1781,1.1409,1.0962,1.0588,1.0293,0.9986,0.9685,0.9311,0.9236,0.9155,0.8998,0.8922,0.9003,0.8932,0.8241,0.771,0.7868,0.8016,0.8106,0.8268,0.8489,0.8699,0.8917,0.9074,0.914,0.92,0.9216,0.9231,0.9236,0.9236,0.9236,0.9236,0.9236,0.9236,0.9236,0.9236,0.9236,0.9079,0.8775,0.8551,0.8322,0.8093,0.8093,0.8089,0.8016,0.7944,0.771,0.7557,0.7334,0.7103,0.6945,0.6857,2.2044,2.1902,2.1759,2.1568,2.1326,2.1131,2.1019,2.0858,2.0472,2.0296,2.0207,1.9965,1.9823,1.9693,1.9629,1.9448,1.9239,1.9133,1.8946,1.8893,1.8893,1.8762,1.8643,1.8637,1.8868,1.8885,1.8383,1.8205,1.8276,1.8288,1.8328,1.8215,1.8783,1.8449,1.8028,1.9143,2.0523,2.138,2.1187,2.0956,2.0979,2.1171,2.1169,2.0974,2.0688,2.0518,2.0324,2.0064,1.9802,1.9473,1.9274,1.8674,1.7852,1.7097,1.6682,1.6412,1.5771,1.5338,1.5046,1.4625,1.4042,1.3753,1.3324,1.2886,1.2445,1.2077,1.1706,1.1409,1.1105,1.0812,1.0443,1.0363,1.0288,1.0137,1.0143,1.0143,0.9916,0.9311,0.9003,0.8851,0.9008,0.9099,0.9337,0.9489,0.9695,0.983,0.9986,1.0056,1.0115,1.0115,1.0056,1.0062,1.0062,1.0062,1.0062,1.0062,1.0067,1.0067,1.0067,1.0067,1.0067,0.9836,0.9533,0.9084,0.8856,0.8856,0.878,0.8703,0.8627,0.8475,0.8322,0.8097,0.7872,0.7718,0.7629,2.2505,2.2263,2.217,2.1983,2.1841,2.1616,2.141,2.1277,2.0983,2.0736,2.0536,2.0385,2.0207,2.0055,1.985,1.9604,1.946,1.9368,1.9316,1.9275,1.9263,1.9186,1.9141,1.9226,1.9719,2.0072,1.9444,1.8901,1.9159,1.9142,1.9249,1.9368,1.9738,1.9342,1.9041,1.975,2.1199,2.197,2.1808,2.1599,2.1584,2.1592,2.1624,2.1498,2.1169,2.1031,2.0903,2.0529,2.0194,1.9977,1.9671,1.9341,1.8865,1.8046,1.7501,1.7097,1.6542,1.6053,1.5982,1.5409,1.4982,1.4617,1.4194,1.376,1.339,1.2966,1.2592,1.2298,1.2003,1.1706,1.1477,1.1484,1.1335,1.1186,1.1111,1.1037,1.0887,1.0657,1.0282,0.9981,0.9992,1.0073,1.0235,1.0385,1.0588,1.0726,1.0807,1.087,1.092,1.0938,1.0887,1.0887,1.0887,1.0887,1.0887,1.0887,1.0812,1.0812,1.0812,1.0812,1.0738,1.0738,1.0438,1.0062,0.969,0.9539,0.9539,0.9387,0.9236,0.9084,0.8932,0.878,0.856,0.8417,0.825,2.2689,2.2586,2.2449,2.2278,2.2091,2.1996,2.1793,2.1568,2.1326,2.1118,2.097,2.0749,2.0586,2.0409,2.0233,1.9978,1.9784,1.9733,1.9629,1.9525,1.946,1.9735,1.9789,1.9875,2.0494,2.0921,2.0409,1.9973,2.027,2.0282,2.0327,2.0498,2.0711,2.0582,2.0505,2.1258,2.1921,2.2357,2.2296,2.2197,2.2197,2.2073,2.1949,2.1749,2.1561,2.1423,2.1285,2.1042,2.0711,2.0506,2.0205,1.9944,1.9605,1.9131,1.8452,1.7978,1.7295,1.689,1.676,1.6193,1.5771,1.5551,1.5054,1.4625,1.433,1.397,1.355,1.3251,1.2973,1.268,1.2526,1.2452,1.2305,1.2077,1.2003,1.1929,1.1774,1.17,1.1477,1.1105,1.0962,1.0968,1.0974,1.1192,1.1397,1.1539,1.162,1.1681,1.1662,1.1681,1.1639,1.1639,1.1632,1.1484,1.1502,1.154,1.1627,1.1546,1.1583,1.1583,1.1484,1.144,1.1234,1.0962,1.0663,1.0383,1.0067,0.9916,0.9765,0.9614,0.9463,0.9241,0.918,0.9032,0.8937,2.2857,2.2799,2.2692,2.2523,2.2278,2.2231,2.2091,2.1793,2.1568,2.141,2.1375,2.1109,2.0861,2.0686,2.0498,2.0309,1.999,1.999,1.9899,1.9893,1.9905,2.0192,2.0494,2.0729,2.1045,2.1914,2.1535,2.1305,2.1194,2.117,2.1427,2.1545,2.1654,2.1837,2.2274,2.2323,2.2653,2.2751,2.2678,2.2678,2.2629,2.2445,2.2185,2.1987,2.1874,2.1686,2.1537,2.1348,2.1158,2.0967,2.0711,2.0453,2.0248,1.9933,1.9462,1.8844,1.8037,1.7706,1.7442,1.6968,1.6542,1.6473,1.5842,1.5488,1.5267,1.4768,1.4338,1.4049,1.384,1.363,1.3484,1.3484,1.3258,1.3039,1.2886,1.2813,1.2599,1.2526,1.2526,1.2224,1.2003,1.1868,1.1806,1.1861,1.2144,1.2124,1.2278,1.2285,1.2265,1.2285,1.2305,1.2305,1.2231,1.215,1.2123,1.2214,1.2247,1.2355,1.2391,1.247,1.2322,1.2119,1.2005,1.1879,1.153,1.1213,1.0825,1.0524,1.0288,1.0143,0.9922,0.9781,0.9721,0.9635,0.9539,2.2992,2.2902,2.2826,2.2689,2.2523,2.2417,2.2231,2.1996,2.1793,2.1602,2.1423,2.1242,2.1073,2.0891,2.0664,2.0335,2.0169,2.0167,2.0343,2.0514,2.0577,2.0707,2.0927,2.1244,2.1832,2.2546,2.2347,2.2039,2.1897,2.1839,2.2098,2.2407,2.2444,2.2592,2.2812,2.2812,2.2874,2.296,2.2837,2.2739,2.2678,2.2616,2.2494,2.2371,2.2185,2.2073,2.1862,2.1675,2.1549,2.1336,2.1221,2.1031,2.0775,2.0464,2.0194,1.9715,1.9034,1.8375,1.825,1.7706,1.7235,1.7107,1.6551,1.6272,1.5912,1.5488,1.4991,1.4561,1.4497,1.4425,1.4418,1.4425,1.4274,1.4057,1.384,1.3622,1.3411,1.3331,1.3331,1.3331,1.3032,1.2781,1.2661,1.2774,1.2813,1.2799,1.2858,1.2872,1.2907,1.3015,1.2984,1.3012,1.3131,1.2995,1.288,1.2948,1.2975,1.3003,1.3119,1.327,1.3054,1.2852,1.2817,1.2687,1.2368,1.2001,1.1572,1.1193,1.0865,1.0755,1.0713,1.0585,1.0408,1.0251,1.0171,2.3373,2.2888,2.2857,2.2766,2.2615,2.2523,2.237,2.2077,2.1902,2.1746,2.1568,2.1326,2.1255,2.1297,2.1146,2.1186,2.1183,2.1102,2.1135,2.1176,2.1222,2.1337,2.1668,2.1888,2.2438,2.2829,2.2896,2.2752,2.2608,2.2548,2.2722,2.2847,2.2896,2.2871,2.3105,2.3007,2.3007,2.3067,2.2982,2.2909,2.2848,2.28,2.2739,2.2616,2.2494,2.2371,2.2185,2.2061,2.1862,2.1726,2.1561,2.1423,2.1221,2.0967,2.0775,2.0506,1.9987,1.9396,1.8854,1.8317,1.7978,1.7657,1.7245,1.6821,1.6482,1.6061,1.57,1.5488,1.5346,1.5204,1.5141,1.5141,1.4927,1.4713,1.4641,1.4425,1.4209,1.4137,1.4137,1.4137,1.4088,1.3872,1.3712,1.3631,1.3609,1.3513,1.355,1.3601,1.3748,1.3837,1.3815,1.3784,1.3877,1.3954,1.3774,1.3677,1.3607,1.3635,1.3571,1.3689,1.3696,1.356,1.3518,1.3412,1.314,1.2746,1.2338,1.2004,1.1772,1.1636,1.1498,1.1319,1.1159,1.0952,1.0847,2.3941,2.332,2.3305,2.3227,2.3087,2.3026,2.2914,2.2662,2.245,2.2277,2.2103,2.1876,2.1779,2.189,2.1799,2.1823,2.2133,2.1966,2.1971,2.1868,2.187,2.202,2.2347,2.2548,2.2723,2.3125,2.3062,2.3002,2.3027,2.304,2.3027,2.3125,2.3065,2.3078,2.3078,2.3078,2.3078,2.3078,2.3078,2.3017,2.2957,2.2969,2.286,2.28,2.2751,2.2665,2.2482,2.2371,2.2247,2.2049,2.1874,2.1737,2.1537,2.1348,2.1158,2.0967,2.0582,2.0205,1.9594,1.9054,1.8654,1.8259,1.7803,1.7314,1.6978,1.663,1.6342,1.6123,1.5982,1.585,1.5709,1.5709,1.5568,1.5355,1.5213,1.507,1.4944,1.4984,1.4912,1.496,1.4953,1.5033,1.4796,1.4665,1.4429,1.4251,1.4271,1.4371,1.4502,1.4672,1.4607,1.4456,1.4554,1.4642,1.4539,1.445,1.4345,1.436,1.4302,1.4287,1.4358,1.4306,1.4216,1.4044,1.3919,1.3721,1.3394,1.3061,1.2644,1.2299,1.2054,1.207,1.1998,1.173,1.1554,2.4747,2.4445,2.4494,2.4382,2.4269,2.4149,2.4021,2.3772,2.3497,2.3317,2.3159,2.2881,2.2591,2.2644,2.2443,2.2333,2.2276,2.1979,2.2252,2.2401,2.2425,2.2548,2.2824,2.2975,2.2977,2.3113,2.3125,2.3125,2.3125,2.3125,2.3125,2.3125,2.3125,2.3125,2.3125,2.3125,2.3125,2.3125,2.3125,2.3125,2.3078,2.3078,2.3017,2.2909,2.286,2.28,2.2678,2.2629,2.2567,2.2359,2.2247,2.2061,2.1862,2.1749,2.1549,2.1296,2.1094,2.0775,2.0248,1.9726,1.933,1.8931,1.8405,1.7803,1.748,1.7047,1.683,1.6612,1.6482,1.6342,1.6272,1.6202,1.6061,1.5947,1.584,1.5845,1.58,1.5842,1.5825,1.582,1.5812,1.5928,1.5988,1.5815,1.5399,1.5158,1.504,1.5141,1.5273,1.5363,1.528,1.5188,1.515,1.5219,1.5156,1.5184,1.5238,1.5277,1.5161,1.519,1.5226,1.5076,1.4892,1.4743,1.459,1.4545,1.4414,1.3831,1.3286,1.2795,1.2565,1.2628,1.2624,1.2474,1.2355,2.5344,2.5221,2.5426,2.5052,2.4291,2.4154,2.4002,2.39,2.3578,2.3371,2.3255,2.2938,2.2963,2.3039,2.3047,2.3076,2.328,2.309,2.3103,2.3043,2.2993,2.2949,2.3125,2.3125,2.3125,2.3125,2.3125,2.3125,2.3125,2.3125,2.3125,2.3125,2.3125,2.3125,2.3125,2.3125,2.3125,2.3125,2.3125,2.3125,2.3125,2.3125,2.3078,2.3017,2.3017,2.2969,2.2848,2.2848,2.2739,2.2629,2.2567,2.2371,2.2185,2.2061,2.1874,2.1612,2.1474,2.1158,2.0839,2.0248,1.9726,1.9131,1.8674,1.8279,1.7891,1.7666,1.7392,1.7254,1.7056,1.6927,1.6709,1.663,1.6569,1.6404,1.644,1.6572,1.6589,1.6731,1.6747,1.6756,1.6876,1.698,1.7067,1.7052,1.6547,1.6021,1.5967,1.591,1.613,1.6215,1.6202,1.6118,1.6079,1.6095,1.6126,1.6196,1.6199,1.6172,1.607,1.5951,1.5824,1.5831,1.5598,1.5409,1.5151,1.5115,1.4878,1.4434,1.3974,1.3621,1.3333,1.3265,1.3188,1.3052,1.2945,2.5787,2.5726,2.5941,2.5562,2.4732,2.4549,2.4393,2.4302,2.4065,2.3757,2.3541,2.335,2.3413,2.3563,2.3555,2.3597,2.3755,2.3657,2.359,2.3412,2.3207,2.3125,2.3125,2.3125,2.3125,2.3125,2.3125,2.3125,2.3125,2.3125,2.3125,2.3125,2.3125,2.3125,2.3125,2.3125,2.3125,2.3125,2.3125,2.3125,2.3125,2.3125,2.3125,2.3078,2.3078,2.3078,2.2969,2.2957,2.2921,2.28,2.2739,2.2678,2.2494,2.2371,2.2185,2.1925,2.1726,2.1474,2.1146,2.056,1.9922,1.9417,1.9075,1.8607,1.8269,1.8076,1.7735,1.752,1.748,1.7467,1.7167,1.7269,1.7417,1.7332,1.7469,1.7597,1.757,1.7642,1.7678,1.7685,1.7827,1.7761,1.7858,1.7835,1.7527,1.7191,1.7234,1.7166,1.7181,1.7237,1.7217,1.7133,1.7119,1.7154,1.7196,1.6993,1.6782,1.6732,1.6624,1.6394,1.635,1.6283,1.611,1.5839,1.5665,1.5582,1.5365,1.5022,1.4726,1.4434,1.4189,1.3736,1.3659,1.3574,1.3503,2.6201,2.5934,2.5879,2.5851,2.5671,2.5659,2.5522,2.5191,2.5038,2.4801,2.4493,2.4279,2.4121,2.4142,2.4,2.3962,2.3839,2.37,2.3522,2.339,2.3198,2.3138,2.3125,2.3125,2.3125,2.3125,2.3125,2.3125,2.3125,2.3125,2.3125,2.3125,2.3125,2.3125,2.3125,2.3125,2.3125,2.3125,2.3125,2.3125,2.3125,2.3125,2.3125,2.3125,2.3125,2.3078,2.3078,2.3078,2.303,2.2909,2.2909,2.2787,2.2678,2.2482,2.2359,2.2185,2.1987,2.1737,2.1434,2.0582,2.0151,1.9724,1.9351,1.8983,1.8492,1.8221,1.8135,1.8104,1.7858,1.7913,1.7906,1.8086,1.8194,1.8253,1.8311,1.8387,1.8434,1.8518,1.8581,1.858,1.8461,1.8434,1.8473,1.8476,1.838,1.8372,1.8523,1.8399,1.8179,1.8011,1.7949,1.7894,1.7794,1.7747,1.7716,1.7554,1.7375,1.7327,1.7172,1.6926,1.6754,1.6672,1.6417,1.6162,1.6079,1.5989,1.5824,1.5643,1.5318,1.4908,1.4523,1.4264,1.4179,1.4004,1.3913,2.6002,2.5893,2.5702,2.5522,2.5342,2.5328,2.53,2.5131,2.4905,2.4664,2.4478,2.435,2.4247,2.4144,2.4112,2.4008,2.3891,2.37,2.3522,2.3403,2.3198,2.3138,2.3125,2.3125,2.3125,2.3125,2.3125,2.3125,2.3125,2.3125,2.3125,2.3125,2.3125,2.3125,2.3125,2.3125,2.3125,2.3125,2.3125,2.3125,2.3125,2.3125,2.3125,2.3125,2.3125,2.3125,2.3125,2.3125,2.3078,2.3017,2.3017,2.2982,2.2898,2.2727,2.2543,2.2345,2.2097,2.1851,2.177,2.1385,2.0863,2.0236,1.9645,1.9448,1.9206,1.8965,1.8873,1.8842,1.8637,1.8649,1.8682,1.872,1.8753,1.8673,1.8731,1.8967,1.9033,1.9296,1.9474,1.9425,1.9422,1.9316,1.9293,1.9127,1.904,1.89,1.9018,1.8807,1.8523,1.8532,1.847,1.8399,1.8425,1.8353,1.8201,1.804,1.7878,1.7806,1.7661,1.7425,1.7253,1.7066,1.6984,1.6812,1.6648,1.6484,1.6237,1.5989,1.5567,1.5249,1.4951,1.4614,1.4341,1.4257,1.4186,2.5853,2.5743,2.5411,2.5201,2.4948,2.5061,2.5005,2.4835,2.4607,2.4421,2.4292,2.4247,2.4157,2.4054,2.4008,2.3878,2.37,2.3582,2.345,2.3271,2.315,2.3138,2.3125,2.3125,2.3125,2.3125,2.3125,2.3125,2.3125,2.3125,2.3125,2.3125,2.3125,2.3125,2.3125,2.3125,2.3125,2.3125,2.3125,2.3125,2.3125,2.3125,2.3125,2.3125,2.3125,2.3125,2.3125,2.3138,2.315,2.315,2.3115,2.3142,2.312,2.3034,2.2984,2.2832,2.2559,2.2403,2.2391,2.2038,2.1406,2.066,2.024,2.0049,1.9854,1.9602,1.9465,1.9471,1.9443,1.9374,1.93,1.9235,1.9293,1.9201,1.9468,1.9631,1.9707,1.9955,1.9934,1.9991,1.9932,1.9942,1.9942,1.9854,1.965,1.952,1.9399,1.917,1.8931,1.8931,1.8851,1.8851,1.8772,1.8692,1.8603,1.8442,1.8362,1.829,1.8057,1.7912,1.7814,1.7635,1.7546,1.7383,1.7139,1.6894,1.6566,1.6229,1.5982,1.5665,1.5278,1.4936,1.4573,1.4503,1.4439,2.5757,2.5439,2.5131,2.4905,2.4835,2.4892,2.4778,2.4563,2.4363,2.4305,2.4279,2.4157,2.3995,2.3878,2.3891,2.37,2.3522,2.3463,2.333,2.321,2.3138,2.3125,2.3125,2.3125,2.3125,2.3125,2.3125,2.3125,2.3125,2.3125,2.3125,2.3125,2.3125,2.3125,2.3125,2.3125,2.3125,2.3125,2.3125,2.3125,2.3125,2.3125,2.3125,2.3125,2.3125,2.3201,2.3238,2.3288,2.3314,2.3265,2.3253,2.3467,2.3567,2.3577,2.3781,2.3675,2.3364,2.3258,2.2968,2.2536,2.2199,2.1625,2.1274,2.0942,2.0471,2.0165,2.0022,1.9889,1.9788,1.9856,1.9829,1.9954,2.0002,2.0148,2.0313,2.0401,2.0411,2.0391,2.0323,2.0264,2.0098,2.0098,2.0098,2.002,2.002,1.9942,1.9715,1.9627,1.939,1.9311,1.9311,1.9161,1.9082,1.9002,1.8922,1.8843,1.8763,1.8603,1.8629,1.8477,1.8379,1.8193,1.8014,1.7853,1.7546,1.7302,1.6894,1.6648,1.6394,1.6087,1.5695,1.5278,1.4838,1.4671,1.4601,2.5411,2.5118,2.4962,2.4708,2.4421,2.4274,2.4274,2.4376,2.4203,2.4099,2.3995,2.4008,2.3819,2.3688,2.37,2.3582,2.3463,2.3403,2.3271,2.3198,2.3125,2.3125,2.3125,2.3125,2.3125,2.3125,2.3125,2.3125,2.3125,2.3125,2.3125,2.3125,2.3125,2.3125,2.3125,2.3125,2.3125,2.3125,2.3125,2.3125,2.3125,2.3125,2.315,2.3201,2.3213,2.3351,2.3653,2.3728,2.3804,2.4142,2.3965,2.4011,2.4186,2.427,2.4284,2.3694,2.3609,2.3698,2.3421,2.3262,2.2967,2.2477,2.2144,2.1618,2.1115,2.0669,2.0461,2.0372,2.0195,2.0187,2.0206,2.0332,2.0361,2.0449,2.0576,2.0566,2.0566,2.0566,2.042,2.042,2.0333,2.0255,2.0255,2.0333,2.0333,2.0255,2.0098,1.9942,1.9784,1.9696,1.9627,1.9478,1.9478,1.939,1.9399,1.932,1.9161,1.9002,1.9029,1.8958,1.8692,1.8585,1.8487,1.8327,1.8031,1.7635,1.731,1.7057,1.6804,1.6417,1.602,1.5604,1.5187,1.4929,1.4762,2.53,2.5005,2.4791,2.4492,2.4144,2.3995,2.3923,2.4015,2.3923,2.3819,2.376,2.376,2.37,2.3582,2.3522,2.3463,2.3271,2.3271,2.3198,2.3138,2.3125,2.3125,2.3125,2.3125,2.3125,2.3125,2.3125,2.3125,2.3125,2.3125,2.3125,2.3125,2.3125,2.3125,2.3125,2.3125,2.3125,2.3125,2.3125,2.3125,2.315,2.3175,2.3251,2.3452,2.3464,2.3803,2.4167,2.4255,2.4404,2.4576,2.4255,2.4259,2.4558,2.4719,2.4699,2.4232,2.4026,2.4002,2.3787,2.3525,2.3243,2.2927,2.2542,2.2018,2.151,2.0995,2.0958,2.0954,2.0767,2.0557,2.0557,2.0566,2.0566,2.0566,2.0576,2.0576,2.0576,2.0576,2.0576,2.0576,2.0576,2.0576,2.0576,2.0576,2.0566,2.0489,2.0411,2.0333,2.0177,1.9942,1.9863,1.9715,1.9784,1.9784,1.9784,1.9715,1.9548,1.9408,1.9445,1.9366,1.9091,1.8913,1.8816,1.8665,1.8442,1.804,1.7716,1.7465,1.7221,1.682,1.6343,1.5929,1.5506,1.5166,1.4922,2.5313,2.4948,2.4677,2.4287,2.3949,2.3819,2.3772,2.3569,2.3569,2.3556,2.3569,2.3569,2.3522,2.3403,2.3403,2.3271,2.3198,2.3138,2.3138,2.3125,2.3125,2.3125,2.3125,2.3125,2.3125,2.3125,2.3125,2.3125,2.3125,2.3125,2.3125,2.3125,2.3125,2.3125,2.3125,2.3125,2.3201,2.3401,2.3364,2.3351,2.3301,2.3314,2.3464,2.3954,2.4067,2.4242,2.4603,2.4688,2.457,2.4505,2.4472,2.4518,2.4691,2.4939,2.4944,2.4779,2.4327,2.4051,2.3772,2.3486,2.3054,2.2767,2.2467,2.2059,2.1546,2.1206,2.1136,2.1054,2.0769,2.0644,2.0576,2.0576,2.0576,2.0576,2.0576,2.0576,2.0576,2.0576,2.0576,2.0576,2.0576,2.0576,2.0576,2.0576,2.0576,2.0566,2.0566,2.0566,2.0411,2.0177,2.0098,2.002,2.0098,2.0098,1.9942,1.9942,1.9951,1.9891,1.9841,1.9762,1.9487,1.9311,1.9152,1.8993,1.8763,1.8442,1.8121,1.7878,1.7473,1.7057,1.6664,1.6343,1.5937,1.5565,1.5202,2.5201,2.4677,2.4216,2.3995,2.3878,2.3641,2.3522,2.3463,2.3258,2.3318,2.339,2.3463,2.333,2.3198,2.3198,2.3138,2.3138,2.3125,2.3125,2.3125,2.3125,2.3125,2.3125,2.3125,2.3125,2.3125,2.3125,2.3125,2.3125,2.3125,2.3125,2.3125,2.3125,2.3125,2.3138,2.3163,2.3475,2.3764,2.3803,2.3828,2.3866,2.3879,2.4042,2.438,2.4541,2.4713,2.4983,2.5049,2.5241,2.5406,2.5355,2.5244,2.4979,2.4921,2.4694,2.4406,2.4261,2.397,2.3593,2.3224,2.2927,2.2553,2.2252,2.1949,2.1614,2.139,2.1141,2.0961,2.0769,2.0634,2.0576,2.0576,2.0576,2.0576,2.0576,2.0576,2.0576,2.0576,2.0576,2.0576,2.0576,2.0576,2.0576,2.0576,2.0576,2.0566,2.0566,2.0566,2.0566,2.0411,2.0411,2.0333,2.0411,2.0411,2.0255,2.0177,2.0177,2.0098,2.0029,1.9951,1.9872,1.9636,1.939,1.9231,1.9002,1.8798,1.8495,1.8138,1.7733,1.7434,1.7089,1.6897,1.6507,1.6062,1.5621,2.5159,2.4563,2.4125,2.3832,2.3772,2.3509,2.333,2.3271,2.3138,2.3138,2.3271,2.3271,2.3198,2.3125,2.3125,2.3125,2.3125,2.3125,2.3125,2.3125,2.3125,2.3125,2.3125,2.3125,2.3125,2.3125,2.3125,2.3125,2.3125,2.3125,2.3125,2.3078,2.3078,2.309,2.3201,2.35,2.3901,2.4179,2.4331,2.4469,2.4569,2.4569,2.4593,2.4878,2.4983,2.5153,2.5314,2.5387,2.5465,2.5463,2.5334,2.4969,2.4684,2.4515,2.4406,2.4116,2.3897,2.3604,2.3224,2.2927,2.2703,2.2338,2.2111,2.1731,2.1425,2.1125,2.1028,2.0837,2.0702,2.0566,2.0566,2.0576,2.0576,2.0576,2.0576,2.0576,2.0576,2.0576,2.0576,2.0576,2.0576,2.0576,2.0576,2.0576,2.0576,2.0576,2.0576,2.0576,2.0576,2.0576,2.0576,2.0576,2.0576,2.0566,2.0489,2.0411,2.0411,2.0323,2.0157,2.0177,2.0117,1.9872,1.9636,1.9534,1.9421,1.9217,1.8896,1.8661,1.8542,1.8414,1.7971,1.7505,1.7038,1.6612,1.6314,2.5145,2.4563,2.4054,2.376,2.3569,2.339,2.3271,2.3138,2.3125,2.3125,2.3138,2.3138,2.3125,2.3125,2.3125,2.3125,2.3125,2.3125,2.3125,2.3125,2.3125,2.3125,2.3125,2.3125,2.3125,2.3125,2.3125,2.3125,2.3125,2.3125,2.3078,2.3078,2.3128,2.3153,2.3525,2.409,2.4646,2.4671,2.4795,2.5209,2.5194,2.5169,2.5215,2.5257,2.5358,2.5512,2.5681,2.5606,2.5453,2.5182,2.4909,2.4599,2.4311,2.4166,2.3959,2.3751,2.3446,2.3224,2.2927,2.2703,2.2413,2.2197,2.1883,2.1578,2.1205,2.1031,2.0934,2.0779,2.0634,2.0566,2.0566,2.0576,2.0576,2.0576,2.0576,2.0576,2.0576,2.0576,2.0576,2.0576,2.0576,2.0576,2.0576,2.0576,2.0576,2.0576,2.0576,2.0576,2.0576,2.0576,2.0576,2.0576,2.0576,2.0566,2.0566,2.0566,2.0489,2.0489,2.0411,2.043,2.04,2.0251,2.0071,1.9902,1.9789,1.9751,1.9625,1.9321,1.9309,1.917,1.8479,1.7896,1.7555,1.7185,1.7041,2.5145,2.4563,2.3923,2.3628,2.3556,2.3258,2.3138,2.3138,2.3125,2.3125,2.3125,2.3125,2.3125,2.3125,2.3125,2.3125,2.3125,2.3125,2.3125,2.3125,2.3125,2.3125,2.3125,2.3125,2.3125,2.3125,2.3125,2.3125,2.3188,2.3163,2.309,2.314,2.3109,2.3331,2.3929,2.4545,2.5037,2.5149,2.5335,2.5645,2.5735,2.5722,2.5617,2.5654,2.5681,2.5591,2.5453,2.5265,2.5135,2.4849,2.4562,2.4177,2.3948,2.374,2.3519,2.3298,2.3075,2.2852,2.2628,2.2402,2.2111,2.2088,2.1772,2.1359,2.1128,2.0964,2.0789,2.0712,2.0566,2.0566,2.0576,2.0576,2.0576,2.0576,2.0576,2.0576,2.0576,2.0576,2.0576,2.0576,2.0576,2.0576,2.0576,2.0576,2.0576,2.0576,2.0576,2.0576,2.0576,2.0576,2.0576,2.0576,2.0586,2.0576,2.0566,2.0566,2.0566,2.0566,2.0644,2.0693,2.0731,2.0738,2.0627,2.0382,2.0445,2.044,2.0207,1.9907,1.9665,1.948,1.8821,1.8335,1.8041,1.764,1.7462]},{"header":{"parameterUnit":"m.s-1","parameterCategory":1,"la1":31.0,"la2":29.5877,"lo1":-88.7671,"lo2":-86.6584,"dy":0.0162,"dx":0.0185,"nx":115,"ny":88,"refTime":"2023-07-21T06:00:00:Z","depth":0,"parameterNumber":3,"parameterNumberName":"V-component_of_WINDS"},"data":[0.0,0.0,0.0,0.0,0.0,0.0,0.0,0.0,0.0,0.0,0.0,0.0,0.0,0.0,0.0,0.0,0.0,0.0,0.0,0.0,0.0,0.0,0.0,0.0,0.0,0.0,0.0,0.0,0.0,0.0,0.0,0.0,0.0,0.0,0.0,0.0,0.0,0.0,0.0,0.0,0.0,0.0,0.0,0.0,0.0,0.0,0.0,0.0,0.0,0.0,0.0,0.0,0.0,0.0,0.0,0.0,0.0,0.0,0.0,0.0,0.0,0.0,0.0,0.0,0.0,0.0,0.0,0.0,0.0,0.0,0.0,0.0,0.0,0.0,0.0,0.0,0.0,0.0,0.0,0.0,0.0,0.0,0.0,0.0,0.0,0.0,0.0,0.0,0.0,0.0,0.0,0.0,0.0,0.0,0.0,0.0,0.0,0.0,0.0,0.0,0.0,0.0,0.0,0.0,0.0,0.0,0.0,0.0,0.0,0.0,0.0,0.0,0.0,0.0,0.0,0.0,0.0,0.0,0.0,0.0,0.0,0.0,0.0,0.0,0.0,0.0,0.0,0.0,0.0,0.0,0.0,0.0,0.0,0.0,0.0,0.0,0.0,0.0,0.0,0.0,0.0,0.0,0.0,0.0,0.0,0.0,0.0,0.0,0.0,0.0,0.0,0.0,0.0,0.0,0.0,0.0,0.0,0.0,0.0,0.0,0.0,0.0,0.0,0.0,0.0,0.0,0.0,0.0,0.0,0.0,0.0,0.0,0.0,0.0,0.0,0.0,0.0,0.0,0.0,0.0,0.0,0.0,0.0,0.0,0.0,0.0,0.0,0.0,0.0,0.0,0.0,0.0,0.0,0.0,0.0,0.0,0.0,0.0,0.0,0.0,0.0,0.0,0.0,0.0,0.0,0.0,0.0,0.0,0.0,0.0,0.0,0.0,0.0,0.0,0.0,0.0,0.0,0.0,0.0,0.0,0.0,0.0,0.0,0.0,0.0,0.0,0.0,0.0,0.0,0.0,0.0,0.0,0.0,0.0,0.0,0.0,0.0,0.0,0.0,0.0,0.0,0.0,0.0,0.0,0.0,0.0,0.0,0.0,0.0,0.0,0.0,0.0,0.0,0.0,0.0,0.0,0.0,0.0,0.0,0.0,0.0,0.0,0.0,0.0,0.0,0.0,0.0,0.0,0.0,0.0,0.0,0.0,0.0,0.0,0.0,0.0,0.0,0.0,0.0,0.0,0.0,0.0,0.0,0.0,0.0,0.0,0.0,0.0,0.0,0.0,0.0,0.0,0.0,0.0,0.0,0.0,0.0,0.0,0.0,0.0,0.0,0.0,0.0,0.0,0.0,0.0,0.0,0.0,0.0,0.0,0.0,0.0,0.0,0.0,0.0,0.0,0.0,0.0,0.0,0.0,0.0,0.0,0.0,0.0,0.0,0.0,0.0,0.0,0.0,0.0,0.0,0.0,0.0,0.0,0.0,0.0,0.0,0.0,0.0,0.0,0.0,0.0,0.0,0.0,0.0,0.0,0.0,0.0,0.0,0.0,0.0,0.0,0.0,0.0,0.0,0.0,0.0,0.0,0.0,0.0,0.0,0.0,0.0,0.0,0.0,0.0,0.0,0.0,0.0,0.0,0.0,0.0,0.0,0.0,0.0,0.0,0.0,0.0,0.0,0.0,0.0,0.0,0.0,0.0,0.0,0.0,0.0,0.0,0.0,0.0,0.0,0.0,0.0,0.0,0.0,0.0,0.0,0.0,0.0,0.0,0.0,0.0,0.0,0.0,0.0,0.0,0.0,0.0,0.0,0.0,0.0,0.0,0.0,0.0,0.0,0.0,0.0,0.0,0.0,0.0,0.0,0.0,0.0,0.0,0.0,0.0,0.0,0.0,0.0,0.0,0.0,0.0,0.0,0.0,0.0,0.0,0.0,0.0,0.0,0.0,0.0,0.0,0.0,0.0,0.0,0.0,0.0,0.0,0.0,0.0,0.0,0.0,0.0,0.0,0.0,0.0,0.0,0.0,0.0,0.0,0.0,0.0,0.0,0.0,0.0,0.0,0.0,0.0,0.0,0.0,0.0,0.0,0.0,0.0,0.0,0.0,0.0,0.0,0.0,0.0,0.0,0.0,0.0,0.0,0.0,0.0,0.0,0.0,0.0,0.0,0.0,0.0,0.0,0.0,0.0,0.0,0.0,0.0,0.0,0.0,0.0,0.0,0.0,0.0,0.0,0.0,0.0,0.0,0.0,0.0,0.0,0.0,0.0,0.0,0.0,0.0,0.0,0.0,0.0,0.0,0.0,0.0,0.0,0.0,0.0,0.0,0.0,0.0,0.0,0.0,0.0,0.0,0.0,0.0,0.0,0.0,0.0,0.0,0.0,0.0,0.0,0.0,0.0,0.0,0.0,0.0,0.0,0.0,0.0,0.0,0.0,0.0,0.0,0.0,0.0,0.0,0.0,0.0,0.0,0.0,0.0,0.0,0.0,0.0,0.0,0.0,0.0,0.0,0.0,0.0,0.0,0.0,0.0,0.0,0.0,0.0,0.0,0.0,0.0,0.0,0.0,0.0,0.0,0.0,0.0,0.0,0.0,0.0,0.0,0.0,0.0,0.0,0.0,0.0,0.0,0.0,0.0,0.0,0.0,0.0,0.0,0.0,0.0,0.0,0.0,0.0,0.0,0.0,0.0,0.0,0.0,0.0,0.0,0.0,0.0,0.0,0.0,0.0,0.0,0.0,0.0,0.0,0.0,0.0,0.0,0.0,0.0,0.0,0.0,0.0,0.0,0.0,0.0,0.0,0.0,0.0,0.0,0.0,0.0,0.0,0.0,0.0,0.0,0.0,0.0,0.0,0.0,0.0,0.0,0.0,0.0,0.0,0.0,0.0,0.0,0.0,0.0,0.0,0.0,0.0,0.0,0.0,0.0,0.0,0.0,0.0,0.0,0.0,0.0,0.0,0.0,0.0,0.0,0.0,0.0,0.0,0.0,0.0,0.0,0.0,0.0,0.0,0.0,0.0,0.0,0.0,0.0,0.0,0.0,0.0,0.0,0.0,0.0,0.0,0.0,0.0,0.0,0.0,0.0,0.0,0.0,0.0,0.0,0.0,0.0,0.0,0.0,0.0,0.0,0.0,0.0,0.0,0.0,0.0,0.0,0.0,0.0,0.0,0.0,0.0,0.0,0.0,0.0,0.0,0.0,0.0,0.0,0.0,0.0,0.0,0.0,0.0,0.0,0.0,0.0,0.0,0.0,0.0,0.0,0.0,0.0,0.0,0.0,0.0,0.0,0.0,0.0,0.0,0.0,0.0,0.0,0.0,0.0,0.0,0.0,0.0,0.0,0.0,0.0,0.0,0.0,0.0,0.0,0.0,0.0,0.0,0.0,0.0,0.0,0.0,0.0,0.0,0.0,0.0,0.0,0.0,0.0,0.0,0.0,0.0,0.0,0.0,0.0,0.0,0.0,0.0,0.0,0.0,0.0,0.0,0.0,0.0,0.0,0.0,0.0,0.0,0.0,0.0,0.0,0.0,0.0,0.0,0.0,0.0,0.0,0.0,0.0,0.0,0.0,0.0,0.0,0.0,0.0,0.0,0.0,0.0,0.0,0.0,0.0,0.0,0.0,0.0,0.0,0.0,0.0,0.0,0.0,0.0,0.0,0.0,0.0,0.0,0.0,0.0,0.0,0.0,0.0,0.0,0.0,0.0,0.0,0.0,0.0,0.0,0.0,0.0,0.0,0.0,0.0,0.0,0.0,0.0,0.0,0.0,0.0,0.0,0.0,0.0,0.0,0.0,0.0,0.0,0.0,0.0,0.0,0.0,0.0,0.0,0.0,0.0,0.0,0.0,0.0,0.0,0.0,0.0,0.0,0.0,0.0,0.0,0.0,0.0,0.0,0.0,0.0,0.0,0.0,0.0,0.0,0.0,0.0,0.0,0.0,0.0,0.0,0.0,0.0,0.0,0.0,0.0,0.0,0.0,0.0,0.0,0.0,0.0,0.0,0.0,0.0,0.0,0.0,0.0,0.0,0.0,0.0,0.0,0.0,0.0,0.0,0.0,0.0,0.0,0.0,0.0,0.0,0.0,0.0,0.0,0.0,0.0,0.0,0.0,0.0,0.0,0.0,0.0,0.0,0.0,0.0,0.0,0.0,0.0,0.0,0.0,0.0,0.0,0.0,0.0,0.0,0.0,0.0,0.0,0.0,0.0,0.0,0.0,0.0,0.0,0.0,0.0,0.0,0.0,0.0,0.0,0.0,0.0,-0.3894,0.0,0.0,0.0,0.0,0.0,0.0,0.0,0.0,0.0,0.0,0.0,0.0,0.0,0.0,0.0,0.0,0.0,0.0,0.0,0.0,0.0,0.0,0.0,0.0,0.0,0.0,0.0,0.0,0.0,0.0,0.0,0.0,0.0,0.0,0.0,0.0,0.0,0.0,0.0,0.0,0.0,0.0,0.0,0.0,0.0,0.0,0.0,0.0,0.0,0.0,0.0,0.0,0.0,0.0,0.0,0.0,0.0,0.0,0.0,0.0,0.0,0.0,0.0,0.0,0.0,0.0,0.0,0.0,0.0,0.0,0.0,0.0,0.0,0.0,0.0,0.0,0.0,0.0,0.0,0.0,0.0,0.0,0.0,0.0,0.0,0.0,0.0,0.0,0.0,0.0,0.0,0.0,0.0,0.0,0.0,0.0,0.0,0.0,0.0,0.0,0.0,0.0,0.0,0.0,0.0,0.0,0.0,0.0,0.0,0.0,-0.4553,-0.4691,-0.4821,-0.4954,-0.5027,0.0,0.0,0.0,0.0,0.0,0.0,0.0,0.0,0.0,0.0,0.0,0.0,0.0,0.0,0.0,0.0,0.0,0.0,0.0,0.0,0.0,0.0,0.0,0.0,0.0,0.0,0.0,0.0,0.0,0.0,0.0,0.0,0.0,0.0,0.0,0.0,0.0,0.0,0.0,0.0,0.0,0.0,0.0,0.0,0.0,0.0,0.0,0.0,0.0,0.0,0.0,0.0,0.0,0.0,0.0,0.0,0.0,0.0,0.0,0.0,0.0,0.0,0.0,0.0,0.0,0.0,0.0,0.0,0.0,0.0,0.0,0.0,0.0,0.0,0.0,0.0,0.0,0.0,0.0,0.0,0.0,0.0,0.0,0.0,0.0,0.0,0.0,0.0,0.0,0.0,0.0,0.0,0.0,0.0,0.0,0.0,0.0,0.0,0.0,0.0,0.0,0.0,0.0,0.0,0.0,0.0,0.0,0.0,0.0,0.0,0.0,0.0,-0.5811,-0.5943,-0.6086,0.0,0.0,0.0,0.0,0.0,0.0,0.0,0.0,0.0,0.0,0.0,0.0,0.0,0.0,0.0,0.0,0.0,0.0,0.0,0.0,0.0,0.0,0.0,0.0,0.0,0.0,0.0,0.0,0.0,0.0,0.0,0.0,0.0,0.0,0.0,0.0,0.0,0.0,0.0,0.0,0.0,0.0,0.0,0.0,0.0,0.0,0.0,0.0,0.0,0.0,0.0,0.0,0.0,0.0,0.0,0.0,0.0,0.0,0.0,0.0,0.0,0.0,0.0,0.0,0.0,0.0,0.0,0.0,0.0,0.0,0.0,0.0,0.0,0.0,0.0,0.0,0.0,0.0,0.0,0.0,0.0,0.0,0.0,0.0,0.0,0.0,0.0,0.0,0.0,0.0,0.0,0.0,0.0,0.0,0.0,0.0,0.0,0.0,0.0,0.0,0.0,0.0,0.0,0.0,0.0,0.0,0.0,0.0,0.0,0.0,-0.6741,-0.6732,-0.6793,0.0,-0.6793,0.0,0.0,0.0,0.0,0.0,0.0,0.0,0.0,0.0,0.0,0.0,0.0,0.0,0.0,0.0,0.0,0.0,0.0,0.0,0.0,0.0,0.0,0.0,0.0,0.0,0.0,0.0,0.0,0.0,0.0,0.0,0.0,0.0,0.0,0.0,0.0,0.0,0.0,0.0,0.0,0.0,0.0,0.0,0.0,0.0,0.0,0.0,0.0,0.0,0.0,0.0,0.0,0.0,0.0,0.0,0.0,0.0,0.0,0.0,0.0,0.0,0.0,0.0,0.0,0.0,0.0,0.0,0.0,0.0,0.0,0.0,0.0,0.0,0.0,0.0,0.0,0.0,0.0,0.0,0.0,0.0,0.0,0.0,0.0,0.0,0.0,0.0,0.0,0.0,0.0,0.0,0.0,0.0,0.0,0.0,0.0,0.0,0.0,0.0,0.0,0.0,0.0,0.0,0.0,0.0,0.0,0.0,0.0,0.0,0.0,-0.8032,-0.8151,-0.835,-0.835,0.0,0.0,0.0,0.0,0.0,0.0,0.0,0.0,0.0,0.0,0.0,0.0,0.0,0.0,0.0,0.0,0.0,0.0,0.0,0.0,0.0,0.0,0.0,0.0,0.0,0.0,0.0,0.0,0.0,0.0,0.0,0.0,0.0,0.0,0.0,0.0,0.0,0.0,0.0,0.0,0.0,0.0,0.0,0.0,0.0,0.0,0.0,0.0,0.0,0.0,0.0,0.0,0.0,0.0,0.0,0.0,0.0,0.0,0.0,0.0,0.0,0.0,0.0,0.0,0.0,0.0,0.0,0.0,0.0,0.0,0.0,0.0,0.0,0.0,0.0,0.0,0.0,0.0,0.0,0.0,0.0,0.0,0.0,0.0,0.0,0.0,0.0,0.0,0.0,0.0,0.0,0.0,0.0,0.0,0.0,0.0,0.0,0.0,0.0,0.0,0.0,0.0,0.0,0.0,0.0,0.0,0.0,0.0,0.0,0.0,-0.9105,-0.9354,-0.9558,-0.9761,-0.9824,-0.9558,0.0,0.0,0.0,0.0,0.0,0.0,0.0,0.0,0.0,0.0,0.0,0.0,0.0,0.0,0.0,0.0,0.0,0.0,0.0,0.0,0.0,0.0,0.0,0.0,0.0,0.0,0.0,0.0,0.0,0.0,0.0,0.0,0.0,0.0,0.0,0.0,0.0,0.0,0.0,0.0,0.0,0.0,0.0,0.0,0.0,0.0,0.0,0.0,0.0,0.0,0.0,0.0,0.0,0.0,0.0,0.0,0.0,0.0,0.0,0.0,0.0,0.0,0.0,0.0,0.0,0.0,0.0,0.0,0.0,0.0,0.0,0.0,0.0,0.0,0.0,0.0,0.0,0.0,0.0,0.0,0.0,0.0,0.0,0.0,0.0,0.0,0.0,0.0,0.0,0.0,0.0,0.0,0.0,0.0,0.0,0.0,0.0,0.0,0.0,0.0,0.0,0.0,0.0,0.0,0.0,0.0,0.0,0.0,-1.0205,-1.0524,-1.0767,-1.0947,-1.0947,-1.0947,0.0,0.0,0.0,0.0,0.0,0.0,0.0,0.0,0.0,0.0,0.0,0.0,0.0,0.0,0.0,0.0,0.0,0.0,0.0,0.0,0.0,0.0,0.0,0.0,0.0,0.0,0.0,0.0,0.0,0.0,0.0,0.0,0.0,0.0,0.0,0.0,0.0,0.0,0.0,0.0,0.0,0.0,0.0,0.0,0.0,0.0,0.0,0.0,0.0,0.0,0.0,0.0,0.0,0.0,0.0,0.0,0.0,0.0,0.0,0.0,0.0,0.0,0.0,0.0,0.0,0.0,0.0,0.0,0.0,0.0,0.0,0.0,0.0,0.0,0.0,0.0,0.0,0.0,0.0,0.0,0.0,0.0,0.0,0.0,0.0,0.0,0.0,0.0,0.0,0.0,0.0,0.0,0.0,0.0,0.0,0.0,0.0,0.0,0.0,0.0,0.0,0.0,0.0,0.0,0.0,0.0,0.0,0.0,0.0,-1.1578,-1.2219,-1.2647,-1.2923,-1.2923,-1.2854,0.0,0.0,0.0,0.0,0.0,0.0,0.0,0.0,0.0,0.0,0.0,0.0,0.0,0.0,0.0,0.0,0.0,0.0,0.0,0.0,0.0,0.0,0.0,0.0,0.0,0.0,0.0,0.0,0.0,0.0,0.0,0.0,0.0,0.0,0.0,0.0,0.0,0.0,0.0,0.0,0.0,0.0,0.0,0.0,0.0,0.0,0.0,0.0,0.0,0.0,0.0,0.0,0.0,0.0,0.0,0.0,0.0,0.0,0.0,0.0,0.0,0.0,0.0,0.0,0.0,0.0,0.0,0.0,0.0,0.0,0.0,0.0,0.0,0.0,0.0,0.0,0.0,0.0,0.0,0.0,0.0,0.0,0.0,0.0,0.0,0.0,0.0,0.0,0.0,0.0,0.0,0.0,0.0,0.0,0.0,0.0,0.0,0.0,0.0,0.0,0.0,0.0,0.0,0.0,0.0,0.0,0.0,0.0,0.0,-1.3339,0.0,-1.4483,-1.4777,-1.4768,-1.4718,0.0,0.0,0.0,0.0,0.0,0.0,0.0,0.0,0.0,0.0,0.0,0.0,0.0,0.0,0.0,0.0,0.0,0.0,0.0,0.0,0.0,0.0,0.0,0.0,0.0,0.0,0.0,0.0,0.0,0.0,0.0,0.0,0.0,0.0,0.0,0.0,0.0,0.0,0.0,0.0,0.0,0.0,0.0,0.0,0.0,0.0,0.0,0.0,0.0,0.0,0.0,0.0,0.0,0.0,0.0,0.0,0.0,0.0,0.0,0.0,0.0,0.0,0.0,0.0,0.0,0.0,0.0,0.0,0.0,0.0,0.0,0.0,0.0,0.0,0.0,0.0,0.0,0.0,0.0,0.0,0.0,0.0,0.0,0.0,0.0,0.0,0.0,0.0,0.0,0.0,0.0,0.0,0.0,0.0,0.0,0.0,0.0,0.0,0.0,0.0,0.0,0.0,0.0,0.0,0.0,0.0,0.0,0.0,-1.4387,-1.5545,-1.5938,-1.6224,-1.6497,-1.643,-1.6373,0.0,0.0,0.0,0.0,0.0,0.0,0.0,0.0,0.0,0.0,0.0,0.0,0.0,0.0,0.0,0.0,0.0,0.0,0.0,0.0,0.0,0.0,0.0,0.0,0.0,0.0,0.0,0.0,0.0,0.0,0.0,0.0,0.0,0.0,0.0,0.0,0.0,0.0,0.0,0.0,0.0,0.0,0.0,0.0,0.0,0.0,0.0,0.0,0.0,0.0,0.0,0.0,0.0,0.0,0.0,0.0,0.0,0.0,0.0,0.0,0.0,0.0,0.0,0.0,0.0,0.0,0.0,0.0,0.0,0.0,0.0,0.0,0.0,0.0,0.0,0.0,0.0,0.0,0.0,0.0,0.0,0.0,0.0,0.0,0.0,0.0,0.0,0.0,0.0,0.0,0.0,0.0,0.0,0.0,0.0,0.0,0.0,0.0,0.0,0.0,0.0,0.0,0.0,0.0,0.0,0.0,0.0,0.0,0.0,-1.7102,-1.7632,-1.8012,-1.8282,-1.8324,-1.8312,0.0,0.0,0.0,0.0,0.0,0.0,0.0,0.0,0.0,0.0,0.0,0.0,0.0,0.0,0.0,0.0,0.0,0.0,0.0,0.0,0.0,0.0,0.0,0.0,0.0,0.0,0.0,0.0,0.0,0.0,0.0,0.0,0.0,0.0,0.0,0.0,0.0,0.0,0.0,0.0,0.0,0.0,0.0,0.0,0.0,0.0,0.0,0.0,0.0,0.0,0.0,0.0,0.0,0.0,0.0,0.0,0.0,0.0,0.0,0.0,0.0,0.0,0.0,0.0,0.0,0.0,0.0,0.0,0.0,0.0,0.0,0.0,0.0,0.0,0.0,0.0,0.0,0.0,0.0,0.0,0.0,0.0,0.0,0.0,0.0,0.0,0.0,0.0,0.0,0.0,0.0,0.0,0.0,0.0,0.0,0.0,0.0,0.0,0.0,0.0,0.0,0.0,0.0,0.0,0.0,0.0,0.0,0.0,0.0,-1.961,-1.9609,-1.9775,-2.018,-2.0192,-2.0192,-2.0142,0.0,0.0,0.0,0.0,0.0,0.0,0.0,0.0,0.0,0.0,0.0,0.0,0.0,0.0,0.0,0.0,0.0,0.0,0.0,0.0,0.0,0.0,0.0,0.0,0.0,0.0,0.0,0.0,0.0,0.0,0.0,0.0,0.0,0.0,0.0,0.0,0.0,0.0,0.0,0.0,0.0,0.0,0.0,0.0,0.0,0.0,0.0,0.0,0.0,0.0,0.0,0.0,0.0,0.0,0.0,0.0,0.0,0.0,0.0,0.0,0.0,0.0,0.0,0.0,0.0,0.0,0.0,0.0,0.0,0.0,0.0,0.0,0.0,0.0,0.0,0.0,0.0,0.0,0.0,0.0,0.0,0.0,0.0,0.0,0.0,0.0,0.0,0.0,0.0,0.0,0.0,0.0,0.0,0.0,0.0,0.0,0.0,0.0,0.0,0.0,0.0,0.0,0.0,0.0,0.0,0.0,0.0,0.0,-2.2714,-2.1815,-2.1627,-2.2062,-2.1951,-2.1871,0.0,0.0,0.0,0.0,0.0,0.0,0.0,0.0,0.0,0.0,0.0,0.0,0.0,0.0,0.0,0.0,0.0,0.0,0.0,0.0,0.0,0.0,0.0,0.0,0.0,0.0,0.0,0.0,0.0,0.0,0.0,0.0,0.0,0.0,0.0,0.0,0.0,0.0,0.0,0.0,0.0,0.0,0.0,0.0,0.0,0.0,0.0,0.0,0.0,0.0,0.0,0.0,0.0,0.0,0.0,0.0,0.0,0.0,0.0,0.0,0.0,0.0,0.0,0.0,0.0,0.0,0.0,0.0,0.0,0.0,0.0,0.0,0.0,0.0,0.0,0.0,0.0,0.0,0.0,0.0,0.0,0.0,0.0,0.0,0.0,0.0,0.0,0.0,0.0,0.0,0.0,0.0,0.0,0.0,0.0,0.0,0.0,0.0,0.0,0.0,0.0,0.0,0.0,0.0,0.0,0.0,0.0,0.0,0.0,-2.425,-2.4405,-2.4203,-2.3601,-2.3573,-2.3588,0.0,0.0,0.0,0.0,0.0,0.0,0.0,0.0,0.0,0.0,0.0,0.0,0.0,0.0,0.0,0.0,0.0,0.0,0.0,0.0,0.0,0.0,0.0,0.0,0.0,0.0,0.0,0.0,0.0,0.0,0.0,0.0,0.0,0.0,0.0,0.0,0.0,0.0,0.0,0.0,0.0,0.0,0.0,0.0,0.0,0.0,0.0,0.0,0.0,0.0,0.0,0.0,0.0,0.0,0.0,0.0,0.0,0.0,0.0,0.0,0.0,0.0,0.0,0.0,0.0,0.0,0.0,0.0,0.0,0.0,0.0,0.0,0.0,0.0,0.0,0.0,0.0,0.0,0.0,0.0,0.0,0.0,0.0,0.0,0.0,0.0,0.0,0.0,0.0,0.0,0.0,0.0,0.0,0.0,0.0,0.0,0.0,0.0,0.0,0.0,0.0,0.0,0.0,0.0,0.0,0.0,0.0,0.0,-2.4642,-2.5582,-2.6183,-2.6218,-2.5625,-2.525,-2.4994,0.0,0.0,0.0,0.0,0.0,0.0,0.0,0.0,0.0,0.0,0.0,0.0,0.0,0.0,0.0,0.0,0.0,0.0,0.0,0.0,0.0,0.0,0.0,0.0,0.0,0.0,0.0,0.0,0.0,0.0,0.0,0.0,0.0,0.0,0.0,0.0,0.0,0.0,0.0,0.0,0.0,0.0,0.0,0.0,0.0,0.0,0.0,0.0,0.0,0.0,0.0,0.0,0.0,0.0,0.0,0.0,0.0,0.0,0.0,0.0,0.0,0.0,0.0,0.0,0.0,0.0,0.0,0.0,0.0,0.0,0.0,0.0,0.0,0.0,0.0,0.0,0.0,0.0,0.0,0.0,0.0,0.0,0.0,0.0,0.0,0.0,0.0,0.0,0.0,0.0,0.0,0.0,0.0,0.0,0.0,0.0,0.0,0.0,0.0,0.0,0.0,0.0,0.0,0.0,0.0,0.0,0.0,0.0,-2.5889,-2.6751,-2.7377,-2.7763,-2.7791,-2.6815,-2.6216,0.0,0.0,0.0,0.0,0.0,0.0,0.0,0.0,0.0,0.0,0.0,0.0,0.0,0.0,0.0,0.0,0.0,0.0,0.0,0.0,0.0,0.0,0.0,0.0,0.0,0.0,0.0,0.0,0.0,0.0,0.0,0.0,0.0,0.0,0.0,0.0,0.0,0.0,0.0,0.0,0.0,0.0,0.0,0.0,0.0,0.0,0.0,0.0,0.0,0.0,0.0,0.0,0.0,0.0,0.0,0.0,0.0,0.0,0.0,0.0,0.0,0.0,0.0,0.0,0.0,0.0,0.0,0.0,0.0,0.0,0.0,0.0,0.0,0.0,0.0,0.0,0.0,0.0,0.0,0.0,0.0,0.0,0.0,0.0,0.0,0.0,0.0,0.0,0.0,0.0,0.0,0.0,0.0,0.0,0.0,0.0,0.0,0.0,0.0,0.0,0.0,0.0,0.0,0.0,0.0,0.0,0.0,0.0,-2.703,-2.785,-2.8304,-2.8609,-2.8706,-2.784,-2.7291,0.0,0.0,0.0,0.0,0.0,0.0,0.0,0.0,0.0,0.0,0.0,0.0,0.0,0.0,0.0,0.0,0.0,0.0,0.0,0.0,0.0,0.0,0.0,0.0,0.0,0.0,0.0,0.0,0.0,0.0,0.0,0.0,0.0,0.0,0.0,0.0,0.0,0.0,0.0,0.0,0.0,0.0,0.0,0.0,0.0,0.0,0.0,0.0,-2.8109,0.0,0.0,0.0,0.0,0.0,0.0,0.0,0.0,0.0,0.0,0.0,0.0,0.0,0.0,0.0,0.0,0.0,0.0,0.0,0.0,0.0,0.0,0.0,0.0,0.0,0.0,0.0,0.0,0.0,0.0,0.0,0.0,0.0,0.0,0.0,0.0,0.0,0.0,0.0,0.0,0.0,0.0,0.0,0.0,0.0,0.0,0.0,0.0,0.0,0.0,0.0,0.0,0.0,0.0,0.0,0.0,0.0,0.0,0.0,-2.7951,-2.8638,-2.9005,-2.9196,-2.9256,-2.8805,-2.8348,0.0,0.0,0.0,0.0,0.0,0.0,0.0,0.0,0.0,0.0,0.0,0.0,0.0,0.0,0.0,0.0,0.0,0.0,0.0,0.0,0.0,0.0,0.0,0.0,0.0,0.0,0.0,0.0,0.0,0.0,0.0,0.0,0.0,0.0,0.0,0.0,0.0,0.0,0.0,0.0,0.0,0.0,0.0,0.0,0.0,0.0,0.0,0.0,0.0,0.0,0.0,0.0,0.0,0.0,0.0,0.0,0.0,0.0,0.0,0.0,0.0,0.0,0.0,0.0,0.0,0.0,0.0,0.0,0.0,0.0,0.0,0.0,0.0,0.0,0.0,0.0,0.0,0.0,0.0,0.0,0.0,0.0,0.0,0.0,0.0,0.0,0.0,0.0,0.0,0.0,0.0,0.0,0.0,0.0,0.0,0.0,0.0,0.0,0.0,0.0,0.0,0.0,0.0,0.0,0.0,0.0,0.0,-2.8084,-2.8732,-2.9283,-2.9551,-2.968,-2.9681,-2.9608,-2.9295,-2.8706,0.0,0.0,0.0,0.0,0.0,0.0,0.0,0.0,0.0,0.0,0.0,0.0,0.0,0.0,0.0,0.0,0.0,0.0,0.0,0.0,0.0,0.0,0.0,0.0,0.0,0.0,0.0,0.0,0.0,0.0,0.0,0.0,0.0,0.0,0.0,0.0,0.0,0.0,-1.9408,-2.199,0.0,0.0,0.0,0.0,0.0,0.0,0.0,0.0,-3.1686,0.0,0.0,0.0,0.0,0.0,0.0,0.0,0.0,0.0,0.0,0.0,0.0,0.0,0.0,0.0,0.0,0.0,0.0,0.0,0.0,0.0,0.0,0.0,0.0,0.0,0.0,0.0,0.0,0.0,0.0,0.0,0.0,0.0,0.0,0.0,0.0,0.0,0.0,0.0,0.0,0.0,0.0,0.0,0.0,0.0,0.0,0.0,0.0,0.0,0.0,0.0,0.0,0.0,0.0,0.0,0.0,-2.8185,-2.8813,-2.9382,-2.9845,-2.9973,-3.0022,-3.0034,-2.9905,-2.9734,-2.9514,0.0,0.0,0.0,0.0,0.0,0.0,0.0,0.0,0.0,0.0,0.0,0.0,0.0,0.0,0.0,0.0,0.0,0.0,0.0,0.0,0.0,0.0,0.0,0.0,0.0,0.0,0.0,0.0,0.0,0.0,0.0,0.0,0.0,0.0,0.0,0.0,0.0,0.0,0.0,-2.4028,-2.5863,0.0,0.0,0.0,0.0,0.0,0.0,0.0,0.0,-3.3052,0.0,0.0,0.0,0.0,0.0,0.0,0.0,0.0,0.0,0.0,0.0,0.0,0.0,0.0,0.0,0.0,0.0,0.0,0.0,0.0,0.0,0.0,0.0,0.0,0.0,0.0,0.0,0.0,0.0,0.0,0.0,0.0,0.0,0.0,0.0,0.0,0.0,0.0,0.0,0.0,0.0,0.0,0.0,0.0,0.0,0.0,0.0,0.0,0.0,0.0,0.0,0.0,0.0,0.0,0.0,-2.8846,-2.9383,-2.9836,-3.0209,-3.0248,-3.0248,-3.0247,-3.0123,-3.0003,0.0,0.0,0.0,0.0,0.0,0.0,0.0,0.0,0.0,0.0,0.0,0.0,0.0,0.0,0.0,0.0,0.0,0.0,0.0,0.0,0.0,0.0,0.0,0.0,0.0,0.0,0.0,0.0,0.0,0.0,0.0,0.0,0.0,0.0,0.0,0.0,0.0,0.0,0.0,0.0,-2.5404,-2.6766,-2.8234,0.0,0.0,0.0,0.0,0.0,0.0,-3.3925,-3.4124,0.0,0.0,0.0,0.0,0.0,0.0,0.0,0.0,0.0,0.0,0.0,0.0,0.0,0.0,0.0,0.0,0.0,0.0,0.0,0.0,0.0,0.0,0.0,0.0,0.0,0.0,0.0,0.0,0.0,0.0,0.0,0.0,0.0,0.0,0.0,0.0,0.0,0.0,0.0,0.0,0.0,0.0,0.0,0.0,0.0,0.0,0.0,0.0,0.0,0.0,0.0,0.0,0.0,0.0,0.0,-2.9454,-2.987,-3.0208,-3.0451,-3.0451,-3.0449,-3.0425,-3.0305,-3.0166,0.0,0.0,0.0,0.0,0.0,0.0,0.0,0.0,0.0,0.0,0.0,0.0,0.0,0.0,0.0,0.0,0.0,0.0,0.0,0.0,0.0,0.0,0.0,0.0,0.0,0.0,0.0,0.0,0.0,0.0,0.0,0.0,0.0,0.0,0.0,0.0,0.0,0.0,0.0,0.0,0.0,-2.7689,-2.898,-2.9828,0.0,0.0,0.0,0.0,-3.4182,-3.4486,0.0,0.0,0.0,0.0,0.0,0.0,0.0,0.0,0.0,0.0,0.0,0.0,0.0,0.0,0.0,0.0,0.0,0.0,0.0,0.0,0.0,0.0,0.0,0.0,0.0,0.0,0.0,0.0,0.0,0.0,0.0,0.0,0.0,0.0,0.0,0.0,0.0,0.0,0.0,0.0,0.0,0.0,0.0,0.0,0.0,0.0,0.0,0.0,0.0,0.0,0.0,0.0,0.0,0.0,0.0,0.0,-2.9998,-3.0276,-3.0518,-3.0668,-3.0607,-3.0546,-3.0482,-3.0406,-3.0299,0.0,0.0,0.0,0.0,0.0,0.0,0.0,0.0,0.0,0.0,0.0,0.0,0.0,0.0,0.0,0.0,0.0,0.0,0.0,0.0,0.0,0.0,0.0,0.0,0.0,0.0,0.0,0.0,0.0,0.0,0.0,0.0,0.0,0.0,0.0,0.0,0.0,0.0,0.0,0.0,0.0,-2.8884,-2.953,-3.0705,-3.1643,0.0,0.0,-3.2986,-3.3982,-3.4205,0.0,0.0,0.0,0.0,0.0,0.0,0.0,0.0,0.0,0.0,0.0,0.0,0.0,0.0,0.0,0.0,0.0,0.0,0.0,0.0,0.0,0.0,0.0,0.0,0.0,0.0,0.0,0.0,0.0,0.0,0.0,0.0,0.0,0.0,0.0,0.0,0.0,0.0,0.0,0.0,0.0,0.0,0.0,0.0,0.0,0.0,0.0,0.0,0.0,0.0,0.0,0.0,0.0,0.0,0.0,-2.9966,-3.0334,-3.0518,-3.0678,-3.0745,-3.0678,-3.0632,-3.0543,-3.0482,-3.0425,0.0,0.0,0.0,0.0,0.0,0.0,0.0,0.0,0.0,0.0,0.0,0.0,0.0,0.0,0.0,0.0,0.0,0.0,0.0,0.0,0.0,0.0,0.0,0.0,0.0,0.0,0.0,0.0,0.0,0.0,0.0,0.0,0.0,0.0,0.0,0.0,0.0,0.0,0.0,0.0,0.0,0.0,-2.9717,-3.039,0.0,0.0,0.0,-3.2479,-3.3379,0.0,0.0,0.0,0.0,0.0,0.0,0.0,0.0,0.0,0.0,0.0,0.0,0.0,0.0,0.0,0.0,0.0,0.0,0.0,0.0,0.0,0.0,0.0,0.0,0.0,0.0,0.0,0.0,0.0,0.0,0.0,0.0,0.0,0.0,0.0,0.0,0.0,0.0,0.0,0.0,0.0,0.0,0.0,0.0,0.0,0.0,0.0,0.0,0.0,0.0,0.0,0.0,0.0,0.0,0.0,0.0,0.0,-3.054,-3.0664,-3.0735,-3.0785,-3.0759,-3.0695,-3.0632,-3.0557,0.0,0.0,0.0,0.0,0.0,0.0,0.0,0.0,0.0,0.0,0.0,0.0,0.0,0.0,0.0,0.0,0.0,0.0,0.0,0.0,0.0,0.0,0.0,0.0,0.0,0.0,0.0,-2.483,0.0,0.0,0.0,0.0,0.0,0.0,0.0,0.0,0.0,0.0,0.0,0.0,0.0,0.0,-2.9588,-2.9843,-3.0108,-3.0505,0.0,0.0,-3.1721,-3.2584,-3.3205,-3.3768,0.0,0.0,0.0,0.0,0.0,0.0,0.0,0.0,0.0,0.0,0.0,0.0,0.0,0.0,0.0,0.0,0.0,0.0,0.0,0.0,0.0,0.0,0.0,0.0,0.0,0.0,0.0,0.0,0.0,0.0,0.0,0.0,0.0,0.0,0.0,0.0,0.0,0.0,0.0,0.0,0.0,0.0,0.0,0.0,0.0,0.0,0.0,0.0,0.0,0.0,0.0,0.0,0.0,0.0,0.0,-3.0678,-3.0761,-3.08,-3.0796,-3.0801,-3.0771,-3.0695,-3.063,-3.0577,0.0,0.0,0.0,0.0,0.0,0.0,0.0,0.0,0.0,0.0,0.0,0.0,0.0,0.0,0.0,0.0,0.0,0.0,0.0,0.0,0.0,0.0,0.0,0.0,0.0,0.0,0.0,0.0,0.0,0.0,0.0,0.0,0.0,0.0,0.0,0.0,0.0,0.0,0.0,0.0,0.0,-3.0061,-3.0147,-3.0293,-3.0401,0.0,0.0,-3.0684,-3.1476,-3.1646,-3.2216,-3.3774,0.0,0.0,0.0,0.0,0.0,0.0,0.0,0.0,0.0,0.0,0.0,0.0,0.0,0.0,0.0,0.0,0.0,0.0,0.0,0.0,0.0,0.0,0.0,0.0,0.0,0.0,0.0,0.0,0.0,0.0,0.0,0.0,0.0,0.0,0.0,0.0,0.0,0.0,0.0,0.0,0.0,0.0,0.0,0.0,0.0,0.0,0.0,0.0,0.0,0.0,0.0,0.0,0.0,-3.068,-3.0706,-3.0755,-3.0799,-3.0796,-3.0799,-3.0755,-3.0697,-3.0665,-3.0618,0.0,0.0,0.0,0.0,0.0,0.0,0.0,0.0,0.0,0.0,0.0,0.0,0.0,0.0,0.0,0.0,0.0,0.0,0.0,0.0,0.0,0.0,0.0,0.0,0.0,0.0,0.0,0.0,-2.8466,-2.8658,-2.8928,0.0,0.0,0.0,0.0,0.0,0.0,0.0,0.0,0.0,0.0,-3.0209,-3.0209,-3.0206,0.0,0.0,-2.9954,-3.0028,-3.0278,-3.0731,-3.1293,-3.1974,-3.2961,0.0,0.0,0.0,0.0,0.0,0.0,0.0,0.0,0.0,0.0,0.0,0.0,0.0,0.0,0.0,0.0,0.0,0.0,0.0,0.0,0.0,0.0,0.0,0.0,0.0,0.0,0.0,0.0,0.0,0.0,0.0,0.0,0.0,0.0,0.0,0.0,0.0,0.0,0.0,0.0,0.0,0.0,0.0,0.0,0.0,0.0,0.0,0.0,0.0,0.0,0.0,0.0,-3.0652,-3.0667,-3.0745,-3.0789,-3.0788,-3.0799,-3.0769,-3.0726,-3.0703,-3.0649,0.0,0.0,0.0,0.0,0.0,0.0,0.0,0.0,0.0,0.0,0.0,0.0,0.0,0.0,0.0,0.0,0.0,0.0,0.0,0.0,0.0,0.0,0.0,0.0,0.0,0.0,0.0,0.0,-2.9527,-2.9665,-2.9816,0.0,0.0,0.0,0.0,0.0,0.0,0.0,0.0,0.0,0.0,-2.9973,-2.9828,-2.9817,-2.9751,-2.9581,-2.9475,-2.942,-2.9343,-2.9827,-3.0314,-3.0616,0.0,0.0,0.0,0.0,0.0,0.0,0.0,0.0,0.0,0.0,0.0,0.0,0.0,0.0,0.0,0.0,0.0,0.0,0.0,0.0,0.0,0.0,0.0,0.0,0.0,0.0,0.0,0.0,0.0,0.0,-2.902,0.0,0.0,0.0,0.0,0.0,0.0,0.0,0.0,0.0,0.0,0.0,0.0,0.0,0.0,0.0,0.0,0.0,0.0,0.0,0.0,0.0,0.0,-3.0535,-3.061,-3.0651,-3.0742,-3.0784,-3.0792,-3.0793,-3.0784,-3.0742,-3.0683,-3.0615,0.0,0.0,0.0,0.0,0.0,0.0,0.0,0.0,0.0,0.0,0.0,0.0,0.0,0.0,0.0,0.0,0.0,0.0,0.0,0.0,0.0,0.0,0.0,0.0,0.0,0.0,-3.0152,-3.0231,-3.0214,0.0,0.0,0.0,0.0,0.0,0.0,0.0,0.0,0.0,0.0,-2.9735,-2.9289,-2.8983,-2.9101,-2.9184,-2.9023,-2.8888,-2.8795,-2.873,-2.879,-2.9112,0.0,0.0,0.0,0.0,0.0,0.0,0.0,0.0,0.0,0.0,0.0,0.0,0.0,0.0,0.0,0.0,0.0,0.0,0.0,0.0,0.0,0.0,0.0,0.0,0.0,0.0,0.0,-2.9652,-2.9664,0.0,0.0,0.0,0.0,0.0,0.0,0.0,0.0,0.0,0.0,0.0,-3.0444,-3.0516,0.0,0.0,0.0,0.0,0.0,0.0,0.0,0.0,0.0,0.0,0.0,0.0,-3.0471,-3.054,-3.0618,-3.0665,-3.0739,-3.0762,-3.0799,-3.079,-3.073,-3.0678,-3.0616,0.0,0.0,0.0,0.0,0.0,0.0,0.0,0.0,0.0,0.0,0.0,0.0,0.0,0.0,0.0,0.0,0.0,0.0,0.0,0.0,0.0,0.0,0.0,0.0,0.0,-3.027,0.0,0.0,0.0,0.0,0.0,0.0,0.0,0.0,0.0,0.0,0.0,-2.9374,-2.9401,-2.9097,-2.8701,-2.8301,-2.8438,-2.8548,0.0,0.0,0.0,0.0,0.0,0.0,0.0,0.0,0.0,0.0,0.0,0.0,0.0,0.0,-3.3876,-3.4255,-3.4167,-3.4018,-3.3919,0.0,0.0,0.0,0.0,0.0,0.0,0.0,0.0,0.0,0.0,0.0,0.0,0.0,0.0,-3.0278,0.0,-3.0158,0.0,0.0,0.0,0.0,0.0,0.0,0.0,0.0,-3.0567,-3.0606,-3.0646,-3.0701,-3.0735,0.0,-3.0665,-3.0647,0.0,0.0,0.0,0.0,0.0,0.0,0.0,0.0,-3.0379,-3.0469,-3.0557,-3.0637,-3.071,-3.0752,-3.08,-3.0801,-3.0725,-3.0664,-3.0607,-3.054,-3.049,0.0,0.0,0.0,0.0,0.0,0.0,0.0,0.0,0.0,0.0,0.0,0.0,0.0,0.0,0.0,0.0,0.0,0.0,0.0,0.0,0.0,0.0,0.0,-3.0122,0.0,0.0,0.0,0.0,0.0,0.0,0.0,0.0,0.0,-2.9588,-2.9101,-2.8552,-2.8409,-2.8308,-2.8048,-2.7549,0.0,0.0,0.0,0.0,0.0,0.0,0.0,-2.795,-2.795,-2.8518,-2.904,-2.9326,-3.0689,-3.1966,-3.2517,0.0,0.0,-3.3634,-3.3561,-3.3403,-3.3354,-3.3196,-3.314,-3.3309,-3.2867,-3.2247,0.0,0.0,0.0,0.0,0.0,0.0,0.0,0.0,-3.0643,-3.0592,0.0,-3.0531,0.0,0.0,0.0,0.0,0.0,-3.0683,0.0,0.0,-3.0753,-3.0762,-3.071,-3.0747,-3.0742,-3.069,-3.064,-3.0519,-3.0413,-3.0481,0.0,0.0,0.0,0.0,0.0,0.0,-3.0267,-3.0398,-3.0549,-3.0645,-3.0697,-3.0768,-3.08,-3.0798,-3.073,-3.0676,-3.0607,-3.054,-3.052,-3.052,-3.0577,0.0,0.0,0.0,0.0,0.0,0.0,0.0,0.0,0.0,0.0,0.0,0.0,0.0,0.0,0.0,0.0,0.0,0.0,0.0,0.0,-2.9947,0.0,0.0,0.0,0.0,0.0,0.0,0.0,0.0,0.0,0.0,-2.8514,-2.8144,-2.7606,-2.7297,0.0,0.0,0.0,0.0,-2.7181,-2.7181,-2.7135,-2.7135,-2.7181,-2.7355,-2.7496,-2.7496,0.0,0.0,-2.8767,-3.0184,-3.1203,-3.1291,-3.1925,-3.2588,-3.3081,-3.297,-3.2795,-3.2813,-3.2654,-3.2595,-3.2773,-3.2389,-3.186,-3.0551,0.0,0.0,0.0,0.0,-3.0769,-3.0703,-3.071,-3.0723,-3.072,-3.0662,-3.0699,0.0,0.0,0.0,0.0,0.0,0.0,-3.0697,-3.0701,-3.0725,-3.0695,-3.0645,-3.0639,-3.0621,-3.0568,-3.054,-3.046,-3.0333,-3.0348,-3.0318,-3.0213,0.0,0.0,0.0,0.0,-3.0355,-3.0471,-3.0602,-3.0703,-3.0775,-3.0791,-3.0798,-3.0798,-3.0736,-3.0695,-3.0676,-3.0613,-3.0576,-3.0576,-3.0626,0.0,0.0,0.0,0.0,0.0,0.0,0.0,0.0,0.0,0.0,0.0,0.0,0.0,0.0,0.0,0.0,0.0,0.0,0.0,-2.9647,-2.9439,-2.9163,0.0,0.0,0.0,0.0,0.0,0.0,0.0,0.0,0.0,-2.686,-2.6859,-2.6723,0.0,0.0,-2.6506,-2.6151,-2.6505,-2.6775,-2.6742,-2.6859,0.0,0.0,-2.712,-2.723,-2.7276,-2.7448,-2.7831,-2.8617,-2.9123,-2.9784,-3.0798,-3.1218,-3.1601,-3.2247,-3.2454,-3.2403,-3.2386,-3.2318,-3.2302,-3.2301,-3.2088,-3.1804,-2.9803,-3.0113,-3.0241,-3.0378,-3.051,-3.0618,-3.0678,-3.0701,-3.0732,-3.0726,-3.0713,-3.0729,-3.0762,-3.0755,-3.0687,0.0,0.0,0.0,-3.0614,-3.0622,-3.0634,-3.0579,-3.0552,-3.0548,-3.053,-3.0466,-3.0458,-3.0406,-3.0304,-3.0299,-3.026,-3.0245,0.0,0.0,-3.0213,-3.0292,-3.0414,-3.054,-3.0637,-3.073,-3.0789,-3.0797,-3.0801,-3.0799,-3.0736,-3.0697,-3.07,-3.0637,-3.061,-3.0634,-3.0671,-3.0698,0.0,0.0,0.0,0.0,0.0,0.0,0.0,0.0,0.0,0.0,0.0,-3.0585,-3.0489,0.0,0.0,0.0,-2.9763,-2.942,-2.9092,-2.8865,0.0,0.0,0.0,0.0,0.0,0.0,0.0,-2.6173,-2.5937,-2.5835,-2.587,-2.5873,-2.5819,-2.5757,-2.5892,-2.5944,-2.5812,0.0,-2.6279,-2.645,-2.6555,-2.6708,-2.6792,-2.6909,-2.7055,-2.7166,-2.7293,-2.756,-2.8045,-2.8375,-2.8878,-2.9676,-3.0144,-3.0491,-3.0976,-3.1394,-3.1795,-3.2039,-3.2073,-3.2018,-3.2015,-3.1873,-3.1765,-2.9926,-3.0132,-3.0253,-3.039,-3.0491,-3.0568,-3.0629,-3.0703,-3.071,-3.0711,-3.0691,-3.0704,-3.0697,-3.0704,-3.0626,0.0,-3.0574,-3.053,-3.0492,-3.0492,-3.0492,-3.0492,-3.0481,-3.0481,-3.046,-3.0386,-3.0386,-3.0364,-3.0316,-3.0304,-3.0311,-3.0312,-3.024,-3.0207,-3.0228,-3.0336,-3.0479,-3.0602,-3.0673,-3.0728,-3.0784,-3.0788,-3.0793,-3.0789,-3.073,-3.0697,-3.0707,-3.0645,-3.0653,-3.071,-3.0704,-3.0728,-3.0798,0.0,0.0,0.0,0.0,0.0,0.0,0.0,0.0,0.0,0.0,0.0,0.0,0.0,0.0,0.0,-2.9177,0.0,-2.8504,-2.8272,0.0,0.0,0.0,-2.7115,-2.6725,-2.6418,-2.6118,-2.5738,0.0,0.0,-2.5297,-2.5178,-2.5105,-2.5051,-2.5363,-2.5589,-2.5594,-2.5668,-2.5811,-2.6132,-2.6241,-2.6382,-2.6606,-2.6809,-2.6957,-2.7085,-2.7201,-2.733,-2.74,-2.7816,-2.8282,-2.8472,-2.8989,-2.9472,-2.9489,-3.0196,-3.0835,-3.153,-3.1752,-3.18,-3.18,-3.1746,-3.1688,-3.0011,-3.0188,-3.0379,-3.0447,-3.0419,-3.0559,-3.0606,-3.0629,-3.0673,-3.0661,-3.0634,-3.0661,-3.0673,-3.061,-3.0615,-3.0588,-3.0521,-3.051,-3.0471,-3.043,-3.043,-3.0428,-3.0433,-3.0414,-3.0414,-3.0402,-3.039,-3.0359,-3.0304,-3.0348,-3.0336,-3.0304,-3.0371,-3.0394,-3.0352,-3.0441,-3.053,-3.0684,-3.0748,-3.0794,-3.0799,-3.0794,-3.0789,-3.0784,-3.073,-3.0704,-3.071,-3.0683,-3.069,-3.0711,-3.0742,-3.0784,-3.0794,-3.0858,0.0,0.0,0.0,0.0,0.0,0.0,0.0,0.0,0.0,-3.0287,-3.0089,0.0,-2.9607,0.0,-2.8814,-2.8404,-2.8147,-2.7886,0.0,0.0,-2.7149,-2.6858,-2.6623,-2.6295,-2.5957,-2.5738,-2.5508,-2.5294,-2.5091,-2.5091,-2.5178,-2.539,-2.5326,-2.5262,-2.5426,-2.5621,-2.5754,-2.597,-2.6258,-2.6485,-2.6623,-2.6859,-2.7087,-2.7103,-2.7201,-2.7299,-2.7299,-2.742,-2.773,-2.8265,-2.8523,-2.8868,-2.9368,-2.9696,-2.992,-3.0179,-3.0991,-3.18,-3.18,-3.1783,-3.1783,-3.0117,-3.0285,-3.0481,-3.0521,-3.0492,-3.0559,-3.0606,-3.0613,-3.0637,-3.0637,-3.061,-3.0649,-3.064,-3.0615,-3.0578,-3.055,-3.0491,-3.049,-3.0499,-3.0458,-3.0458,-3.0428,-3.0455,-3.0444,-3.0455,-3.0444,-3.0444,-3.0425,-3.0394,-3.0436,-3.0417,-3.0406,-3.0491,-3.054,-3.053,-3.0585,-3.0642,-3.0761,-3.0777,-3.08,-3.0785,-3.0784,-3.0792,-3.0761,-3.0717,-3.0697,-3.0703,-3.0703,-3.071,-3.0691,-3.0773,-3.0799,-3.0798,-3.0864,-3.0879,0.0,0.0,0.0,0.0,0.0,0.0,0.0,0.0,0.0,0.0,0.0,-2.9218,-2.8827,-2.8404,-2.8045,-2.7847,-2.763,-2.7452,-2.7264,-2.699,-2.6759,-2.6486,-2.6258,-2.599,-2.5738,-2.5546,-2.5378,-2.5205,-2.5214,-2.5349,-2.5641,-2.5512,-2.5432,-2.5567,-2.5632,-2.5733,-2.6007,-2.6293,-2.6555,-2.6792,-2.7006,-2.7149,-2.723,-2.7327,-2.739,-2.739,-2.7407,-2.7546,-2.7927,-2.7982,-2.8135,-2.8518,-2.8932,-2.9155,-2.9327,-3.0109,-3.1081,-3.1672,-3.1324,-3.0941,-3.0302,-3.043,-3.0557,-3.0607,-3.0607,-3.0618,-3.0629,-3.0618,-3.0618,-3.061,-3.061,-3.0613,-3.0604,-3.0595,-3.055,-3.053,-3.052,-3.0519,-3.049,-3.05,-3.049,-3.049,-3.049,-3.049,-3.049,-3.049,-3.049,-3.0519,-3.0519,-3.052,-3.0511,-3.0521,-3.0593,-3.0642,-3.0704,-3.0711,-3.0739,-3.0794,-3.0798,-3.0794,-3.0798,-3.0798,-3.0761,-3.0711,-3.069,-3.0676,-3.07,-3.0692,-3.0695,-3.0711,-3.0753,-3.0793,-3.0798,-3.0847,-3.0859,0.0,-3.0802,0.0,0.0,0.0,0.0,0.0,0.0,0.0,0.0,-2.9273,-2.8839,-2.8327,-2.7989,-2.7748,-2.76,-2.7452,-2.7282,-2.7057,-2.6909,-2.6725,-2.64,-2.6293,-2.6115,-2.5811,-2.5696,-2.5605,-2.5508,-2.5481,-2.5562,-2.5847,-2.584,-2.5807,-2.5905,-2.5782,-2.586,-2.6168,-2.6365,-2.6691,-2.707,-2.7213,-2.7293,-2.7434,-2.7478,-2.7509,-2.7509,-2.7509,-2.7526,-2.7544,-2.7579,-2.7579,-2.7526,-2.8115,-2.8547,-2.8596,-2.9187,-3.0056,-3.1019,-3.0674,-2.9826,-3.0482,-3.0585,-3.0632,-3.0671,-3.0689,-3.0734,-3.073,-3.0683,-3.0683,-3.0688,-3.0673,-3.0673,-3.0637,-3.0621,-3.0576,-3.0586,-3.0586,-3.052,-3.0482,-3.0482,-3.0482,-3.0482,-3.0482,-3.0482,-3.0482,-3.0482,-3.0482,-3.052,-3.0577,-3.0576,-3.0602,-3.0661,-3.0665,-3.073,-3.0787,0.0,0.0,0.0,-3.0801,-3.0769,-3.0728,-3.0724,-3.0697,-3.0707,-3.0653,0.0,-3.061,-3.061,-3.0634,-3.0697,-3.0691,0.0,0.0,0.0,0.0,0.0,0.0,0.0,0.0,0.0,0.0,0.0,-3.0015,-2.9806,-2.953,-2.9017,-2.8572,-2.8246,-2.7961,-2.773,-2.7557,-2.7355,-2.7198,-2.7103,-2.6875,-2.6708,-2.6624,-2.6435,-2.626,-2.6189,-2.601,-2.5901,-2.5921,-2.5901,-2.6023,-2.6283,-2.6289,-2.6295,-2.6486,-2.6295,-2.6225,-2.6349,-2.6691,-2.7053,-2.7373,-2.7478,-2.7569,-2.7612,-2.7607,-2.7589,-2.7654,-2.7672,-2.7672,-2.7672,-2.7689,-2.7672,-2.7672,-2.79,-2.8176,-2.8123,-2.8351,-2.8847,-2.9945,-3.0091,-2.9645,-3.0579,0.0,-3.0706,-3.0747,0.0,-3.0788,-3.0781,-3.0759,-3.0739,-3.0755,-3.0743,-3.0724,-3.0665,-3.0644,-3.0649,-3.0653,-3.0645,-3.0599,-3.0591,-3.0591,-3.061,-3.061,-3.0591,-3.0591,-3.0591,-3.0579,-3.0607,-3.0607,-3.0645,-3.0649,-3.0664,-3.0697,-3.073,-3.0767,-3.0798,-3.0757,-3.0759,-3.0757,-3.076,-3.0704,-3.0651,-3.0642,-3.0637,-3.0613,0.0,0.0,0.0,0.0,0.0,0.0,0.0,0.0,0.0,0.0,0.0,-3.08,-3.0801,-3.0763,-3.0691,-3.0607,-3.0482,-3.0267,-2.9981,-2.9644,-2.9289,-2.8868,-2.8536,-2.8219,-2.795,-2.7713,-2.76,-2.7448,-2.7324,-2.7261,-2.7135,-2.7006,-2.6842,-2.6725,-2.6623,-2.6504,-2.6349,-2.633,-2.64,-2.6349,-2.6452,-2.6708,-2.6742,-2.6791,-2.6891,-2.6691,-2.659,-2.6791,-2.7164,-2.7461,-2.7689,-2.7777,-2.7864,-2.7904,-2.7844,-2.7855,-2.7971,-2.8,-2.801,-2.8027,-2.8045,-2.8045,-2.8045,-2.8146,-2.8219,-2.8246,-2.8282,-2.8488,-2.9027,-2.9107,-2.8983,-3.067,-3.0726,-3.0765,-3.0793,-3.0797,-3.08,-3.08,-3.0799,0.0,0.0,0.0,-3.0721,-3.0725,-3.0709,-3.071,-3.073,-3.0723,-3.0723,-3.0723,-3.0723,-3.0723,-3.0723,-3.0723,-3.0723,-3.0737,-3.0722,-3.0722,-3.0703,-3.0722,-3.0714,-3.072,-3.072,-3.0765,-3.0786,-3.0774,-3.0716,-3.0672,-3.0661,-3.0685,-3.0649,-3.0574,-3.0586,-3.0549,-3.0482,-3.0491,-3.05,-3.0481,-3.054,-3.0578,-3.0606,-3.0642,-3.0704,-3.0769,-3.0794,-3.0786,-3.08,-3.0796,-3.0768,-3.0716,-3.0658,-3.053,-3.0379,-2.9984,-2.9551,-2.9075,-2.8887,-2.8619,-2.8273,-2.8035,-2.7858,-2.776,-2.7659,-2.7557,-2.7465,-2.7434,-2.7341,-2.7137,-2.7105,-2.7023,-2.6875,-2.6808,-2.6791,-2.6923,-2.6873,-2.6906,-2.7085,-2.7244,-2.7352,-2.7334,-2.7132,-2.7068,-2.7396,-2.7654,-2.7847,-2.8063,-2.8164,-2.8219,-2.8291,-2.8192,-2.8138,-2.8334,-2.8422,-2.8448,-2.8448,-2.8474,-2.8448,-2.8474,-2.8474,-2.8518,-2.8569,-2.8612,-2.8576,-2.8474,-2.8428,-2.846,-3.0733,-3.0781,-3.08,-3.0797,-3.0788,-3.0788,-3.0788,-3.0792,-3.0795,-3.0791,-3.0801,-3.0794,-3.0782,-3.0794,-3.0787,-3.0794,-3.0794,-3.0794,-3.0794,0.0,-3.0794,-3.0794,-3.0794,-3.0794,-3.0789,-3.0794,-3.0785,-3.0777,-3.0788,-3.0769,-3.0775,-3.08,-3.0798,-3.0774,-3.0714,-3.0638,-3.0578,-3.0537,-3.0586,-3.0585,-3.0511,-3.051,-3.0471,-3.0419,-3.0425,-3.0414,-3.0409,-3.0409,-3.049,-3.0578,-3.0604,-3.0661,-3.0724,-3.0769,-3.079,-3.0784,-3.0801,-3.0788,-3.0794,-3.0728,-3.0554,-3.0253,-3.0011,-2.9698,-2.9293,-2.9075,-2.8821,-2.8551,-2.8334,-2.8165,-2.7996,-2.794,-2.7853,-2.7672,-2.76,-2.7557,-2.7526,-2.7465,-2.7417,-2.7386,-2.7404,-2.7355,-2.7386,-2.743,-2.7504,-2.7595,-2.7725,-2.788,-2.8029,-2.7794,-2.7713,-2.7989,-2.8119,-2.8255,-2.8448,-2.8525,-2.8576,-2.87,-2.8518,-2.8464,-2.8707,-2.8901,-2.8961,-2.8785,-2.8773,-2.8749,-2.8749,-2.8791,-2.8839,-2.8863,-2.8934,-2.8943,-2.8796,-2.8851,-2.8957,-3.0708,-3.0746,-3.0711,-3.0677,-3.0682,-3.0682,-3.0682,-3.0687,-3.0729,-3.0756,-3.08,-3.0798,-3.0795,-3.0788,-3.0784,-3.0799,-3.0794,-3.0796,-3.0796,-3.0796,-3.0796,-3.0796,-3.0796,-3.0799,-3.0788,-3.0799,-3.08,-3.0781,-3.0757,-3.0735,-3.074,-3.0747,-3.0763,-3.0693,-3.0603,-3.0555,-3.0497,-3.0388,-3.0488,-3.0491,-3.0398,-3.0402,-3.034,-3.0302,-3.0292,-3.0279,-3.0304,-3.0309,-3.0375,-3.0488,-3.053,-3.0557,-3.0642,-3.0717,-3.0764,-3.079,-3.0788,-3.0801,-3.0801,-3.07,-3.0543,-3.0317,-3.015,-2.9931,-2.9644,-2.9316,-2.9052,-2.8791,-2.8601,-2.8448,-2.8282,-2.8237,-2.8136,-2.8035,-2.7979,-2.7893,-2.7882,-2.7853,-2.7824,-2.7789,-2.7789,-2.7818,-2.794,-2.7971,-2.8037,-2.811,-2.8237,-2.841,-2.87,-2.8603,-2.8435,-2.8471,-2.854,-2.8658,-2.8785,-2.8897,-2.8943,-2.9012,-2.885,-2.8857,-2.9064,-2.9311,-2.9373,-2.9222,-2.9185,-2.9185,-2.9185,-2.9206,-2.9225,-2.9225,-2.9267,-2.9254,-2.914,-2.9295,-2.9384,-3.0631,-3.0607,-3.0543,-3.0527,-3.0521,-3.0521,-3.0521,-3.0548,-3.0591,-3.0658,-3.0693,-3.0755,-3.0762,-3.0786,-3.0767,-3.0769,-3.0792,-3.0772,-3.0772,-3.0792,-3.0772,-3.0772,-3.0792,-3.0767,-3.078,-3.0777,-3.0749,-3.0735,-3.0681,-3.0687,-3.0656,-3.0632,-3.064,-3.0564,-3.0453,-3.0421,-3.0355,-3.0266,-3.0356,-3.0328,-3.0279,-3.0266,-3.0215,-3.019,-3.0155,-3.0147,-3.0174,-3.0228,-3.0299,-3.0386,-3.0447,-3.0501,-3.0576,-3.0653,-3.0704,-3.0784,-3.0774,-3.0793,-3.0793,-3.0697,-3.0576,-3.0434,-3.0314,-3.0169,-2.9965,-2.9643,-2.9297,-2.9034,-2.8892,-2.8773,-2.8644,-2.8536,-2.844,-2.8414,-2.8362,-2.8309,-2.8255,-2.8246,-2.8255,-2.8192,-2.8174,-2.8273,-2.8396,-2.8464,-2.8529,-2.867,-2.8814,-2.8956,-2.9172,-2.9235,-2.9153,-2.9049,-2.906,-2.9101,-2.9107,-2.9233,-2.9314,-2.9316,-2.9228,-2.9287,-2.9437,-2.9663,-2.9739,-2.9626,-2.9589,-2.957,-2.9608,-2.9589,-2.9589,-2.957,-2.9589,-2.9589,-2.9514,-2.9664,-2.9739,-3.0385,-3.0344,-3.0323,-3.0332,-3.0321,-3.0321,-3.0321,-3.0321,-3.0413,-3.0443,-3.0462,-3.061,-3.0717,-3.0704,-3.0704,-3.0704,-3.071,-3.0704,-3.0704,-3.071,-3.0704,-3.0704,-3.0704,-3.071,-3.0707,-3.0703,-3.0642,-3.0622,-3.0595,-3.0607,-3.0545,-3.0436,-3.0424,-3.0389,-3.0321,-3.019,-3.0142,-3.0127,-3.006,-3.0094,-3.0199,-3.0157,-3.0113,-3.0098,-3.0053,-3.0053,-3.0102,-3.0128,-3.018,-3.0292,-3.0367,-3.0436,-3.0501,-3.0567,-3.0653,-3.0698,-3.0721,-3.0723,-3.0795,-3.0732,-3.0664,-3.0595,-3.0463,-3.0317,-3.0171,-2.9961,-2.9672,-2.936,-2.9256,-2.9144,-2.898,-2.8934,-2.8868,-2.8773,-2.8749,-2.8725,-2.8725,-2.8725,-2.8725,-2.8725,-2.8755,-2.8815,-2.8845,-2.8948,-2.9089,-2.9258,-2.928,-2.9399,-2.957,-2.9643,-2.9678,-2.9678,-2.9589,-2.9456,-2.9514,-2.9608,-2.9662,-2.9717,-2.9676,-2.9691,-2.9784,-2.995,-3.0078,-2.991,-2.9853,-2.9872,-2.9853,-2.9872,-2.9888,-2.9853,-2.9905,-2.9937,-2.995,-3.0041,-2.9981,-3.0106,-3.0065,-3.0056,-3.0061,-3.008,-3.0061,-3.0061,-3.008,-3.0131,-3.0157,-3.0171,-3.0294,-3.0433,-3.0574,-3.0574,-3.0582,-3.0602,-3.0582,-3.0602,-3.0582,-3.0574,-3.0574,-3.0593,-3.053,-3.053,-3.0511,-3.0452,-3.0402,-3.0359,-3.0337,-3.0287,-3.0221,-3.0177,-3.0122,-3.0052,-2.9977,-2.9893,-2.9795,-2.9793,-2.977,-2.9806,-2.9874,-2.9907,-2.9874,-2.9874,-2.9893,-2.9929,-2.9956,-3.0049,-3.0157,-3.024,-3.0299,-3.0375,-3.049,-3.0568,-3.0626,-3.0681,-3.0732,-3.0781,-3.0771,-3.0732,-3.067,-3.0571,-3.0472,-3.0378,-3.0239,-3.0041,-2.9817,-2.9606,-2.9454,-2.9334,-2.9251,-2.9206,-2.9163,-2.9119,-2.9101,-2.9101,-2.9082,-2.9101,-2.9141,-2.9188,-2.9193,-2.9256,-2.9378,-2.9533,-2.9715,-2.9767,-2.9815,-2.9931,-2.9973,-3.0032,-3.0114,-3.0047,-2.9973,-2.9934,-2.9946,-2.9996,-3.0026,-2.9999,-2.9975,-3.0104,-3.0233,-3.0305,-3.0152,-3.0152,-3.0133,-3.0118,-3.0118,-3.0152,-3.019,-3.0133,-3.0109,-3.0122,-3.027,-3.0228,-2.9693,-2.9676,-2.9715,-2.9715,-2.9751,-2.9751,-2.9751,-2.9732,-2.9799,-2.9832,-2.9848,-2.9908,-3.0075,-3.0251,-3.0359,-3.0392,-3.0392,-3.0392,-3.0392,-3.0392,-3.0392,-3.0411,-3.0392,-3.0317,-3.0314,-3.0283,-3.0222,-3.0138,-3.0089,-3.0037,-2.9992,-2.9958,-2.9896,-2.9853,-2.9771,-2.9698,-2.9608,-2.9532,-2.947,-2.9435,-2.9394,-2.9531,-2.9608,-2.9608,-2.9645,-2.9701,-2.9701,-2.979,-2.9874,-3.0007,-3.0049,-3.0152,-3.0241,-3.0367,-3.0458,-3.0567,-3.0659,-3.0724,-3.0782,-3.08,-3.0771,-3.0739,-3.0672,-3.062,-3.0574,-3.0463,-3.0334,-3.0251,-3.0071,-2.991,-2.9717,-2.9626,-2.957,-2.9551,-2.9494,-2.9456,-2.9474,-2.9456,-2.9475,-2.9532,-2.9551,-2.9606,-2.9695,-2.978,-2.9893,-3.0056,-3.0095,-3.0136,-3.0203,-3.0247,-3.0314,-3.0367,-3.0422,-3.0398,-3.0241,-3.0241,-3.0279,-3.0259,-3.0232,-3.0225,-3.0352,-3.0467,-3.0537,-3.0394,-3.0402,-3.0421,-3.0452,-3.0441,-3.0902,-3.0922,-3.0787,-3.0602,-3.0868,-3.101,-3.1118,-2.9138,-2.9151,-2.9212,-2.9254,-2.9334,-2.9316,-2.9334,-2.9334,-2.9398,-2.9418,-2.9456,-2.9551,-2.9626,-2.968,-2.9939,-3.0122,-3.0103,-3.0122,-3.0122,-3.0103,-3.0103,-3.0122,-3.0103,-3.0052,-3.0022,-3.0007,-2.9946,-2.9883,-2.9817,-2.9751,-2.9681,-2.9626,-2.9551,-2.9513,-2.9488,-2.9392,-2.932,-2.9287,-2.9193,-2.9123,-2.9112,-2.9134,-2.9225,-2.9353,-2.9412,-2.9434,-2.9512,-2.9588,-2.9683,-2.9808,-2.9839,-2.9899,-3.0109,-3.0174,-3.0316,-3.0482,-3.0634,-3.0697,-3.0704,-3.0762,-3.0819,-3.0834,-3.0891,-3.0837,-3.0987,-3.0729,-3.061,-3.0617,-3.0779,-3.0655,-3.0443,-3.0152,-2.9956,-2.9867,-2.9867,-2.9851,-2.9851,-2.9851,-2.9886,-2.9886,-2.9912,-2.9984,-3.0125,-3.0171,-3.0222,-3.0333,-3.0389,-3.0411,-3.0471,-3.0482,-3.0597,-3.069,-3.0762,-3.0684,-3.0491,-3.0432,-3.0482,-3.0665,-3.0743,-3.0577,-3.0528,-3.0585,-3.0701,-3.0759,-3.0944,-3.0983,-3.0864,-3.1233,-3.2008,-3.2076,-3.1516,-3.1399,-3.1796,-3.2578,-3.282,-2.8591,-2.867,-2.8694,-2.8742,-2.8795,-2.8795,-2.8837,-2.8938,-2.8934,-2.9056,-2.9175,-2.9166,-2.9172,-2.923,-2.9301,-2.9495,-2.9765,-2.9765,-2.9784,-2.9765,-2.9784,-2.9784,-2.9784,-2.9713,-2.9642,-2.9606,-2.9608,-2.9532,-2.9416,-2.9357,-2.9316,-2.9256,-2.9212,-2.9191,-2.9138,-2.9042,-2.896,-2.8912,-2.8858,-2.8832,-2.8767,-2.8785,-2.8834,-2.891,-2.9112,-2.9243,-2.9289,-2.933,-2.9414,-2.9608,-2.9645,-2.9754,-2.9907,-3.0094,-3.026,-3.0417,-3.052,-3.0614,-3.0678,-3.0735,-3.1008,-3.1577,-3.164,-3.1887,-3.2137,-3.1456,-3.1012,-3.1683,-3.2174,-3.2383,-3.2319,-3.1272,-3.0228,-3.0157,-3.0157,-3.0215,-3.0157,-3.0138,-3.0157,-3.0171,-3.0203,-3.0294,-3.0449,-3.0433,-3.0463,-3.0519,-3.0576,-3.0662,-3.0748,-3.1072,-3.146,-3.1591,-3.1991,-3.2366,-3.2348,-3.1223,-3.0773,-3.1321,-3.162,-3.1977,-3.2089,-3.2472,-3.2686,-3.2149,-3.2071,-3.213,-3.2195,-3.2382,-3.3121,-3.3133,-3.2562,-3.2681,-3.2836,-3.3557,-3.4127,-2.8002,-2.8084,-2.8066,-2.8121,-2.8228,-2.8272,-2.8316,-2.8422,-2.8446,-2.8612,-2.8796,-2.8755,-2.8749,-2.8773,-2.8731,-2.8883,-2.9214,-2.9299,-2.9378,-2.9378,-2.9378,-2.9359,-2.9358,-2.9336,-2.9277,-2.9254,-2.9209,-2.9123,-2.9052,-2.8971,-2.8925,-2.892,-2.8845,-2.8819,-2.8782,-2.87,-2.8608,-2.8586,-2.8525,-2.8504,-2.844,-2.844,-2.844,-2.8484,-2.8669,-2.8905,-2.9085,-2.9052,-2.9163,-2.937,-2.9431,-2.955,-2.9736,-2.9956,-3.0138,-3.0312,-3.0645,-3.0878,-3.1056,-3.1287,-3.1777,-3.237,-3.2497,-3.2768,-3.3222,-3.2453,-3.2419,-3.297,-3.334,-3.3756,-3.3677,-3.2426,-3.1312,-3.1246,-3.1216,-3.1235,-3.1235,-3.1254,-3.1293,-3.1321,-3.138,-3.1293,-3.1172,-3.1382,-3.1417,-3.1248,-3.139,-3.1571,-3.1674,-3.2021,-3.2469,-3.2498,-3.2887,-3.3158,-3.3099,-3.2307,-3.1909,-3.2366,-3.2723,-3.3161,-3.3439,-3.3965,-3.4082,-3.3595,-3.3419,-3.3517,-3.3609,-3.3721,-3.3877,-3.4047,-3.4277,-3.4417,-3.4476,-3.4495,-3.4928,-2.7272,-2.7378,-2.7409,-2.75,-2.7666,-2.7725,-2.7771,-2.7829,-2.7926,-2.8081,-2.8261,-2.8344,-2.8309,-2.8282,-2.8264,-2.8335,-2.8456,-2.87,-2.8847,-2.8911,-2.8911,-2.8911,-2.8906,-2.8897,-2.8868,-2.8827,-2.8821,-2.8749,-2.8676,-2.8626,-2.8551,-2.8518,-2.8422,-2.8376,-2.8381,-2.8334,-2.829,-2.8241,-2.8138,-2.8094,-2.8091,-2.8101,-2.8101,-2.8109,-2.8191,-2.8388,-2.8761,-2.8785,-2.8863,-2.9048,-2.9175,-2.933,-2.9551,-2.9808,-2.9959,-3.0304,-3.1005,-3.1527,-3.1772,-3.2464,-3.2865,-3.3213,-3.3268,-3.3379,-3.364,-3.3935,-3.4179,-3.4257,-3.4273,-3.4289,-3.4246,-3.371,-3.3134,-3.3168,-3.2868,-3.2868,-3.2985,-3.3121,-3.3153,-3.3002,-3.2912,-3.2893,-3.2655,-3.2655,-3.2755,-3.2634,-3.2799,-3.3018,-3.2983,-3.3182,-3.3379,-3.3417,-3.3706,-3.4014,-3.3738,-3.3408,-3.3416,-3.3515,-3.3787,-3.4096,-3.4118,-3.4471,-3.4568,-3.4217,-3.4158,-3.4256,-3.4547,-3.4682,-3.4936,-3.517,-3.558,-3.5657,-3.552,-3.5384,-3.5579,-2.6641,-2.6724,-2.6774,-2.6905,-2.7051,-2.71,-2.7195,-2.7307,-2.7352,-2.7496,-2.7652,-2.7647,-2.7607,-2.7613,-2.7666,-2.7748,-2.7789,-2.7897,-2.8147,-2.8489,-2.8558,-2.8558,-2.8533,-2.85,-2.8396,-2.8299,-2.8201,-2.8174,-2.8147,-2.8138,-2.8093,-2.8065,-2.8,-2.7994,-2.7978,-2.789,-2.7824,-2.7779,-2.7736,-2.7678,-2.7694,-2.7687,-2.7717,-2.7736,-2.7777,-2.7893,-2.8128,-2.8388,-2.8587,-2.8767,-2.8863,-2.9048,-2.9386,-3.0075,-3.0527,-3.0801,-3.1651,-3.2263,-3.239,-3.2743,-3.333,-3.38,-3.3999,-3.4396,-3.4925,-3.5198,-3.5346,-3.5376,-3.5363,-3.5376,-3.5329,-3.5213,-3.4549,-3.3402,-3.3275,-3.3353,-3.3431,-3.3353,-3.3298,-3.3321,-3.3347,-3.308,-3.2775,-3.3062,-3.3555,-3.3652,-3.3609,-3.3488,-3.3465,-3.3952,-3.4204,-3.4236,-3.4592,-3.4867,-3.4686,-3.455,-3.4569,-3.444,-3.4571,-3.4773,-3.4825,-3.4861,-3.4956,-3.4973,-3.4914,-3.4995,-3.5313,-3.5511,-3.565,-3.5786,-3.5827,-3.5908,-3.5989,-3.601,-3.5993,-2.5921,-2.6049,-2.6139,-2.6245,-2.6401,-2.647,-2.6573,-2.6741,-2.6791,-2.6891,-2.6971,-2.7004,-2.6967,-2.6963,-2.7095,-2.7195,-2.7293,-2.731,-2.7522,-2.7858,-2.8017,-2.8045,-2.8073,-2.8017,-2.795,-2.7847,-2.7771,-2.7742,-2.7713,-2.7713,-2.7666,-2.7636,-2.7595,-2.7566,-2.7553,-2.7465,-2.7397,-2.7377,-2.7267,-2.7241,-2.7247,-2.7238,-2.7287,-2.7359,-2.7404,-2.7461,-2.7582,-2.8141,-2.8431,-2.8514,-2.884,-2.9363,-2.9918,-3.0639,-3.1113,-3.1447,-3.2166,-3.2841,-3.3029,-3.3483,-3.3939,-3.4532,-3.4731,-3.502,-3.5582,-3.5757,-3.5806,-3.5853,-3.5833,-3.586,-3.5849,-3.5838,-3.5308,-3.4409,-3.4355,-3.4276,-3.4276,-3.4276,-3.4316,-3.4414,-3.4394,-3.4117,-3.4003,-3.4036,-3.4456,-3.4714,-3.4534,-3.4291,-3.434,-3.4724,-3.489,-3.5044,-3.5255,-3.5477,-3.5674,-3.5674,-3.569,-3.5463,-3.5254,-3.5393,-3.5451,-3.5471,-3.5524,-3.549,-3.5451,-3.5393,-3.5636,-3.5695,-3.5792,-3.5904,-3.5963,-3.5981,-3.5974,-3.5958,-3.5942,-2.5169,-2.5346,-2.5492,-2.5589,-2.5684,-2.5848,-2.5977,-2.6068,-2.6208,-2.6262,-2.6315,-2.6418,-2.647,-2.6472,-2.6522,-2.6657,-2.6891,-2.6908,-2.6923,-2.7053,-2.7261,-2.74,-2.7461,-2.7478,-2.7448,-2.7417,-2.7417,-2.7386,-2.7355,-2.7355,-2.7293,-2.7213,-2.7181,-2.7158,-2.7099,-2.7063,-2.7027,-2.6944,-2.6826,-2.6757,-2.6774,-2.6775,-2.6894,-2.7094,-2.719,-2.7289,-2.7612,-2.8253,-2.8553,-2.8408,-2.9268,-3.0089,-3.0925,-3.1316,-3.1592,-3.1861,-3.272,-3.3306,-3.3752,-3.4281,-3.4859,-3.5078,-3.5201,-3.5432,-3.5543,-3.5579,-3.565,-3.5745,-3.576,-3.5764,-3.5767,-3.5774,-3.5684,-3.5775,-3.5584,-3.565,-3.5825,-3.5747,-3.5567,-3.5678,-3.5848,-3.5845,-3.5612,-3.5651,-3.5702,-3.5706,-3.5597,-3.5461,-3.5449,-3.5435,-3.5639,-3.5698,-3.5611,-3.5611,-3.5648,-3.5629,-3.562,-3.5563,-3.5454,-3.5557,-3.5714,-3.5753,-3.5772,-3.5779,-3.5779,-3.5787,-3.5794,-3.5787,-3.5794,-3.584,-3.5892,-3.5924,-3.5936,-3.5917,-3.5864,-2.4549,-2.4614,-2.4775,-2.4974,-2.5098,-2.5192,-2.5307,-2.5443,-2.5589,-2.5701,-2.5775,-2.5885,-2.5957,-2.6066,-2.6049,-2.6137,-2.626,-2.6295,-2.633,-2.64,-2.6504,-2.6725,-2.6906,-2.6989,-2.6956,-2.6923,-2.694,-2.6891,-2.6891,-2.6891,-2.6858,-2.6825,-2.6791,-2.6723,-2.6719,-2.6607,-2.65,-2.6471,-2.6412,-2.6382,-2.6399,-2.6467,-2.6754,-2.7347,-2.7505,-2.7845,-2.8388,-2.8818,-2.9261,-2.9642,-2.9929,-3.0302,-3.0928,-3.161,-3.2109,-3.2445,-3.3241,-3.3939,-3.4177,-3.4538,-3.4831,-3.4982,-3.5102,-3.5219,-3.5315,-3.5372,-3.547,-3.5507,-3.5535,-3.5579,-3.5581,-3.5621,-3.567,-3.5735,-3.5801,-3.585,-3.583,-3.583,-3.5825,-3.5827,-3.5807,-3.585,-3.5868,-3.5853,-3.5795,-3.5766,-3.5698,-3.564,-3.5607,-3.5615,-3.5574,-3.557,-3.5526,-3.5514,-3.5502,-3.5489,-3.5489,-3.547,-3.5442,-3.5477,-3.559,-3.565,-3.565,-3.565,-3.566,-3.565,-3.5679,-3.5698,-3.5736,-3.5754,-3.5771,-3.5779,-3.5865,-3.5873,-3.5784,-2.3824,-2.3952,-2.4105,-2.4271,-2.442,-2.4542,-2.4679,-2.4855,-2.4974,-2.513,-2.5246,-2.5362,-2.5476,-2.5584,-2.5567,-2.5659,-2.5717,-2.577,-2.5828,-2.5937,-2.5974,-2.6191,-2.6488,-2.6522,-2.6521,-2.6469,-2.6469,-2.6504,-2.6504,-2.6504,-2.6504,-2.6504,-2.6469,-2.6386,-2.6269,-2.6195,-2.6072,-2.6052,-2.6208,-2.636,-2.636,-2.673,-2.7189,-2.7665,-2.7858,-2.83,-2.913,-2.9397,-2.9779,-3.0311,-3.0574,-3.0826,-3.1492,-3.2146,-3.2611,-3.2801,-3.3496,-3.3954,-3.4173,-3.434,-3.4539,-3.4691,-3.4831,-3.4964,-3.5072,-3.5152,-3.5197,-3.5307,-3.5355,-3.5378,-3.5412,-3.5438,-3.5483,-3.5519,-3.5568,-3.5621,-3.5715,-3.5724,-3.5687,-3.5679,-3.5679,-3.5718,-3.5755,-3.5704,-3.5639,-3.5604,-3.5528,-3.5445,-3.5372,-3.5391,-3.5397,-3.5388,-3.5374,-3.534,-3.534,-3.5326,-3.5307,-3.5307,-3.5321,-3.5364,-3.5432,-3.5495,-3.5519,-3.5519,-3.5519,-3.5519,-3.555,-3.5581,-3.5593,-3.5596,-3.5609,-3.5669,-3.5737,-3.5757,-3.5689,-2.3127,-2.3304,-2.345,-2.3595,-2.3739,-2.3937,-2.4078,-2.4219,-2.4467,-2.463,-2.4751,-2.4886,-2.495,-2.5029,-2.5068,-2.513,-2.5301,-2.5339,-2.5416,-2.5492,-2.5551,-2.5705,-2.595,-2.6104,-2.6134,-2.6115,-2.6151,-2.6134,-2.6118,-2.6134,-2.6134,-2.6134,-2.6134,-2.6101,-2.6101,-2.6036,-2.5886,-2.6076,-2.6509,-2.6733,-2.683,-2.7266,-2.7688,-2.8045,-2.8418,-2.888,-2.9559,-2.9889,-3.0217,-3.0854,-3.0924,-3.1462,-3.2347,-3.2702,-3.2876,-3.3039,-3.3314,-3.3625,-3.3815,-3.3954,-3.4173,-3.4386,-3.4517,-3.4666,-3.4792,-3.4851,-3.4963,-3.5088,-3.5141,-3.5187,-3.5254,-3.5266,-3.5247,-3.5277,-3.5277,-3.5364,-3.5463,-3.5554,-3.5562,-3.5502,-3.547,-3.5515,-3.5515,-3.5468,-3.5369,-3.5311,-3.5262,-3.5193,-3.5162,-3.5184,-3.5187,-3.519,-3.5174,-3.5157,-3.5157,-3.5157,-3.5138,-3.5138,-3.5155,-3.5187,-3.5262,-3.5321,-3.5383,-3.5397,-3.5383,-3.5364,-3.5378,-3.5411,-3.5424,-3.547,-3.5489,-3.5553,-3.5635,-3.5612,-3.5566,-2.2569,-2.2665,-2.2815,-2.3024,-2.326,-2.3392,-2.3523,-2.3638,-2.3967,-2.4151,-2.425,-2.44,-2.4467,-2.4508,-2.4589,-2.467,-2.4806,-2.4886,-2.5005,-2.5107,-2.5123,-2.516,-2.5341,-2.5556,-2.5733,-2.5712,-2.5733,-2.5717,-2.5717,-2.5733,-2.5733,-2.5787,-2.5777,-2.5852,-2.6303,-2.6302,-2.6535,-2.6898,-2.7141,-2.7208,-2.7224,-2.7483,-2.7936,-2.8446,-2.916,-2.9662,-3.0028,-3.027,-3.0506,-3.0808,-3.1155,-3.1558,-3.2091,-3.237,-3.2521,-3.2752,-3.3037,-3.3268,-3.3368,-3.3625,-3.3842,-3.4023,-3.4197,-3.434,-3.4495,-3.4586,-3.4689,-3.4791,-3.487,-3.4926,-3.5037,-3.5073,-3.5053,-3.5051,-3.5049,-3.5069,-3.5136,-3.5262,-3.534,-3.533,-3.5335,-3.5358,-3.5356,-3.5245,-3.5157,-3.5051,-3.4978,-3.4905,-3.4925,-3.4963,-3.4963,-3.4964,-3.4964,-3.4945,-3.4945,-3.4945,-3.4964,-3.4945,-3.4964,-3.4982,-3.5034,-3.5119,-3.5152,-3.5203,-3.5239,-3.5239,-3.52,-3.5235,-3.527,-3.53,-3.5364,-3.5412,-3.5455,-3.5457,-3.5445,-2.2058,-2.2128,-2.2282,-2.254,-2.2768,-2.2918,-2.3038,-2.3157,-2.3523,-2.3698,-2.3799,-2.394,-2.4009,-2.4109,-2.4151,-2.4219,-2.4369,-2.4523,-2.4645,-2.4726,-2.4766,-2.4775,-2.4863,-2.5068,-2.5265,-2.5313,-2.531,-2.5317,-2.5301,-2.5388,-2.549,-2.5782,-2.5718,-2.6079,-2.6542,-2.6575,-2.6686,-2.7001,-2.741,-2.7541,-2.7541,-2.7945,-2.8331,-2.8878,-2.9516,-2.9902,-3.0017,-3.0146,-3.0384,-3.0617,-3.0878,-3.1274,-3.1765,-3.2002,-3.2179,-3.2386,-3.2654,-3.288,-3.3019,-3.325,-3.3484,-3.3625,-3.3815,-3.3972,-3.4099,-3.4245,-3.4363,-3.4473,-3.4542,-3.4628,-3.4751,-3.4771,-3.4772,-3.4793,-3.4812,-3.4812,-3.485,-3.5,-3.5141,-3.5126,-3.5072,-3.5111,-3.5114,-3.5021,-3.4889,-3.4793,-3.4773,-3.4715,-3.4639,-3.4695,-3.4752,-3.4771,-3.4771,-3.4771,-3.4771,-3.4771,-3.4771,-3.4771,-3.4771,-3.4771,-3.4792,-3.487,-3.4945,-3.5001,-3.5054,-3.5054,-3.5035,-3.5072,-3.5108,-3.5141,-3.5174,-3.5261,-3.5308,-3.532,-3.5277,-2.1568,-2.1712,-2.1855,-2.2044,-2.2278,-2.2463,-2.254,-2.2663,-2.3038,-2.3246,-2.3349,-2.348,-2.3625,-2.3784,-2.3812,-2.3909,-2.4078,-2.4162,-2.4359,-2.44,-2.44,-2.4451,-2.4517,-2.462,-2.4813,-2.4947,-2.4957,-2.4942,-2.5155,-2.5171,-2.5576,-2.6014,-2.6091,-2.6471,-2.6854,-2.6962,-2.7112,-2.7365,-2.7736,-2.7936,-2.7967,-2.8481,-2.8871,-2.9134,-2.9409,-2.9576,-2.971,-2.9886,-3.006,-3.0274,-3.0401,-3.0773,-3.1235,-3.1654,-3.1875,-3.2037,-3.2335,-3.2521,-3.2636,-3.2848,-3.3081,-3.3202,-3.3397,-3.3569,-3.3734,-3.3868,-3.3998,-3.4099,-3.4179,-3.4293,-3.4427,-3.4431,-3.4454,-3.4498,-3.4517,-3.4517,-3.4583,-3.4751,-3.4812,-3.4851,-3.4831,-3.4868,-3.4845,-3.4804,-3.4666,-3.4567,-3.4542,-3.4502,-3.4423,-3.4423,-3.4502,-3.452,-3.452,-3.452,-3.452,-3.452,-3.4539,-3.4539,-3.4539,-3.4539,-3.4539,-3.4586,-3.467,-3.4811,-3.487,-3.487,-3.4889,-3.4908,-3.4927,-3.4964,-3.5001,-3.5073,-3.5145,-3.5179,-3.5138,-2.1171,-2.1313,-2.141,-2.1602,-2.1746,-2.1996,-2.217,-2.2324,-2.2601,-2.2828,-2.3008,-2.3142,-2.3246,-2.3377,-2.3551,-2.3782,-2.3925,-2.4024,-2.4067,-2.4124,-2.4109,-2.412,-2.428,-2.4388,-2.4569,-2.4787,-2.4887,-2.5082,-2.5425,-2.5634,-2.5895,-2.6414,-2.6553,-2.6867,-2.732,-2.7561,-2.7752,-2.7994,-2.8293,-2.8404,-2.8513,-2.8654,-2.8826,-2.892,-2.9137,-2.9213,-2.9305,-2.9592,-2.9798,-2.9897,-3.0146,-3.0359,-3.0634,-3.11,-3.1411,-3.1654,-3.1948,-3.2197,-3.2232,-3.2488,-3.2687,-3.283,-3.3037,-3.322,-3.335,-3.3559,-3.368,-3.3788,-3.3895,-3.3998,-3.4055,-3.4074,-3.4124,-3.4173,-3.4197,-3.4221,-3.4269,-3.4321,-3.4435,-3.4524,-3.4561,-3.4558,-3.4551,-3.4506,-3.4363,-3.4279,-3.4274,-3.4213,-3.4115,-3.4171,-3.4269,-3.4269,-3.4269,-3.4269,-3.4269,-3.4269,-3.4293,-3.4293,-3.4293,-3.4293,-3.4316,-3.4316,-3.4409,-3.452,-3.4647,-3.4689,-3.4689,-3.473,-3.4771,-3.4811,-3.485,-3.4889,-3.4983,-3.5058,-3.5038,-2.0974,-2.097,-2.1118,-2.1326,-2.152,-2.1616,-2.1793,-2.2044,-2.2278,-2.2449,-2.2586,-2.2843,-2.2963,-2.3068,-2.3275,-2.3494,-2.3683,-2.3726,-2.3812,-2.3897,-2.3925,-2.4154,-2.4438,-2.4544,-2.4972,-2.5379,-2.5543,-2.5564,-2.5828,-2.5843,-2.6253,-2.6714,-2.687,-2.719,-2.7711,-2.7829,-2.8057,-2.836,-2.8409,-2.8411,-2.8411,-2.8508,-2.8604,-2.8732,-2.8873,-2.8951,-2.9029,-2.9229,-2.9441,-2.956,-2.9814,-2.9989,-3.0189,-3.0468,-3.0861,-3.114,-3.1524,-3.1765,-3.1856,-3.2126,-3.2335,-3.242,-3.2654,-3.2848,-3.2957,-3.3111,-3.3327,-3.3426,-3.3577,-3.3689,-3.3726,-3.3753,-3.3807,-3.3868,-3.3895,-3.3921,-3.3954,-3.3979,-3.4055,-3.4179,-3.4245,-3.4264,-3.4282,-3.4191,-3.4062,-3.3993,-3.3986,-3.3924,-3.3869,-3.3924,-3.4042,-3.4042,-3.4023,-3.4074,-3.4129,-3.424,-3.4252,-3.4259,-3.437,-3.437,-3.4321,-3.4439,-3.4321,-3.4245,-3.434,-3.4772,-3.4539,-3.4583,-3.4626,-3.4668,-3.471,-3.479,-3.4866,-3.4925,-3.4869,-2.0762,-2.0709,-2.0885,-2.1095,-2.1326,-2.1375,-2.152,-2.1793,-2.2044,-2.217,-2.2231,-2.2537,-2.2766,-2.2873,-2.3068,-2.326,-2.3509,-2.3509,-2.3714,-2.4025,-2.404,-2.4386,-2.4972,-2.5259,-2.553,-2.6001,-2.624,-2.6427,-2.629,-2.626,-2.6579,-2.7086,-2.7223,-2.7452,-2.7878,-2.7939,-2.7974,-2.797,-2.8005,-2.8005,-2.8069,-2.8217,-2.8396,-2.8525,-2.8636,-2.8779,-2.8842,-2.8982,-2.9121,-2.9259,-2.9441,-2.9621,-2.9738,-2.9973,-3.0258,-3.0601,-3.1083,-3.1295,-3.1466,-3.1746,-3.1948,-3.1984,-3.2301,-3.2472,-3.2555,-3.2784,-3.2975,-3.3099,-3.3208,-3.3316,-3.3375,-3.3375,-3.3444,-3.353,-3.3569,-3.3597,-3.3698,-3.3726,-3.3726,-3.3815,-3.3895,-3.3983,-3.4046,-3.3965,-3.3823,-3.3768,-3.3733,-3.3752,-3.3697,-3.3752,-3.3807,-3.3807,-3.3834,-3.3842,-3.3997,-3.4255,-3.4347,-3.4412,-3.4751,-3.4972,-3.4797,-3.4703,-3.4618,-3.4744,-3.4964,-3.5293,-3.4862,-3.4423,-3.4454,-3.4517,-3.4602,-3.4682,-3.476,-3.4743,-3.4689,-2.0612,-2.0712,-2.0825,-2.0974,-2.1095,-2.118,-2.1375,-2.1616,-2.1793,-2.1983,-2.2184,-2.2385,-2.2598,-2.2898,-2.3051,-2.329,-2.3511,-2.3718,-2.403,-2.4448,-2.4522,-2.4897,-2.55,-2.5543,-2.6019,-2.6515,-2.6632,-2.6736,-2.6801,-2.6849,-2.7167,-2.7671,-2.7716,-2.7898,-2.792,-2.792,-2.7996,-2.7976,-2.7951,-2.7955,-2.8005,-2.8054,-2.8152,-2.825,-2.8396,-2.8508,-2.8621,-2.8763,-2.8858,-2.8967,-2.9075,-2.9213,-2.9396,-2.9637,-2.9798,-3.007,-3.046,-3.0885,-3.0982,-3.1295,-3.1579,-3.1671,-3.1965,-3.2108,-3.2266,-3.2472,-3.2705,-3.2898,-3.2948,-3.2979,-3.2961,-3.2979,-3.3024,-3.3117,-3.3208,-3.3298,-3.3404,-3.3415,-3.3415,-3.3415,-3.3512,-3.3734,-3.3863,-3.3716,-3.3597,-3.356,-3.3496,-3.3532,-3.3623,-3.3686,-3.3824,-3.3897,-3.4207,-3.43,-3.4448,-3.4631,-3.4704,-3.4778,-3.5089,-3.5491,-3.5384,-3.5312,-3.5698,-3.5828,-3.5919,-3.561,-3.5094,-3.4705,-3.446,-3.4638,-3.504,-3.4895,-3.4581,-3.4607,-3.4895,-2.0861,-2.0699,-2.0762,-2.0861,-2.0997,-2.1095,-2.1229,-2.1506,-2.1712,-2.1841,-2.2044,-2.2278,-2.2694,-2.3241,-2.3484,-2.3841,-2.4261,-2.4382,-2.4637,-2.5014,-2.5179,-2.5541,-2.6053,-2.6201,-2.6504,-2.6966,-2.7166,-2.7235,-2.7304,-2.7353,-2.7564,-2.7715,-2.7775,-2.7745,-2.778,-2.7786,-2.7786,-2.7735,-2.7755,-2.779,-2.784,-2.7905,-2.7955,-2.8054,-2.8152,-2.825,-2.8396,-2.8493,-2.8621,-2.87,-2.8873,-2.8951,-2.9075,-2.9259,-2.9396,-2.956,-2.9913,-3.03,-3.0617,-3.0942,-3.114,-3.1368,-3.1596,-3.1802,-3.2001,-3.2214,-3.237,-3.2472,-3.2539,-3.2606,-3.2657,-3.2657,-3.2755,-3.2852,-3.2884,-3.2979,-3.3073,-3.3104,-3.3104,-3.3104,-3.3188,-3.3491,-3.3725,-3.3737,-3.3683,-3.3658,-3.3538,-3.3454,-3.3605,-3.3822,-3.3979,-3.4117,-3.4564,-3.4975,-3.5193,-3.5399,-3.5447,-3.552,-3.5586,-3.5896,-3.5914,-3.6029,-3.6399,-3.6355,-3.6101,-3.5745,-3.5329,-3.5362,-3.544,-3.5546,-3.5653,-3.5361,-3.5125,-3.5824,-3.604,-2.1368,-2.1182,-2.1169,-2.1284,-2.1435,-2.1472,-2.1649,-2.1884,-2.2158,-2.2277,-2.2394,-2.2752,-2.3355,-2.3784,-2.4105,-2.4451,-2.4907,-2.5158,-2.5387,-2.5604,-2.5834,-2.6243,-2.6632,-2.6871,-2.7081,-2.756,-2.7485,-2.7535,-2.7565,-2.758,-2.7565,-2.756,-2.761,-2.7625,-2.7625,-2.7625,-2.7625,-2.7625,-2.7625,-2.7675,-2.7725,-2.774,-2.7855,-2.7905,-2.797,-2.7989,-2.8137,-2.825,-2.8348,-2.8477,-2.8636,-2.8716,-2.8842,-2.8982,-2.9121,-2.9259,-2.9531,-2.9814,-3.0172,-3.0493,-3.074,-3.0998,-3.1308,-3.1559,-3.1763,-3.1946,-3.2073,-3.2161,-3.2232,-3.2318,-3.2387,-3.2387,-3.2456,-3.2557,-3.2623,-3.269,-3.2791,-3.2879,-3.2912,-3.2826,-3.3001,-3.3372,-3.3627,-3.3727,-3.3786,-3.3777,-3.362,-3.345,-3.3755,-3.415,-3.4411,-3.4686,-3.492,-3.5349,-3.5539,-3.5765,-3.5955,-3.6222,-3.6308,-3.6503,-3.6685,-3.6789,-3.7033,-3.6827,-3.6498,-3.6698,-3.6798,-3.6628,-3.6464,-3.6231,-3.6025,-3.5814,-3.5858,-3.6645,-3.6926,-2.2283,-2.2498,-2.2445,-2.2538,-2.2631,-2.2816,-2.2894,-2.2956,-2.3293,-2.3419,-2.3464,-2.4006,-2.4226,-2.4496,-2.4708,-2.4912,-2.5068,-2.5173,-2.5712,-2.6228,-2.6489,-2.6871,-2.72,-2.738,-2.7505,-2.7545,-2.756,-2.756,-2.756,-2.756,-2.756,-2.756,-2.756,-2.756,-2.756,-2.756,-2.756,-2.756,-2.756,-2.756,-2.7625,-2.7625,-2.7675,-2.779,-2.7855,-2.7905,-2.8005,-2.8069,-2.8118,-2.8235,-2.8348,-2.8493,-2.8621,-2.8732,-2.8858,-2.9045,-2.9167,-2.9396,-2.9738,-3.0087,-3.0342,-3.0593,-3.0935,-3.1308,-3.1534,-3.1726,-3.1819,-3.1912,-3.2001,-3.2073,-3.2108,-3.2144,-3.2214,-3.2336,-3.2476,-3.2669,-3.2756,-3.2844,-3.2809,-3.2616,-3.2966,-3.3582,-3.3899,-3.411,-3.4385,-3.4449,-3.4181,-3.4008,-3.4505,-3.4914,-3.5142,-3.5352,-3.5475,-3.5636,-3.5705,-3.599,-3.6561,-3.6883,-3.7058,-3.7362,-3.7685,-3.7787,-3.7566,-3.7667,-3.7517,-3.789,-3.8045,-3.7491,-3.7004,-3.6639,-3.6491,-3.6676,-3.6925,-3.7553,-3.7469,-2.3021,-2.3212,-2.371,-2.3566,-2.295,-2.3122,-2.328,-2.3385,-2.3682,-2.3886,-2.4081,-2.4383,-2.4733,-2.5142,-2.5373,-2.5741,-2.6083,-2.6329,-2.6577,-2.6861,-2.716,-2.735,-2.756,-2.756,-2.756,-2.756,-2.756,-2.756,-2.756,-2.756,-2.756,-2.756,-2.756,-2.756,-2.756,-2.756,-2.756,-2.756,-2.756,-2.756,-2.756,-2.756,-2.7625,-2.7675,-2.7675,-2.774,-2.784,-2.784,-2.7955,-2.8069,-2.8118,-2.825,-2.8396,-2.8493,-2.8636,-2.8811,-2.8889,-2.9121,-2.935,-2.9738,-3.0087,-3.0468,-3.0773,-3.1032,-3.1303,-3.1385,-3.1538,-3.1614,-3.1743,-3.1834,-3.1927,-3.1946,-3.2,-3.2194,-3.2439,-3.2701,-3.2911,-3.3014,-3.3225,-3.3242,-3.3663,-3.4244,-3.4419,-3.4579,-3.4888,-3.5154,-3.4835,-3.4711,-3.519,-3.5581,-3.5758,-3.5989,-3.6114,-3.6363,-3.6434,-3.6809,-3.7255,-3.7416,-3.763,-3.7808,-3.7967,-3.7985,-3.7891,-3.8138,-3.8219,-3.8129,-3.8012,-3.7849,-3.7625,-3.7422,-3.765,-3.7985,-3.8301,-3.845,-3.8136,-2.3838,-2.399,-2.4617,-2.4363,-2.3676,-2.381,-2.397,-2.409,-2.4382,-2.4601,-2.4807,-2.504,-2.5328,-2.5827,-2.6046,-2.6323,-2.6732,-2.6975,-2.7137,-2.7291,-2.7414,-2.756,-2.756,-2.756,-2.756,-2.756,-2.756,-2.756,-2.756,-2.756,-2.756,-2.756,-2.756,-2.756,-2.756,-2.756,-2.756,-2.756,-2.756,-2.756,-2.756,-2.756,-2.756,-2.7625,-2.7625,-2.7625,-2.774,-2.7725,-2.7806,-2.7905,-2.7955,-2.8005,-2.8152,-2.825,-2.8396,-2.8573,-2.87,-2.8889,-2.9106,-2.9499,-2.9957,-3.0333,-3.0526,-3.0814,-3.1015,-3.1151,-3.1346,-3.1445,-3.1534,-3.1675,-3.1949,-3.2139,-3.2414,-3.2769,-3.3028,-3.327,-3.3394,-3.3533,-3.3779,-3.3973,-3.4428,-3.4857,-3.5048,-3.5192,-3.5346,-3.5641,-3.5729,-3.5588,-3.5819,-3.6139,-3.63,-3.6534,-3.6712,-3.6998,-3.7301,-3.7287,-3.7254,-3.7362,-3.7559,-3.7703,-3.7829,-3.79,-3.7953,-3.8003,-3.8054,-3.8088,-3.8029,-3.7893,-3.8113,-3.835,-3.8462,-3.8523,-3.8571,-3.8601,-3.8667,-2.454,-2.4935,-2.4991,-2.4964,-2.4898,-2.5106,-2.519,-2.5301,-2.5479,-2.5683,-2.5923,-2.615,-2.6323,-2.6462,-2.6538,-2.673,-2.6945,-2.7144,-2.7299,-2.7386,-2.7524,-2.7575,-2.756,-2.756,-2.756,-2.756,-2.756,-2.756,-2.756,-2.756,-2.756,-2.756,-2.756,-2.756,-2.756,-2.756,-2.756,-2.756,-2.756,-2.756,-2.756,-2.756,-2.756,-2.756,-2.756,-2.7625,-2.7625,-2.7625,-2.769,-2.779,-2.779,-2.789,-2.8005,-2.8137,-2.8235,-2.8396,-2.8525,-2.8716,-2.8967,-2.9531,-3.0016,-3.0228,-3.0375,-3.0676,-3.0929,-3.1089,-3.141,-3.1676,-3.1725,-3.1986,-3.2303,-3.2627,-3.2992,-3.3271,-3.3551,-3.3865,-3.3951,-3.4283,-3.4582,-3.476,-3.5088,-3.5411,-3.5677,-3.5873,-3.5879,-3.6058,-3.6354,-3.6504,-3.6462,-3.6523,-3.6597,-3.6689,-3.689,-3.6999,-3.7143,-3.722,-3.7261,-3.737,-3.7463,-3.7574,-3.763,-3.7667,-3.7757,-3.7846,-3.7881,-3.7898,-3.7967,-3.8,-3.8153,-3.8336,-3.8588,-3.8664,-3.8695,-3.8738,-3.875,-2.4892,-2.5005,-2.5257,-2.5411,-2.5564,-2.555,-2.5633,-2.5798,-2.6016,-2.6218,-2.6365,-2.6457,-2.6578,-2.6698,-2.6779,-2.6899,-2.7003,-2.7144,-2.7299,-2.7401,-2.7524,-2.7575,-2.756,-2.756,-2.756,-2.756,-2.756,-2.756,-2.756,-2.756,-2.756,-2.756,-2.756,-2.756,-2.756,-2.756,-2.756,-2.756,-2.756,-2.756,-2.756,-2.756,-2.756,-2.756,-2.756,-2.756,-2.756,-2.756,-2.7625,-2.7675,-2.7675,-2.7755,-2.7901,-2.8065,-2.8213,-2.8345,-2.8539,-2.8997,-2.969,-3.04,-3.0642,-3.0429,-3.0396,-3.0823,-3.1341,-3.1099,-3.1566,-3.2309,-3.2608,-3.2961,-3.3189,-3.3257,-3.3485,-3.3686,-3.3967,-3.4394,-3.4692,-3.5172,-3.5497,-3.5591,-3.5771,-3.5761,-3.5907,-3.5973,-3.5998,-3.6115,-3.634,-3.6516,-3.6551,-3.6568,-3.6643,-3.6701,-3.6753,-3.6811,-3.6908,-3.6987,-3.7066,-3.7122,-3.7235,-3.7367,-3.7425,-3.7447,-3.7484,-3.754,-3.7613,-3.7685,-3.7792,-3.7898,-3.8052,-3.8223,-3.8445,-3.8574,-3.8614,-3.8645,-3.8713,-2.5075,-2.5188,-2.5522,-2.5757,-2.5948,-2.5839,-2.5893,-2.6056,-2.6272,-2.6418,-2.651,-2.6578,-2.6712,-2.6832,-2.6899,-2.6989,-2.7144,-2.7248,-2.7335,-2.7488,-2.759,-2.7575,-2.756,-2.756,-2.756,-2.756,-2.756,-2.756,-2.756,-2.756,-2.756,-2.756,-2.756,-2.756,-2.756,-2.756,-2.756,-2.756,-2.756,-2.756,-2.756,-2.756,-2.756,-2.756,-2.756,-2.756,-2.756,-2.7575,-2.759,-2.759,-2.767,-2.7825,-2.8047,-2.8319,-2.851,-2.8832,-2.9268,-2.973,-3.0398,-3.1039,-3.1146,-3.092,-3.0871,-3.132,-3.1928,-3.1831,-3.2235,-3.2891,-3.3677,-3.3897,-3.3939,-3.3998,-3.41,-3.4286,-3.4585,-3.5053,-3.5189,-3.5633,-3.5778,-3.5881,-3.5958,-3.5975,-3.5975,-3.6002,-3.6002,-3.6139,-3.6293,-3.6437,-3.6561,-3.6561,-3.6602,-3.6602,-3.6643,-3.6684,-3.6708,-3.6788,-3.6829,-3.6886,-3.7023,-3.7136,-3.714,-3.7182,-3.7203,-3.7279,-3.7392,-3.7503,-3.7649,-3.7774,-3.788,-3.8054,-3.8295,-3.8409,-3.8465,-3.8533,-3.8619,-2.5201,-2.555,-2.5798,-2.6016,-2.6056,-2.6002,-2.6111,-2.634,-2.6472,-2.6525,-2.6496,-2.6712,-2.6884,-2.6989,-2.7003,-2.7144,-2.7299,-2.735,-2.7437,-2.7539,-2.7575,-2.756,-2.756,-2.756,-2.756,-2.756,-2.756,-2.756,-2.756,-2.756,-2.756,-2.756,-2.756,-2.756,-2.756,-2.756,-2.756,-2.756,-2.756,-2.756,-2.756,-2.756,-2.756,-2.756,-2.756,-2.7649,-2.7694,-2.7754,-2.7784,-2.785,-2.7835,-2.8216,-2.8589,-2.8985,-2.9498,-3.0032,-3.0448,-3.0725,-3.1039,-3.1595,-3.1999,-3.206,-3.2294,-3.2557,-3.2602,-3.2586,-3.2834,-3.3597,-3.4447,-3.4566,-3.4694,-3.4735,-3.482,-3.5074,-3.5362,-3.5514,-3.5531,-3.5677,-3.5739,-3.5817,-3.5888,-3.5888,-3.5888,-3.5932,-3.5932,-3.5975,-3.6122,-3.6148,-3.6276,-3.6318,-3.6318,-3.6419,-3.6461,-3.6502,-3.6544,-3.6585,-3.6626,-3.6708,-3.676,-3.6858,-3.6864,-3.6891,-3.6935,-3.7013,-3.7203,-3.7317,-3.7503,-3.7613,-3.7703,-3.7899,-3.8126,-3.8295,-3.8405,-3.8469,-3.8538,-2.5522,-2.5784,-2.5962,-2.615,-2.6418,-2.6606,-2.6606,-2.6486,-2.6645,-2.6765,-2.6884,-2.6899,-2.7041,-2.713,-2.7144,-2.7248,-2.735,-2.7401,-2.7488,-2.7524,-2.756,-2.756,-2.756,-2.756,-2.756,-2.756,-2.756,-2.756,-2.756,-2.756,-2.756,-2.756,-2.756,-2.756,-2.756,-2.756,-2.756,-2.756,-2.756,-2.756,-2.756,-2.756,-2.759,-2.7649,-2.7664,-2.7829,-2.8188,-2.8278,-2.8494,-2.8899,-2.9071,-2.9388,-2.9471,-2.9705,-3.0122,-3.0464,-3.1047,-3.1592,-3.1943,-3.2612,-3.3107,-3.3323,-3.3615,-3.3609,-3.3466,-3.3238,-3.3389,-3.4242,-3.4979,-3.5142,-3.5176,-3.5216,-3.5267,-3.5419,-3.5639,-3.5622,-3.5622,-3.5622,-3.5728,-3.5728,-3.5756,-3.58,-3.58,-3.5756,-3.5756,-3.58,-3.5888,-3.5975,-3.6062,-3.6088,-3.6148,-3.6251,-3.6251,-3.6276,-3.6293,-3.6335,-3.6419,-3.6502,-3.6554,-3.6613,-3.6684,-3.6673,-3.6678,-3.6759,-3.697,-3.7182,-3.7334,-3.7429,-3.7522,-3.7757,-3.797,-3.8142,-3.831,-3.8391,-3.8455,-2.5633,-2.5893,-2.6125,-2.6379,-2.6698,-2.6884,-2.6922,-2.6788,-2.6922,-2.7041,-2.7093,-2.7093,-2.7144,-2.7248,-2.7299,-2.735,-2.7488,-2.7488,-2.7524,-2.7575,-2.756,-2.756,-2.756,-2.756,-2.756,-2.756,-2.756,-2.756,-2.756,-2.756,-2.756,-2.756,-2.756,-2.756,-2.756,-2.756,-2.756,-2.756,-2.756,-2.756,-2.759,-2.7619,-2.7709,-2.7949,-2.7964,-2.8368,-2.8929,-2.9034,-2.9342,-2.9681,-2.9819,-3.0091,-3.0327,-3.0799,-3.119,-3.1579,-3.2029,-3.2437,-3.274,-3.3288,-3.3818,-3.4151,-3.4382,-3.4396,-3.4256,-3.4093,-3.4368,-3.4873,-3.5256,-3.5605,-3.5605,-3.5622,-3.5622,-3.5622,-3.5639,-3.5639,-3.5639,-3.5639,-3.5639,-3.5639,-3.5639,-3.5639,-3.5639,-3.5639,-3.5622,-3.5667,-3.5711,-3.5756,-3.5844,-3.5975,-3.6019,-3.6122,-3.6062,-3.6062,-3.6062,-3.6122,-3.6191,-3.631,-3.6379,-3.6422,-3.6478,-3.6527,-3.6533,-3.6632,-3.6788,-3.6987,-3.7143,-3.7241,-3.7354,-3.7558,-3.7811,-3.7987,-3.814,-3.8256,-3.8372,-2.5647,-2.5948,-2.6233,-2.6621,-2.6951,-2.7041,-2.7107,-2.7233,-2.7233,-2.7218,-2.7233,-2.7233,-2.7299,-2.7401,-2.7401,-2.7488,-2.7524,-2.7575,-2.7575,-2.756,-2.756,-2.756,-2.756,-2.756,-2.756,-2.756,-2.756,-2.756,-2.756,-2.756,-2.756,-2.756,-2.756,-2.756,-2.756,-2.756,-2.7649,-2.7889,-2.7844,-2.7829,-2.7769,-2.7784,-2.7964,-2.8547,-2.8809,-2.9019,-2.9582,-2.9816,-2.9939,-2.9993,-3.0221,-3.0685,-3.1321,-3.1921,-3.2362,-3.2586,-3.2876,-3.3103,-3.3328,-3.3697,-3.4018,-3.4234,-3.4431,-3.4625,-3.4648,-3.4605,-3.4831,-3.504,-3.5436,-3.5577,-3.5639,-3.5639,-3.5639,-3.5639,-3.5639,-3.5639,-3.5639,-3.5639,-3.5639,-3.5639,-3.5639,-3.5639,-3.5639,-3.5639,-3.5639,-3.5622,-3.5622,-3.5622,-3.5711,-3.5844,-3.5888,-3.5932,-3.5888,-3.5888,-3.5975,-3.5975,-3.5993,-3.607,-3.6165,-3.6208,-3.6268,-3.6318,-3.6402,-3.6485,-3.6626,-3.6788,-3.6948,-3.7066,-3.7259,-3.7429,-3.7649,-3.7811,-3.8005,-3.8285,-3.8347,-2.5757,-2.6233,-2.6659,-2.6884,-2.6989,-2.7196,-2.7299,-2.735,-2.7473,-2.7423,-2.7386,-2.735,-2.7437,-2.7524,-2.7524,-2.7575,-2.7575,-2.756,-2.756,-2.756,-2.756,-2.756,-2.756,-2.756,-2.756,-2.756,-2.756,-2.756,-2.756,-2.756,-2.756,-2.756,-2.756,-2.756,-2.7575,-2.7604,-2.7853,-2.8196,-2.8368,-2.8397,-2.8442,-2.8457,-2.8652,-2.9184,-2.9507,-2.9847,-3.0307,-3.0658,-3.1031,-3.1374,-3.1591,-3.1879,-3.2261,-3.2625,-3.292,-3.3134,-3.324,-3.345,-3.3694,-3.3949,-3.4151,-3.4399,-3.4594,-3.4787,-3.4927,-3.4905,-3.5011,-3.5232,-3.5436,-3.556,-3.5639,-3.5639,-3.5639,-3.5639,-3.5639,-3.5639,-3.5639,-3.5639,-3.5639,-3.5639,-3.5639,-3.5639,-3.5639,-3.5639,-3.5639,-3.5622,-3.5622,-3.5622,-3.5622,-3.5711,-3.5711,-3.5756,-3.5711,-3.5711,-3.58,-3.5844,-3.5844,-3.5888,-3.5949,-3.5993,-3.6036,-3.6165,-3.6276,-3.636,-3.6502,-3.6696,-3.6893,-3.6983,-3.7179,-3.76,-3.7715,-3.7951,-3.842,-3.8778,-3.8663,-2.5826,-2.634,-2.6794,-2.7055,-2.7107,-2.7284,-2.7437,-2.7488,-2.7575,-2.7575,-2.7488,-2.7488,-2.7524,-2.756,-2.756,-2.756,-2.756,-2.756,-2.756,-2.756,-2.756,-2.756,-2.756,-2.756,-2.756,-2.756,-2.756,-2.756,-2.756,-2.756,-2.756,-2.7625,-2.7625,-2.764,-2.7649,-2.7882,-2.8234,-2.8562,-2.8868,-2.916,-2.928,-2.928,-2.9439,-2.9913,-3.0307,-3.0649,-3.1122,-3.149,-3.1728,-3.2155,-3.2281,-3.254,-3.2756,-3.298,-3.3134,-3.3346,-3.3503,-3.371,-3.3949,-3.4151,-3.43,-3.4562,-3.4707,-3.4947,-3.5135,-3.5157,-3.517,-3.5374,-3.5498,-3.5622,-3.5622,-3.5639,-3.5639,-3.5639,-3.5639,-3.5639,-3.5639,-3.5639,-3.5639,-3.5639,-3.5639,-3.5639,-3.5639,-3.5639,-3.5639,-3.5639,-3.5639,-3.5639,-3.5639,-3.5639,-3.5639,-3.5639,-3.5639,-3.5622,-3.5667,-3.5711,-3.5711,-3.5739,-3.581,-3.5844,-3.5922,-3.6036,-3.6165,-3.6354,-3.6525,-3.6721,-3.6887,-3.7225,-3.7807,-3.839,-3.832,-3.8191,-3.8722,-3.9373,-3.9878,-2.5812,-2.634,-2.6832,-2.7093,-2.7233,-2.7386,-2.7488,-2.7575,-2.756,-2.756,-2.7575,-2.7575,-2.756,-2.756,-2.756,-2.756,-2.756,-2.756,-2.756,-2.756,-2.756,-2.756,-2.756,-2.756,-2.756,-2.756,-2.756,-2.756,-2.756,-2.756,-2.7625,-2.7625,-2.7685,-2.7715,-2.7912,-2.833,-2.8857,-2.9143,-2.9549,-3.0043,-3.0158,-3.0128,-3.0318,-3.0639,-3.1036,-3.1364,-3.1855,-3.2191,-3.2287,-3.2523,-3.2757,-3.2942,-3.3156,-3.3261,-3.3435,-3.3607,-3.3797,-3.3949,-3.4151,-3.43,-3.4513,-3.4676,-3.4851,-3.5041,-3.5291,-3.535,-3.5362,-3.5453,-3.556,-3.5622,-3.5622,-3.5639,-3.5639,-3.5639,-3.5639,-3.5639,-3.5639,-3.5639,-3.5639,-3.5639,-3.5639,-3.5639,-3.5639,-3.5639,-3.5639,-3.5639,-3.5639,-3.5639,-3.5639,-3.5639,-3.5639,-3.5639,-3.5639,-3.5622,-3.5622,-3.5622,-3.5667,-3.5667,-3.5711,-3.5745,-3.5875,-3.6161,-3.6395,-3.6465,-3.6638,-3.7146,-3.7499,-3.792,-3.8517,-3.9087,-3.9181,-3.9043,-3.9198,-4.0,-4.1395,-2.5812,-2.634,-2.6922,-2.7181,-2.7218,-2.7473,-2.7575,-2.7575,-2.756,-2.756,-2.756,-2.756,-2.756,-2.756,-2.756,-2.756,-2.756,-2.756,-2.756,-2.756,-2.756,-2.756,-2.756,-2.756,-2.756,-2.756,-2.756,-2.756,-2.7634,-2.7604,-2.764,-2.77,-2.8283,-2.8429,-2.8517,-2.8994,-2.9575,-2.9839,-3.0193,-3.0698,-3.108,-3.1065,-3.1076,-3.1399,-3.1855,-3.2028,-3.2287,-3.2484,-3.2609,-3.2827,-3.3043,-3.3277,-3.3419,-3.3591,-3.3745,-3.3899,-3.405,-3.4201,-3.4349,-3.4497,-3.4707,-3.4838,-3.5013,-3.5198,-3.5337,-3.5412,-3.547,-3.5515,-3.5622,-3.5622,-3.5639,-3.5639,-3.5639,-3.5639,-3.5639,-3.5639,-3.5639,-3.5639,-3.5639,-3.5639,-3.5639,-3.5639,-3.5639,-3.5639,-3.5639,-3.5639,-3.5639,-3.5639,-3.5639,-3.5639,-3.5639,-3.5639,-3.5656,-3.5639,-3.5622,-3.5622,-3.5622,-3.5622,-3.5757,-3.6022,-3.6271,-3.6469,-3.6644,-3.696,-3.746,-3.804,-3.8407,-3.8651,-3.9015,-3.9501,-3.9905,-4.0002,-4.005,-4.0569,-4.1897]}]]